ftp/pub/palmer/observations_modified/2019/July/AR190727_BASE.txt

Download

Sample DateTime	Unit Id	WS Avg 2min	WD Avg 2min	WGS 10min	WGD 10min	Air Temp	Rel Humidity	Dew Point	Pyranometer	Quantum	Air Pressure	Snow Level	Rainfall	PW Current	Visibility	CBase 1	CBase 2	CBase 3	Vert Vis
2019/07/27  00:00:00  BASE  10.731   48   12.642   45   -1.0  66    -6.6  0     0     969.4    NA       0.0000   9999     3540  0     0    
2019/07/27  00:01:00  BASE  10.7251  48   12.642   45   -1.0  66    -6.5  0     0     969.5    NA       0.0000   9999     0     0     0    
2019/07/27  00:02:00  BASE  10.5722  47   12.642   45   -1.0  66    -6.5  0     0     969.4    NA       0.0000   9999     0     0     0    
2019/07/27  00:03:00  BASE  10.3488  47   12.642   45   -1.0  66    -6.5  0     0     969.5    NA       0.0000   9999     3310  0     0    
2019/07/27  00:04:00  BASE  10.2724  46   12.642   45   -0.9  66    -6.4  0     0     969.4    NA       0.0000   9999     3250  0     0    
2019/07/27  00:05:00  BASE  10.5428  46   12.642   45   -0.9  66    -6.4  0     0     969.4    NA       0.0000   9999     3540  0     0    
2019/07/27  00:06:00  BASE  10.484   46   12.642   45   -0.8  67    -6.3  0     0     969.4    NA       0.0000   9999     3480  0     0    
2019/07/27  00:07:00  BASE  10.2782  45   12.642   45   -0.8  67    -6.2  0     0     969.3    NA       0.0000   9999     3410  0     0    
2019/07/27  00:08:00  BASE  9.86076  47   12.642   45   -0.8  67    -6.0  0     0     969.3    NA       0.0000   9999     0     0     0    
2019/07/27  00:09:00  BASE  9.76668  49   12.642   45   -0.7  68    -5.9  0     0     969.3    NA       0.0000   9999     0     0     0    
2019/07/27  00:10:00  BASE  9.94308  52   11.86    44   -0.7  68    -5.8  0     0     969.2    NA       0.0000   9999     3610  0     0    
2019/07/27  00:11:00  BASE  10.2194  54   12.4009  54   -0.7  68    -5.8  0     0     969.1    NA       0.0000   9999     0     0     0    
2019/07/27  00:12:00  BASE  10.5899  56   12.4009  54   -0.7  68    -5.8  0     0     969.0    NA       0.0000   9999     0     0     0    
2019/07/27  00:13:00  BASE  10.5428  58   12.4009  54   -0.7  69    -5.7  0     0     968.9    NA       0.0000   9999     0     0     0    
2019/07/27  00:14:00  BASE  10.4958  60   12.4009  54   -0.7  69    -5.7  0     0     968.9    NA       0.0000   9999     0     0     0    
2019/07/27  00:15:00  BASE  10.7957  60   12.4009  54   -0.7  69    -5.7  0     0     968.9    NA       0.0000   9999     0     0     0    
2019/07/27  00:16:00  BASE  10.5605  60   12.4009  54   -0.7  69    -5.7  0     0     969.0    NA       0.0000   9999     0     0     0    
2019/07/27  00:17:00  BASE  10.2665  59   12.4009  54   -0.7  69    -5.7  0     0     969.0    NA       0.0000   9999     0     0     0    
2019/07/27  00:18:00  BASE  10.3312  57   12.4009  54   -0.6  68    -5.7  0     0     969.0    NA       0.0000   9999     0     0     0    
2019/07/27  00:19:00  BASE  10.3429  56   12.4009  54   -0.6  68    -5.8  0     0     968.9    NA       0.0000   9999     0     0     0    
2019/07/27  00:20:00  BASE  10.0783  55   12.4009  54   -0.6  68    -5.8  0     0     968.9    NA       0.0000   9999     0     0     0    
2019/07/27  00:21:00  BASE  9.87252  55   12.3127  51   -0.6  68    -5.8  0     0     968.9    NA       0.0000   9999     0     0     0    
2019/07/27  00:22:00  BASE  10.1136  57   11.6483  61   -0.6  68    -5.7  0     0     968.8    NA       0.0000   9999     0     0     0    
2019/07/27  00:23:00  BASE  10.0666  57   11.6483  61   -0.6  68    -5.7  0     0     968.8    NA       0.0000   9999     0     0     0    
2019/07/27  00:24:00  BASE  9.9372   57   11.4366  59   -0.7  69    -5.7  0     0     968.8    NA       0.0000   9999     0     0     0    
2019/07/27  00:25:00  BASE  10.1665  57   11.3425  59   -0.7  69    -5.7  0     0     968.8    NA       0.0000   9999     0     0     0    
2019/07/27  00:26:00  BASE  10.9368  57   12.4303  53   -0.8  70    -5.7  0     0     968.7    NA       0.0000   9999     0     0     0    
2019/07/27  00:27:00  BASE  11.3954  58   12.4303  53   -0.8  70    -5.7  0     0     968.6    NA       0.0000   9999     0     0     0    
2019/07/27  00:28:00  BASE  11.7071  59   13.1006  65   -0.9  70    -5.7  0     0     968.6    NA       0.0000   9999     0     0     0    
2019/07/27  00:29:00  BASE  12.4538  61   13.8827  57   -0.9  70    -5.7  0     0     968.5    NA       0.0000   9999     0     0     0    
2019/07/27  00:30:00  BASE  12.8419  61   13.8827  57   -0.9  70    -5.7  0     0     968.4    NA       0.0000   9999     0     0     0    
2019/07/27  00:31:00  BASE  12.836   61   13.8827  57   -0.8  70    -5.7  0     0     968.3    NA       0.0000   9999     0     0     0    
2019/07/27  00:32:00  BASE  12.7126  61   13.9121  59   -0.8  69    -5.7  0     0     968.3    NA       0.0000   9999     0     0     0    
2019/07/27  00:33:00  BASE  13.0477  60   14.0356  60   -0.8  69    -5.7  0     0     968.3    NA       0.0000   9999     0     0     0    
2019/07/27  00:34:00  BASE  13.5475  60   14.0356  60   -0.8  69    -5.8  0     0     968.2    NA       0.0000   9999     0     0     0    
2019/07/27  00:35:00  BASE  13.33    60   14.0356  60   -0.8  69    -5.8  0     0     968.3    NA       0.0000   9999     0     0     0    
2019/07/27  00:36:00  BASE  12.8184  61   14.0356  60   -0.8  69    -5.8  0     0     968.3    NA       0.0000   9999     0     0     0    
2019/07/27  00:37:00  BASE  12.3774  63   14.0356  60   -0.8  69    -5.8  0     0     968.3    NA       0.0000   9999     0     0     0    
2019/07/27  00:38:00  BASE  12.3656  63   14.0356  60   -0.9  69    -5.9  0     0     968.3    NA       0.0000   9999     0     0     0    
2019/07/27  00:39:00  BASE  12.5479  62   14.0356  60   -0.9  69    -6.0  0     0     968.3    NA       0.0000   9999     0     0     0    
2019/07/27  00:40:00  BASE  12.4362  63   14.0356  60   -1.0  68    -6.1  0     0     968.3    NA       0.0000   9999     0     0     0    
2019/07/27  00:41:00  BASE  12.836   65   14.0356  60   -1.1  68    -6.2  0     0     968.3    NA       0.0000   9999     0     0     0    
2019/07/27  00:42:00  BASE  13.2947  65   14.159   64   -1.1  68    -6.3  0     0     968.2    NA       0.0000   9999     0     0     0    
2019/07/27  00:43:00  BASE  13.5299  65   14.1884  66   -1.1  68    -6.2  0     0     968.2    NA       0.0000   9999     0     0     0    
2019/07/27  00:44:00  BASE  13.3417  64   14.1884  66   -1.0  68    -6.2  0     0     968.3    NA       0.0000   9999     0     0     0    
2019/07/27  00:45:00  BASE  12.7361  65   14.1884  66   -0.9  68    -6.2  0     0     968.3    NA       0.0000   9999     0     0     0    
2019/07/27  00:46:00  BASE  12.9654  66   14.2178  64   -0.9  67    -6.2  0     0     968.2    NA       0.0000   9999     0     0     0    
2019/07/27  00:47:00  BASE  13.2888  67   14.2178  64   -0.9  67    -6.3  0     0     968.2    NA       0.0000   9999     0     0     0    
2019/07/27  00:48:00  BASE  13.4299  67   14.5177  64   -0.8  66    -6.4  0     0     968.2    NA       0.0000   9999     0     0     0    
2019/07/27  00:49:00  BASE  13.4593  67   14.5177  64   -0.9  66    -6.5  0     0     968.2    NA       0.0000   9999     0     0     0    
2019/07/27  00:50:00  BASE  12.595   68   14.5177  64   -0.9  65    -6.6  0     0     968.2    NA       0.0000   9999     0     0     0    
2019/07/27  00:51:00  BASE  12.4891  68   15.0058  69   -0.9  65    -6.6  0     0     968.2    NA       0.0000   9999     0     0     0    
2019/07/27  00:52:00  BASE  13.1536  68   15.0058  69   -1.0  65    -6.7  0     0     968.1    NA       0.0000   9999     0     0     0    
2019/07/27  00:53:00  BASE  13.3476  67   15.0058  69   -1.0  65    -6.7  0     0     968.1    NA       0.0000   9999     0     0     0    
2019/07/27  00:54:00  BASE  13.2418  68   15.0058  69   -1.0  65    -6.7  0     0     968.1    NA       0.0000   9999     0     0     0    
2019/07/27  00:55:00  BASE  13.2418  68   15.0058  69   -0.9  65    -6.7  0     0     968.2    NA       0.0000   9999     0     0     0    
2019/07/27  00:56:00  BASE  13.1712  65   15.0058  69   -0.9  65    -6.6  0     0     968.2    NA       0.0000   9000     0     0     0    
2019/07/27  00:57:00  BASE  12.889   62   15.0058  69   -0.8  65    -6.5  0     0     968.2    NA       0.0000   8000     0     0     0    
2019/07/27  00:58:00  BASE  12.9007  63   15.0058  69   -0.7  65    -6.4  0     0     968.2    NA       0.0000   9000     0     0     0    
2019/07/27  00:59:00  BASE  13.0124  63   15.0058  69   -0.6  65    -6.4  0     0     968.2    NA       0.0000   9999     0     0     0    
2019/07/27  01:00:00  BASE  13.1006  63   15.0058  69   -0.5  65    -6.3  0     0     968.2    NA       0.0000   9999     0     0     0    
2019/07/27  01:01:00  BASE  12.8302  63   14.7     68   -0.6  65    -6.3  0     0     968.3    NA       0.0000   HZ       9000  0     0    
2019/07/27  01:02:00  BASE  12.4891  63   14.6412  59   -0.6  65    -6.3  0     0     968.2    NA       0.0000   HZ       9999  0     0    
2019/07/27  01:03:00  BASE  12.2363  64   14.6412  59   -0.7  66    -6.3  0     0     968.2    NA       0.0000   HZ       9999  19690 0    
2019/07/27  01:04:00  BASE  12.5479  65   14.6412  59   -0.7  66    -6.3  0     0     968.1    NA       0.0000   HZ       8000  0     0    
2019/07/27  01:05:00  BASE  12.9654  63   14.6412  59   -0.8  66    -6.3  0     0     968.1    NA       0.0000   HZ       8000  0     0    
2019/07/27  01:06:00  BASE  13.5769  63   15.3644  59   -0.8  66    -6.3  0     0     968.0    NA       0.0000   HZ       7000  0     0    
2019/07/27  01:07:00  BASE  13.9826  66   15.3644  68   -0.8  67    -6.2  0     0     968.0    NA       0.0000   HZ       6000  0     0    
2019/07/27  01:08:00  BASE  14.0826  68   15.5467  68   -0.8  67    -6.2  0     0     968.0    NA       0.0000   UP       6000  0     0    
2019/07/27  01:09:00  BASE  14.9999  66   16.4875  67   -0.7  67    -6.1  0     0     968.0    NA       0.0000   UP       6000  17450 0    
2019/07/27  01:10:00  BASE  14.8882  66   16.4875  67   -0.6  67    -6.0  0     0     968.0    NA       0.0000   UP       5000  0     0    
2019/07/27  01:11:00  BASE  14.5354  69   16.4875  67   -0.5  67    -6.0  0     0     968.0    NA       0.0000   UP       6000  0     0    
2019/07/27  01:12:00  BASE  14.7764  69   16.4875  67   -0.4  67    -5.9  0     0     968.0    NA       0.0000   UP       6000  17360 0    
2019/07/27  01:13:00  BASE  14.6177  69   16.4875  67   -0.3  66    -5.9  0     0     968.0    NA       0.0000   UP       5000  17360 0    
2019/07/27  01:14:00  BASE  14.212   69   16.4875  67   -0.2  66    -5.8  0     0     968.0    NA       0.0000   UP       5000  17360 0    
2019/07/27  01:15:00  BASE  13.6769  68   16.4875  67   -0.1  65    -5.9  0     0     968.0    NA       0.0000   UP       5000  17290 0    
2019/07/27  01:16:00  BASE  13.1477  71   16.4875  67   -0.1  65    -6.0  0     0     968.0    NA       0.0000   UP       6000  17320 0    
2019/07/27  01:17:00  BASE  13.0242  73   16.4875  67   -0.1  64    -6.1  0     0     968.0    NA       0.0000   UP       9999  17290 0    
2019/07/27  01:18:00  BASE  13.0183  75   16.4875  67   -0.1  64    -6.1  0     0     967.9    NA       0.0000   UP       9999  18180 0    
2019/07/27  01:19:00  BASE  13.2182  78   16.3346  70   -0.1  63    -6.2  0     0     967.9    NA       0.0000   UP       9999  18410 0    
2019/07/27  01:20:00  BASE  13.2947  77   16.3346  70   -0.1  63    -6.3  0     0     967.9    NA       0.0000   UP       9999  0     0    
2019/07/27  01:21:00  BASE  12.348   77   15.8231  71   -0.0  63    -6.3  0     0     967.9    NA       0.0000   UP       9999  0     0    
2019/07/27  01:22:00  BASE  11.66    78   15.4879  67   0.0   62    -6.4  0     0     967.9    NA       0.0000   HZ       9999  0     0    
2019/07/27  01:23:00  BASE  11.9482  76   14.5471  66   0.0   62    -6.4  0     0     967.8    NA       0.0000   HZ       9999  18410 0    
2019/07/27  01:24:00  BASE  11.7776  77   14.4883  79   0.1   61    -6.5  0     0     967.8    NA       0.0000   9999     18340 0     0    
2019/07/27  01:25:00  BASE  11.2014  78   14.4883  79   0.0   61    -6.6  0     0     967.7    NA       0.0000   9999     18370 0     0    
2019/07/27  01:26:00  BASE  11.1896  77   14.4883  79   -0.0  61    -6.6  0     0     967.6    NA       0.0000   9999     18280 0     0    
2019/07/27  01:27:00  BASE  10.9309  77   14.4883  79   -0.1  62    -6.6  0     0     967.6    NA       0.0000   9999     16470 18080 0    
2019/07/27  01:28:00  BASE  11.2249  78   14.4883  79   -0.2  62    -6.6  0     0     967.5    NA       0.0000   9999     0     0     0    
2019/07/27  01:29:00  BASE  11.5601  78   13.9121  71   -0.3  63    -6.5  0     0     967.4    NA       0.0000   9999     16110 17520 0    
2019/07/27  01:30:00  BASE  11.3719  75   13.3417  75   -0.3  63    -6.5  0     0     967.4    NA       0.0000   9999     17160 0     0    
2019/07/27  01:31:00  BASE  11.9246  76   14.1884  74   -0.4  64    -6.4  0     0     967.3    NA       0.0000   9999     16210 0     0    
2019/07/27  01:32:00  BASE  12.4244  76   14.1884  74   -0.4  64    -6.4  0     0     967.3    NA       0.0000   9999     16010 0     0    
2019/07/27  01:33:00  BASE  12.3068  75   14.1884  74   -0.4  64    -6.3  0     0     967.2    NA       0.0000   9999     17360 0     0    
2019/07/27  01:34:00  BASE  12.395   74   14.1884  74   -0.4  64    -6.3  0     0     967.2    NA       0.0000   9999     16110 17320 0    
2019/07/27  01:35:00  BASE  12.8125  74   14.6412  70   -0.4  65    -6.3  0     0     967.1    NA       0.0000   9999     16110 17190 0    
2019/07/27  01:36:00  BASE  12.4068  73   14.6412  70   -0.4  65    -6.3  0     0     967.2    NA       0.0000   9999     16210 0     0    
2019/07/27  01:37:00  BASE  11.9893  73   14.6412  70   -0.4  65    -6.3  0     0     967.2    NA       0.0000   9999     16140 0     0    
2019/07/27  01:38:00  BASE  12.0775  73   14.6412  70   -0.4  65    -6.2  0     0     967.1    NA       0.0000   9999     16080 0     0    
2019/07/27  01:39:00  BASE  11.9423  75   14.6412  70   -0.4  65    -6.2  0     0     967.1    NA       0.0000   9999     15850 0     0    
2019/07/27  01:40:00  BASE  11.9482  78   14.6412  70   -0.4  65    -6.2  0     0     967.1    NA       0.0000   9999     15810 0     0    
2019/07/27  01:41:00  BASE  11.6542  76   14.6412  70   -0.4  65    -6.2  0     0     967.1    NA       0.0000   9999     15910 0     0    
2019/07/27  01:42:00  BASE  11.4248  76   14.6412  70   -0.5  65    -6.2  0     0     967.1    NA       0.0000   9999     15780 0     0    
2019/07/27  01:43:00  BASE  11.1367  78   14.6412  70   -0.5  66    -6.1  0     0     967.1    NA       0.0000   9999     15520 0     0    
2019/07/27  01:44:00  BASE  11.1308  77   14.6412  70   -0.5  66    -6.1  0     0     967.1    NA       0.0000   9999     15980 0     0    
2019/07/27  01:45:00  BASE  11.366   75   13.9121  70   -0.5  66    -6.0  0     0     967.1    NA       0.0000   9999     15880 0     0    
2019/07/27  01:46:00  BASE  11.0132  75   13.9121  70   -0.5  66    -6.1  0     0     967.1    NA       0.0000   9999     8730  15850 0    
2019/07/27  01:47:00  BASE  10.8368  75   13.4887  70   -0.5  66    -6.1  0     0     967.1    NA       0.0000   9999     8630  0     0    
2019/07/27  01:48:00  BASE  10.7663  73   13.4299  79   -0.4  65    -6.1  0     0     967.1    NA       0.0000   9999     8600  0     0    
2019/07/27  01:49:00  BASE  10.5899  72   13.4299  79   -0.4  65    -6.2  0     0     967.1    NA       0.0000   9999     8660  0     0    
2019/07/27  01:50:00  BASE  10.1724  73   13.3711  76   -0.3  64    -6.2  0     0     967.1    NA       0.0000   9999     8460  0     0    
2019/07/27  01:51:00  BASE  10.4782  75   13.3711  76   -0.3  64    -6.2  0     0     967.1    NA       0.0000   9999     8370  0     0    
2019/07/27  01:52:00  BASE  10.5958  75   13.3711  76   -0.1  64    -6.2  0     0     967.1    NA       0.0000   9999     8430  0     0    
2019/07/27  01:53:00  BASE  9.89604  76   13.3711  76   -0.0  63    -6.3  0     0     967.1    NA       0.0000   9999     8240  0     0    
2019/07/27  01:54:00  BASE  9.2904   75   12.7067  72   0.1   62    -6.3  0     0     967.0    NA       0.0000   9999     8400  0     0    
2019/07/27  01:55:00  BASE  9.0552   72   12.7067  72   0.1   61    -6.4  0     0     967.0    NA       0.0000   9999     8330  0     0    
2019/07/27  01:56:00  BASE  9.42564  75   12.7067  72   0.2   61    -6.5  0     0     967.0    NA       0.0000   9999     8270  0     0    
2019/07/27  01:57:00  BASE  9.07284  86   12.7067  72   0.2   60    -6.6  0     0     967.0    NA       0.0000   9999     8370  0     0    
2019/07/27  01:58:00  BASE  7.89096  93   12.7067  72   0.1   60    -6.7  0     0     966.9    NA       0.0000   9999     7870  0     0    
2019/07/27  01:59:00  BASE  6.57384  91   12.7067  72   0.1   61    -6.7  0     0     966.8    NA       0.0000   9999     7780  0     0    
2019/07/27  02:00:00  BASE  6.50916  90   12.7067  72   -0.0  61    -6.6  0     0     966.8    NA       0.0000   9999     7610  0     0    
2019/07/27  02:01:00  BASE  7.5264   92   12.7067  72   -0.1  62    -6.5  0     0     966.9    NA       0.0000   9999     7680  0     0    
2019/07/27  02:02:00  BASE  7.85568  93   11.4954  74   -0.2  63    -6.4  0     0     966.9    NA       0.0000   9999     7220  0     0    
2019/07/27  02:03:00  BASE  7.97328  94   10.7663  86   -0.2  63    -6.3  0     0     966.8    NA       0.0000   9999     6960  0     0    
2019/07/27  02:04:00  BASE  8.04972  97   10.7663  86   -0.3  64    -6.2  0     0     966.8    NA       0.0000   9999     6820  0     0    
2019/07/27  02:05:00  BASE  7.9086   104  10.7663  86   -0.3  65    -6.2  0     0     966.8    NA       0.0000   9999     4790  0     0    
2019/07/27  02:06:00  BASE  7.77336  104  9.3786   94   -0.4  65    -6.1  0     0     966.9    NA       0.0000   9999     4890  0     0    
2019/07/27  02:07:00  BASE  6.90312  92   9.3786   94   -0.4  66    -5.9  0     0     967.1    NA       0.0000   9999     4530  0     0    
2019/07/27  02:08:00  BASE  6.60912  83   9.3786   94   -0.5  67    -5.8  0     0     967.1    NA       0.0000   9999     8630  0     0    
2019/07/27  02:09:00  BASE  5.83296  93   9.3786   94   -0.5  68    -5.6  0     0     966.9    NA       0.0000   9999     0     0     0    
2019/07/27  02:10:00  BASE  5.04504  98   9.3786   94   -0.5  69    -5.5  0     0     966.7    NA       0.0000   9999     0     0     0    
2019/07/27  02:11:00  BASE  5.46252  79   9.3786   94   -0.3  69    -5.4  0     0     966.7    NA       0.0000   UP       9999  3510  0    
2019/07/27  02:12:00  BASE  6.2622   70   9.3786   94   -0.2  68    -5.4  0     0     966.7    NA       0.0000   UP       9999  4560  0    
2019/07/27  02:13:00  BASE  5.586    94   8.80236  100  -0.1  67    -5.5  0     0     966.8    NA       0.0000   UP       9999  4400  0    
2019/07/27  02:14:00  BASE  4.69812  119  8.80236  100  -0.0  66    -5.6  0     0     966.7    NA       0.0000   UP       9999  4660  0    
2019/07/27  02:15:00  BASE  4.89216  113  8.4672   77   -0.0  66    -5.6  0     0     966.9    NA       0.0000   UP       9999  4430  0    
2019/07/27  02:16:00  BASE  3.68676  103  8.4672   77   -0.2  67    -5.6  0     0     966.7    NA       0.0000   UP       9999  4070  0    
2019/07/27  02:17:00  BASE  4.35708  94   8.4672   77   -0.3  68    -5.5  0     0     966.8    NA       0.0000   UP       9999  4530  0    
2019/07/27  02:18:00  BASE  7.34412  88   9.4668   105  -0.4  70    -5.2  0     0     966.8    NA       0.0000   UP       9999  3870  0    
2019/07/27  02:19:00  BASE  8.53188  97   9.70788  106  -0.5  71    -5.0  0     0     966.8    NA       0.0000   UP       SQ    9999  3870 
2019/07/27  02:20:00  BASE  7.2618   104  9.70788  106  -0.4  72    -4.9  0     0     966.7    NA       0.0000   9999     3310  0     0    
2019/07/27  02:21:00  BASE  6.42096  101  9.70788  106  -0.4  72    -4.8  0     0     966.8    NA       0.0000   9999     6400  0     0    
2019/07/27  02:22:00  BASE  6.19164  102  9.70788  106  -0.3  72    -4.7  0     0     966.7    NA       0.0000   9999     6460  0     0    
2019/07/27  02:23:00  BASE  6.84432  94   9.70788  106  -0.3  73    -4.7  0     0     966.7    NA       0.0000   9999     0     0     0    
2019/07/27  02:24:00  BASE  7.1148   89   9.70788  106  -0.2  73    -4.6  0     0     966.7    NA       0.0000   9999     0     0     0    
2019/07/27  02:25:00  BASE  6.33276  95   9.70788  106  -0.2  72    -4.6  0     0     966.6    NA       0.0000   UP       9999  0     0    
2019/07/27  02:26:00  BASE  5.8212   79   9.70788  106  -0.1  72    -4.6  0     0     966.6    NA       0.0000   UP       9999  0     0    
2019/07/27  02:27:00  BASE  4.9686   67   9.70788  106  0.1   71    -4.7  0     0     966.6    NA       0.0000   UP       9999  0     0    
2019/07/27  02:28:00  BASE  5.72712  81   9.70788  106  0.1   70    -4.7  0     0     966.5    NA       0.0000   UP       9999  4460  0    
2019/07/27  02:29:00  BASE  7.42056  90   9.67848  78   0.1   69    -4.9  0     0     966.5    NA       0.0000   UP       9999  0     0    
2019/07/27  02:30:00  BASE  7.56756  95   9.67848  78   0.1   69    -4.9  0     0     966.4    NA       0.0000   UP       9999  0     0    
2019/07/27  02:31:00  BASE  7.26768  99   9.67848  78   -0.0  70    -4.9  0     0     966.4    NA       0.0000   UP       9999  0     0    
2019/07/27  02:32:00  BASE  6.60912  101  9.67848  78   -0.1  71    -4.8  0     0     966.4    NA       0.0000   UP       9999  0     0    
2019/07/27  02:33:00  BASE  5.40372  99   9.07284  99   -0.2  71    -4.7  0     0     966.4    NA       0.0000   UP       9999  0     0    
2019/07/27  02:34:00  BASE  5.439    89   9.07284  99   -0.2  72    -4.7  0     0     966.4    NA       0.0000   UP       9999  5320  0    
2019/07/27  02:35:00  BASE  6.3798   81   9.07284  99   -0.3  73    -4.6  0     0     966.4    NA       0.0000   UP       9999  5280  0    
2019/07/27  02:36:00  BASE  6.7326   84   9.07284  99   -0.4  74    -4.4  0     0     966.4    NA       0.0000   UP       9999  5380  0    
2019/07/27  02:37:00  BASE  5.90352  91   9.07284  99   -0.4  75    -4.3  0     0     966.3    NA       0.0000   UP       9999  5050  0    
2019/07/27  02:38:00  BASE  4.7922   88   9.07284  99   -0.4  76    -4.2  0     0     966.1    NA       0.0000   UP       9999  5350  0    
2019/07/27  02:39:00  BASE  4.48056  79   8.07912  96   -0.4  76    -4.1  0     0     966.1    NA       0.0000   9999     4890  0     0    
2019/07/27  02:40:00  BASE  4.42764  72   8.07912  96   -0.3  76    -4.0  0     0     965.9    NA       0.0000   9999     5580  0     0    
2019/07/27  02:41:00  BASE  4.79808  81   7.74396  82   -0.2  76    -3.9  0     0     965.9    NA       0.0000   9999     5610  0     0    
2019/07/27  02:42:00  BASE  5.53308  105  7.74396  82   -0.1  75    -4.0  0     0     965.9    NA       0.0000   9999     5580  0     0    
2019/07/27  02:43:00  BASE  6.18576  113  7.74396  82   0.1   74    -4.1  0     0     965.8    NA       0.0000   9999     5740  0     0    
2019/07/27  02:44:00  BASE  6.83256  107  8.07912  103  0.1   72    -4.3  0     0     965.8    NA       0.0000   9999     3900  0     0    
2019/07/27  02:45:00  BASE  7.30884  105  8.07912  103  0.1   71    -4.5  0     0     965.8    NA       0.0000   9999     3840  0     0    
2019/07/27  02:46:00  BASE  7.46172  111  8.3202   119  0.0   71    -4.6  0     0     965.7    NA       0.0000   9999     4230  0     0    
2019/07/27  02:47:00  BASE  8.22024  112  9.89016  109  -0.1  72    -4.5  0     0     965.7    NA       0.0000   9999     5050  0     0    
2019/07/27  02:48:00  BASE  8.78472  108  9.89016  109  -0.2  73    -4.5  0     0     965.6    NA       0.0000   9999     5250  0     0    
2019/07/27  02:49:00  BASE  8.3496   103  9.89016  109  -0.2  74    -4.4  0     0     965.6    NA       0.0000   9999     4360  0     0    
2019/07/27  02:50:00  BASE  9.1434   100  11.4366  101  -0.3  74    -4.3  0     0     965.4    NA       0.0000   9999     4560  0     0    
2019/07/27  02:51:00  BASE  10.9074  99   13.036   101  -0.3  75    -4.2  0     0     965.3    NA       0.0000   9999     4430  0     0    
2019/07/27  02:52:00  BASE  11.0074  99   13.036   101  -0.3  76    -4.1  0     0     965.4    NA       0.0000   9999     5870  0     0    
2019/07/27  02:53:00  BASE  10.243   101  13.036   101  -0.3  76    -4.0  0     0     965.5    NA       0.0000   9999     5910  0     0    
2019/07/27  02:54:00  BASE  9.45504  101  13.036   101  -0.3  76    -4.0  0     0     965.5    NA       0.0000   9999     5970  0     0    
2019/07/27  02:55:00  BASE  9.45504  105  13.036   101  -0.3  77    -3.9  0     0     965.4    NA       0.0000   9999     6040  0     0    
2019/07/27  02:56:00  BASE  9.91956  107  13.036   101  -0.3  77    -3.9  0     0     965.4    NA       0.0000   9999     5970  0     0    
2019/07/27  02:57:00  BASE  9.09048  106  13.036   101  -0.4  77    -3.9  0     0     965.4    NA       0.0000   9999     5910  0     0    
2019/07/27  02:58:00  BASE  9.29628  107  13.036   101  -0.4  78    -3.8  0     0     965.3    NA       0.0000   9999     3670  0     0    
2019/07/27  02:59:00  BASE  9.94308  109  13.036   101  -0.5  78    -3.8  0     0     965.3    NA       0.0000   9999     3480  0     0    
2019/07/27  03:00:00  BASE  9.59616  105  13.036   101  -0.5  79    -3.8  0     0     965.3    NA       0.0000   9999     3870  0     0    
2019/07/27  03:01:00  BASE  10.9309  97   14.4001  87   -0.6  79    -3.7  0     0     965.3    NA       0.0000   9999     5220  0     0    
2019/07/27  03:02:00  BASE  12.2716  93   14.4001  87   -0.6  80    -3.6  0     0     965.2    NA       0.0000   9999     3870  0     0    
2019/07/27  03:03:00  BASE  10.8662  95   14.4001  87   -0.6  80    -3.6  0     0     965.2    NA       0.0000   9999     3870  0     0    
2019/07/27  03:04:00  BASE  9.66672  102  14.4001  87   -0.6  81    -3.5  0     0     965.1    NA       0.0000   9999     4070  0     0    
2019/07/27  03:05:00  BASE  10.2018  108  14.4001  87   -0.6  81    -3.4  0     0     965.0    NA       0.0000   9999     3670  0     0    
2019/07/27  03:06:00  BASE  11.713   108  14.4001  87   -0.7  82    -3.4  0     0     964.9    NA       0.0000   9999     3670  0     0    
2019/07/27  03:07:00  BASE  13.5416  104  15.8819  103  -0.7  82    -3.3  0     0     964.8    NA       0.0000   9999     4400  0     0    
2019/07/27  03:08:00  BASE  13.8298  105  15.8819  103  -0.8  83    -3.3  0     0     964.8    NA       0.0000   9999     4230  0     0    
2019/07/27  03:09:00  BASE  13.2241  110  15.8819  103  -0.8  84    -3.2  0     0     964.7    NA       0.0000   9999     3410  0     0    
2019/07/27  03:10:00  BASE  14.1767  109  17.1226  108  -0.8  84    -3.1  0     0     964.6    NA       0.0000   8000     0     0     0    
2019/07/27  03:11:00  BASE  14.5824  104  17.1226  108  -0.8  85    -3.1  0     0     964.6    NA       0.0000   UP       6000  0     0    
2019/07/27  03:12:00  BASE  13.4182  105  17.1226  108  -0.8  85    -3.0  0     0     964.6    NA       0.0000   UP       8000  0     0    
2019/07/27  03:13:00  BASE  12.0658  107  17.1226  108  -0.8  85    -2.9  0     0     964.7    NA       0.0000   UP       9000  0     0    
2019/07/27  03:14:00  BASE  11.6365  110  17.1226  108  -0.8  86    -2.9  0     0     964.6    NA       0.0000   UP       9999  0     0    
2019/07/27  03:15:00  BASE  12.7596  109  17.1226  108  -0.8  86    -2.8  0     0     964.5    NA       0.0000   UP       9999  0     0    
2019/07/27  03:16:00  BASE  13.5064  108  17.1226  108  -0.8  87    -2.8  0     0     964.6    NA       0.0000   UP       BR    6000  0    
2019/07/27  03:17:00  BASE  13.4064  110  17.1226  108  -0.8  87    -2.7  0     0     964.5    NA       0.0000   UP       BR    6000  0    
2019/07/27  03:18:00  BASE  12.6832  113  17.1226  108  -0.8  87    -2.7  0     0     964.4    NA       0.0000   UP       BR    9999  0    
2019/07/27  03:19:00  BASE  11.7424  111  17.1226  108  -0.8  87    -2.6  0     0     964.5    NA       0.0000   UP       BR    9999  0    
2019/07/27  03:20:00  BASE  12.7067  111  15.6114  107  -0.8  88    -2.6  0     0     964.4    NA       0.0000   UP       BR    9999  5610 
2019/07/27  03:21:00  BASE  13.6769  115  15.6114  107  -0.8  88    -2.5  0     0     964.3    NA       0.0000   UP       BR    9000  6560 
2019/07/27  03:22:00  BASE  13.6004  114  15.6114  107  -0.8  88    -2.5  0     0     964.4    NA       0.0000   UP       BR    8000  0    
2019/07/27  03:23:00  BASE  13.036   113  15.6114  107  -0.8  88    -2.5  0     0     964.5    NA       0.0000   UP       BR    9999  6400 
2019/07/27  03:24:00  BASE  11.3366  113  15.6114  107  -0.8  88    -2.4  0     0     964.5    NA       0.0000   UP       BR    9999  6200 
2019/07/27  03:25:00  BASE  10.6604  114  15.6114  107  -0.8  89    -2.4  0     0     964.5    NA       0.0000   UP       BR    9999  5580 
2019/07/27  03:26:00  BASE  10.537   116  15.5173  113  -0.8  89    -2.4  0     0     964.5    NA       0.0000   UP       9999  5480  0    
2019/07/27  03:27:00  BASE  10.5428  115  15.5173  113  -0.8  89    -2.4  0     0     964.4    NA       0.0000   UP       9999  5680  0    
2019/07/27  03:28:00  BASE  10.8662  111  15.5173  113  -0.7  89    -2.3  0     0     964.4    NA       0.0000   UP       9999  5350  0    
2019/07/27  03:29:00  BASE  10.5428  109  15.5173  113  -0.7  89    -2.3  0     0     964.4    NA       0.0000   UP       9999  5380  0    
2019/07/27  03:30:00  BASE  9.95484  108  15.5173  113  -0.7  89    -2.3  0     0     964.5    NA       0.0000   UP       9999  5050  0    
2019/07/27  03:31:00  BASE  9.91368  107  15.5173  113  -0.7  89    -2.3  0     0     964.4    NA       0.0000   UP       9999  4560  0    
2019/07/27  03:32:00  BASE  10.0313  109  13.277   113  -0.7  89    -2.3  0     0     964.4    NA       0.0000   UP       9999  4720  0    
2019/07/27  03:33:00  BASE  9.82548  112  12.1598  109  -0.7  89    -2.3  0     0     964.3    NA       0.0000   UP       9999  4270  0    
2019/07/27  03:34:00  BASE  9.5256   110  12.1598  109  -0.7  89    -2.3  0     0     964.4    NA       0.0000   9999     3870  0     0    
2019/07/27  03:35:00  BASE  9.39624  112  12.1598  109  -0.7  89    -2.3  0     0     964.3    NA       0.0000   9999     3940  0     0    
2019/07/27  03:36:00  BASE  8.56716  113  12.1598  109  -0.7  90    -2.2  0     0     964.4    NA       0.0000   9999     4100  0     0    
2019/07/27  03:37:00  BASE  7.4088   106  12.101   112  -0.8  90    -2.2  0     0     964.5    NA       0.0000   9999     4100  0     0    
2019/07/27  03:38:00  BASE  6.82668  99   12.101   112  -0.8  90    -2.2  0     0     964.5    NA       0.0000   9999     3970  0     0    
2019/07/27  03:39:00  BASE  6.91488  98   11.5248  112  -0.7  90    -2.2  0     0     964.4    NA       0.0000   9999     0     0     0    
2019/07/27  03:40:00  BASE  7.63812  98   11.5248  112  -0.7  90    -2.1  0     0     964.3    NA       0.0000   9999     0     0     0    
2019/07/27  03:41:00  BASE  7.87332  93   11.5248  112  -0.6  90    -2.1  0     0     964.3    NA       0.0000   9999     0     0     0    
2019/07/27  03:42:00  BASE  8.45544  92   12.101   89   -0.4  89    -2.1  0     0     964.2    NA       0.0000   9999     0     0     0    
2019/07/27  03:43:00  BASE  10.5605  93   13.036   88   -0.3  87    -2.1  0     0     964.1    NA       0.0000   9999     0     0     0    
2019/07/27  03:44:00  BASE  11.8423  86   13.9768  82   -0.1  86    -2.2  0     0     964.1    NA       0.0000   9999     0     0     0    
2019/07/27  03:45:00  BASE  11.9893  77   13.9768  82   0.0   84    -2.4  0     0     964.1    NA       0.0000   UP       9999  0     0    
2019/07/27  03:46:00  BASE  12.4891  77   14.4883  84   0.1   83    -2.5  0     0     964.1    NA       0.0000   UP       9999  0     0    
2019/07/27  03:47:00  BASE  13.2888  80   16.5463  83   0.2   82    -2.5  0     0     964.0    NA       0.0000   UP       9999  0     0    
2019/07/27  03:48:00  BASE  14.5354  83   16.7874  87   0.2   83    -2.4  0     0     963.9    NA       0.0000   UP       8000  0     0    
2019/07/27  03:49:00  BASE  13.3476  81   16.7874  87   0.2   83    -2.4  0     0     964.0    NA       0.0000   UP       7000  0     0    
2019/07/27  03:50:00  BASE  11.7482  74   16.7874  87   0.1   84    -2.3  0     0     964.0    NA       0.0000   UP       8000  0     0    
2019/07/27  03:51:00  BASE  13.6945  69   17.6635  60   0.1   85    -2.2  0     0     963.7    NA       0.0000   UP       8000  0     0    
2019/07/27  03:52:00  BASE  15.9936  68   17.6635  60   0.1   85    -2.1  0     0     963.6    NA       0.0000   UP       BR    6000  0    
2019/07/27  03:53:00  BASE  16.2758  66   17.6635  65   0.0   86    -2.0  0     0     963.6    NA       0.0000   UP       BR    4000  0    
2019/07/27  03:54:00  BASE  16.4052  64   19.7803  66   0.0   86    -2.0  0     0     963.5    NA       0.0000   UP       BR    3900  0    
2019/07/27  03:55:00  BASE  17.3225  62   19.7803  66   0.0   87    -1.9  0     0     963.4    NA       0.0000   UP       BR    2400  0    
2019/07/27  03:56:00  BASE  18.3574  60   20.1743  57   0.0   88    -1.8  0     0     963.2    NA       0.0000   UP       BR    1500  360  
2019/07/27  03:57:00  BASE  18.9042  60   20.2978  63   -0.0  88    -1.7  0     0     963.1    NA       0.0000   UP       BR    1200  0    
2019/07/27  03:58:00  BASE  19.1041  60   21.656   59   -0.0  89    -1.7  0     0     963.0    NA       0.0000   UP       BR    1200  0    
2019/07/27  03:59:00  BASE  19.0571  59   21.9324  61   -0.0  89    -1.6  0     0     963.0    NA       0.0000   UP       BR    0800  0    
2019/07/27  04:00:00  BASE  19.0747  59   21.9324  61   -0.1  90    -1.5  0     0     962.9    NA       0.0000   UP       BR    0800  0    
2019/07/27  04:01:00  BASE  19.8979  60   22.685   62   -0.1  91    -1.5  0     0     962.8    NA       0.0000   UP       BR    1100  0    
2019/07/27  04:03:04  BASE  20.3448  61   22.685   62   -0.1  91    -1.4  0     0     962.8    NA       0.0000   UP       BR    1400  0    
2019/07/27  04:04:04  BASE  20.139   61   22.685   62   -0.1  92    -1.3  0     0     962.9    NA       0.0000   UP       BR    1400  0    
2019/07/27  04:05:04  BASE  20.092   60   22.685   62   -0.1  92    -1.3  0     0     962.9    NA       0.0000   UP       BR    1900  0    
2019/07/27  04:06:05  BASE  19.5804  60   22.685   62   -0.1  92    -1.3  0     0     962.9    NA       0.0000   UP       BR    2300  0    
2019/07/27  04:07:04  BASE  18.5749  58   22.685   62   -0.1  92    -1.2  0     0     963.0    NA       0.0000   -SN      BR    2500  0    
2019/07/27  04:08:04  BASE  17.7106  56   22.685   62   -0.1  92    -1.2  0     0     963.1    NA       0.0000   -SN      BR    3000  0    
2019/07/27  04:09:04  BASE  18.0398  54   22.685   62   -0.0  92    -1.2  0     0     963.0    NA       0.0000   -SN      BR    3200  360  
2019/07/27  04:10:04  BASE  19.1629  52   22.685   62   -0.0  92    -1.2  0     0     962.9    NA       0.0000   -SN      BR    2000  0    
2019/07/27  04:11:04  BASE  19.7627  52   22.685   62   0.0   92    -1.1  0     0     962.9    NA       0.0000   -SN      BR    1800  0    
2019/07/27  04:12:04  BASE  18.7572  50   21.9912  45   0.0   92    -1.1  0     0     963.0    NA       0.0000   -SN      BR    2400  300  
2019/07/27  04:13:04  BASE  18.1457  51   21.9912  45   0.1   92    -1.1  0     0     962.9    NA       0.0000   -SN      BR    2800  300  
2019/07/27  04:14:05  BASE  18.7043  54   21.9912  45   0.1   92    -1.1  0     0     962.9    NA       0.0000   -SN      BR    1800  0    
2019/07/27  04:15:05  BASE  18.3632  53   21.9912  45   0.1   92    -1.1  0     0     962.9    NA       0.0000   -SN      BR    1500  0    
2019/07/27  04:16:01  BASE  18.4808  53   21.9912  45   0.1   92    -1.1  0     0     962.9    NA       0.0000   -SN      BR    1800  0    
2019/07/27  04:17:04  BASE  18.9806  52   21.9912  45   0.0   92    -1.1  0     0     962.9    NA       0.0000   -SN      BR    1300  0    
2019/07/27  04:18:04  BASE  18.6572  52   21.9912  45   0.0   92    -1.1  0     0     963.0    NA       0.0000   -SN      BR    1300  0    
2019/07/27  04:19:04  BASE  19.5392  50   23.6258  47   -0.0  92    -1.1  0     0     962.8    NA       0.0000   -SN      BR    1100  0    
2019/07/27  04:20:04  BASE  19.5686  46   23.6258  47   0.0   93    -1.0  0     0     963.0    NA       0.0000   -SN      BR    1400  0    
2019/07/27  04:21:04  BASE  18.1516  47   23.6258  47   0.0   93    -1.0  0     0     963.1    NA       0.0000   -SN      BR    1600  0    
2019/07/27  04:22:04  BASE  18.1633  51   23.6258  47   0.0   93    -1.0  0     0     963.1    NA       0.0000   -SN      BR    1300  0    
2019/07/27  04:23:04  BASE  17.74    52   23.6258  47   0.0   93    -1.0  0     0     963.2    NA       0.0000   -SN      BR    1300  0    
2019/07/27  04:24:04  BASE  16.7874  50   23.6258  47   0.0   93    -1.0  0     0     963.3    NA       0.0000   -SN      BR    1500  0    
2019/07/27  04:25:04  BASE  16.5875  48   23.6258  47   0.0   93    -0.9  0     0     963.4    NA       0.0000   -SN      BR    2500  0    
2019/07/27  04:26:04  BASE  16.7404  46   23.6258  47   0.0   93    -0.9  0     0     963.4    NA       0.0000   -SN      BR    2000  0    
2019/07/27  04:27:04  BASE  16.1288  45   23.6258  47   0.0   94    -0.9  0     0     963.5    NA       0.0000   -SN      BR    2200  0    
2019/07/27  04:28:04  BASE  15.5467  47   23.6258  47   0.0   94    -0.9  0     0     963.5    NA       0.0000   -SN      BR    2800  0    
2019/07/27  04:29:04  BASE  16.1935  47   21.0857  52   0.0   94    -0.9  0     0     963.5    NA       0.0000   -SN      BR    2100  0    
2019/07/27  04:30:04  BASE  16.5698  45   21.0857  52   0.0   94    -0.9  0     0     963.6    NA       0.0000   -SN      BR    2700  260  
2019/07/27  04:31:04  BASE  16.5404  42   20.2684  47   0.0   94    -0.9  0     0     963.6    NA       0.0000   -SN      BR    3900  0    
2019/07/27  04:32:05  BASE  15.4409  40   19.3276  53   0.0   94    -0.9  0     0     963.8    NA       0.0000   -SN      BR    3000  0    
2019/07/27  04:33:04  BASE  14.1355  40   18.9336  43   0.0   94    -0.9  0     0     963.9    NA       0.0000   -SN      BR    2800  0    
2019/07/27  04:34:04  BASE  13.671   42   18.9336  43   -0.0  94    -0.9  0     0     964.0    NA       0.0000   -SN      BR    1500  0    
2019/07/27  04:35:04  BASE  13.9356  42   18.9336  43   -0.0  94    -0.9  0     0     964.0    NA       0.0000   -SN      BR    1200  0    
2019/07/27  04:36:04  BASE  14.065   41   18.2986  42   -0.1  94    -0.9  0     0     964.0    NA       0.0000   -SN      BR    1100  0    
2019/07/27  04:37:05  BASE  14.1943  40   18.2986  42   -0.1  94    -0.9  0     0     963.9    NA       0.0000   -SN      BR    1400  0    
2019/07/27  04:38:05  BASE  14.8823  39   18.2986  42   -0.1  95    -0.9  0     0     963.9    NA       0.0000   -SN      BR    1600  0    
2019/07/27  04:39:07  BASE  15.0469  40   18.2986  42   -0.2  95    -0.9  0     0     963.9    NA       0.0000   -SN      BR    1400  0    
2019/07/27  04:40:04  BASE  15.2762  41   18.2986  42   -0.2  95    -0.8  0     0     963.9    NA       0.0000   -SN      BR    1300  0    
2019/07/27  04:41:04  BASE  15.582   43   18.181   37   -0.2  96    -0.8  0     0     963.9    NA       0.0000   -SN      BR    1100  0    
2019/07/27  04:42:04  BASE  16.0642  44   18.6631  31   -0.2  96    -0.8  0     0     963.8    NA       0.0000   -SN      BR    1000  0    
2019/07/27  04:43:04  BASE  16.7404  44   19.5392  44   -0.2  96    -0.7  0     0     963.8    NA       0.0000   -SN      BR    1300  0    
2019/07/27  04:44:05  BASE  16.2523  42   19.5392  44   -0.3  97    -0.7  0     0     963.8    NA       0.0000   -SN      BR    1400  0    
2019/07/27  04:45:05  BASE  16.0406  43   19.5392  44   -0.3  97    -0.7  0     0     963.8    NA       0.0000   -SN      BR    1300  0    
2019/07/27  04:46:05  BASE  15.5232  44   19.5392  44   -0.3  97    -0.7  0     0     963.9    NA       0.0000   -SN      BR    1300  0    
2019/07/27  04:47:04  BASE  15.1763  41   19.5392  44   -0.3  97    -0.7  0     0     963.9    NA       0.0000   -SN      BR    1300  0    
2019/07/27  04:48:04  BASE  15.0646  42   19.5392  44   -0.4  98    -0.7  0     0     964.0    NA       0.0000   -SN      BR    1100  0    
2019/07/27  04:49:04  BASE  14.9058  42   19.5392  44   -0.4  98    -0.7  0     0     964.0    NA       0.0000   -SN      BR    1100  0    
2019/07/27  04:50:04  BASE  15.5526  42   19.5392  44   -0.4  98    -0.7  0     0     964.0    NA       0.0000   -SN      BR    1000  0    
2019/07/27  04:51:04  BASE  16.1347  43   19.5392  44   -0.4  98    -0.7  0     0     963.9    NA       0.0000   -SN      BR    1100  0    
2019/07/27  04:52:04  BASE  16.1876  41   19.5392  44   -0.5  99    -0.7  0     0     964.0    NA       0.0000   -SN      BR    1100  0    
2019/07/27  04:53:04  BASE  15.6761  42   18.9336  44   -0.5  99    -0.6  0     0     964.1    NA       0.2540   -SN      BR    1100  0    
2019/07/27  04:54:04  BASE  15.9583  41   18.9336  44   -0.5  99    -0.6  0     0     964.0    NA       0.0000   -SN      BR    0900  0    
2019/07/27  04:55:04  BASE  15.8525  39   18.7219  40   -0.5  99    -0.6  0     0     964.2    NA       0.0000   -SN      BR    0800  0    
2019/07/27  04:56:04  BASE  14.5295  37   18.7219  40   -0.5  99    -0.6  0     0     964.3    NA       0.0000   +SN      BR    0800  0    
2019/07/27  04:57:05  BASE  13.2888  35   18.5455  34   -0.5  100   -0.6  0     0     964.4    NA       0.0000   +SN      BR    0900  0    
2019/07/27  04:58:05  BASE  13.3241  36   18.5455  34   -0.6  100   -0.6  0     0     964.4    NA       0.0000   +SN      BR    0900  0    
2019/07/27  04:59:04  BASE  13.7298  38   18.5455  34   -0.6  100   -0.6  0     0     964.4    NA       0.0000   +SN      BR    0900  0    
2019/07/27  05:00:04  BASE  13.3241  35   18.5455  34   -0.6  100   -0.6  0     0     964.5    NA       0.0000   +SN      BR    1000  0    
2019/07/27  05:01:04  BASE  14.1649  33   18.9689  24   -0.7  100   -0.7  0     0     964.3    NA       0.0000   +SN      BR    1200  0    
2019/07/27  05:02:04  BASE  14.0591  32   18.9689  24   -0.7  100   -0.7  0     0     964.5    NA       0.0000   +SN      BR    1200  0    
2019/07/27  05:03:04  BASE  12.5832  30   18.9689  24   -0.7  100   -0.7  0     0     964.5    NA       0.0000   +SN      BR    1200  0    
2019/07/27  05:04:05  BASE  12.9242  26   18.9689  24   -0.7  100   -0.7  0     0     964.5    NA       0.0000   +SN      BR    1700  0    
2019/07/27  05:05:04  BASE  13.9062  24   18.9689  24   -0.7  100   -0.7  0     0     964.5    NA       0.0000   -SN      BR    2000  0    
2019/07/27  05:06:04  BASE  14.7706  26   18.9689  24   -0.7  100   -0.7  0     0     964.5    NA       0.2540   -SN      BR    2100  0    
2019/07/27  05:07:04  BASE  15.6643  26   18.9689  24   -0.7  100   -0.7  0     0     964.4    NA       0.0000   -SN      BR    2200  0    
2019/07/27  05:08:04  BASE  16.7639  23   19.7215  23   -0.7  100   -0.7  0     0     964.3    NA       0.0000   -SN      BR    1600  0    
2019/07/27  05:09:04  BASE  17.7929  22   19.7215  23   -0.7  100   -0.7  0     0     964.3    NA       0.0000   -SN      BR    1500  0    
2019/07/27  05:10:04  BASE  18.0928  21   19.7215  23   -0.7  100   -0.7  0     0     964.3    NA       0.0000   -SN      BR    3100  0    
2019/07/27  05:11:04  BASE  17.6635  20   19.7215  23   -0.7  100   -0.7  0     0     964.4    NA       0.0000   -SN      BR    9000  0    
2019/07/27  05:12:04  BASE  17.7458  19   19.7215  23   -0.7  100   -0.7  0     0     964.3    NA       0.0000   -SN      BR    9999  0    
2019/07/27  05:13:04  BASE  17.4401  17   19.7215  23   -0.7  100   -0.7  0     0     964.4    NA       0.0000   -SN      BR    9000  0    
2019/07/27  05:14:05  BASE  16.905   17   19.7215  23   -0.7  100   -0.7  0     0     964.4    NA       0.0000   -SN      BR    7000  0    
2019/07/27  05:15:05  BASE  17.9693  19   20.48    20   -0.7  100   -0.7  0     0     964.4    NA       0.0000   -SN      BR    2200  0    
2019/07/27  05:16:01  BASE  19.0806  20   21.1739  12   -0.7  100   -0.7  0     0     964.3    NA       0.0000   -SN      BR    3900  0    
2019/07/27  05:17:05  BASE  19.6862  19   22.4734  15   -0.7  100   -0.7  0     0     964.3    NA       0.2540   -SN      BR    9999  0    
2019/07/27  05:18:04  BASE  19.6274  17   22.4734  15   -0.7  100   -0.7  0     0     964.4    NA       0.0000   -SN      BR    9999  0    
2019/07/27  05:19:05  BASE  20.4448  12   23.1731  8    -0.7  100   -0.7  0     0     964.2    NA       0.0000   -SN      BR    9000  0    
2019/07/27  05:20:04  BASE  21.4267  6    23.1731  8    -0.7  100   -0.7  0     0     964.3    NA       0.0000   -SN      BR    9000  0    
2019/07/27  05:21:04  BASE  19.8215  2    23.1731  8    -0.7  100   -0.7  0     0     964.7    NA       0.0000   -SN      BR    8000  0    
2019/07/27  05:22:04  BASE  16.5757  360  23.1731  8    -0.7  100   -0.7  0     0     965.0    NA       0.0000   -SN      BR    9000  0    
2019/07/27  05:23:04  BASE  14.1708  356  23.1731  8    -0.8  100   -0.8  0     0     965.1    NA       0.0000   -SN      BR    9999  0    
2019/07/27  05:24:04  BASE  13.3652  354  23.1731  8    -0.8  100   -0.8  0     0     965.1    NA       0.0000   -SN      BR    9999  0    
2019/07/27  05:25:04  BASE  13.8062  352  23.1731  8    -0.9  100   -0.9  0     0     965.1    NA       0.0000   -SN      BR    9999  0    
2019/07/27  05:26:04  BASE  14.0944  349  23.1731  8    -1.0  100   -1.0  0     0     965.1    NA       0.0000   -SN      9999  0     0    
2019/07/27  05:27:04  BASE  13.7122  347  23.1731  8    -1.1  100   -1.1  0     0     965.2    NA       0.0000   -SN      9999  0     0    
2019/07/27  05:28:04  BASE  13.6886  345  23.1731  8    -1.2  100   -1.2  0     0     965.3    NA       0.0000   -SN      9999  0     0    
2019/07/27  05:29:04  BASE  13.5769  342  22.7497  5    -1.3  100   -1.3  0     0     965.3    NA       0.0000   -SN      9999  0     0    
2019/07/27  05:30:04  BASE  13.1653  341  19.451   2    -1.3  100   -1.3  0     0     965.4    NA       0.0000   -SN      9999  0     0    
2019/07/27  05:31:04  BASE  12.4715  340  16.7286  2    -1.4  100   -1.4  0     0     965.6    NA       0.0000   -SN      9999  0     0    
2019/07/27  05:32:05  BASE  11.7012  337  16.0348  346  -1.4  100   -1.4  0     0     965.6    NA       0.0000   9999     0     0     0    
2019/07/27  05:33:04  BASE  10.8898  336  16.0348  346  -1.4  100   -1.4  0     0     965.7    NA       0.0000   9999     0     0     0    
2019/07/27  05:34:05  BASE  10.39    337  16.0348  346  -1.4  100   -1.4  0     0     965.7    NA       0.0000   9999     0     0     0    
2019/07/27  05:35:04  BASE  10.8251  339  15.3056  348  -1.5  100   -1.5  0     0     965.7    NA       0.0000   9999     0     0     0    
2019/07/27  05:36:04  BASE  10.5428  340  15.3056  348  -1.5  100   -1.5  0     0     965.8    NA       0.0000   9999     0     0     0    
2019/07/27  05:37:04  BASE  10.2194  343  15.094   339  -1.5  100   -1.5  0     0     965.7    NA       0.0000   9999     0     0     0    
2019/07/27  05:38:04  BASE  10.4488  344  15.094   339  -1.6  100   -1.6  0     0     965.8    NA       0.0000   9999     0     0     0    
2019/07/27  05:39:04  BASE  10.2312  344  14.0356  348  -1.6  100   -1.6  0     0     965.8    NA       0.0000   9999     0     0     0    
2019/07/27  05:40:03  BASE  9.63732  344  12.7361  338  -1.7  100   -1.7  0     0     965.9    NA       0.0000   9999     0     0     0    
2019/07/27  05:41:04  BASE  9.18456  345  12.0716  339  -1.7  100   -1.7  0     0     965.9    NA       0.0000   9999     0     0     0    
2019/07/27  05:42:04  BASE  8.66124  346  11.7953  337  -1.7  100   -1.7  0     0     966.0    NA       0.0000   9999     0     0     0    
2019/07/27  05:43:04  BASE  8.30256  344  11.7953  337  -1.7  100   -1.7  0     0     966.0    NA       0.0000   9999     0     0     0    
2019/07/27  05:44:04  BASE  8.49072  346  11.7953  337  -1.7  100   -1.7  0     0     966.1    NA       0.0000   9999     0     0     0    
2019/07/27  05:45:04  BASE  8.49072  349  11.2837  347  -1.7  100   -1.7  0     0     966.1    NA       0.0000   9999     0     0     0    
2019/07/27  05:46:04  BASE  9.03756  350  11.2837  347  -1.7  100   -1.7  0     0     966.0    NA       0.0000   9999     0     0     0    
2019/07/27  05:47:04  BASE  9.41976  349  10.8898  346  -1.7  100   -1.7  0     0     966.1    NA       0.0000   9999     0     0     0    
2019/07/27  05:48:04  BASE  9.04344  348  10.4958  344  -1.7  100   -1.7  0     0     966.0    NA       0.0000   9999     0     0     0    
2019/07/27  05:49:04  BASE  9.03168  348  10.437   349  -1.7  100   -1.7  0     0     966.1    NA       0.0000   9999     0     0     0    
2019/07/27  05:50:03  BASE  8.86704  350  10.437   349  -1.7  100   -1.7  0     0     966.1    NA       0.0000   9999     0     0     0    
2019/07/27  05:51:04  BASE  8.59068  350  10.437   349  -1.7  100   -1.7  0     0     966.1    NA       0.0000   9999     0     0     0    
2019/07/27  05:52:05  BASE  8.40252  347  10.437   349  -1.7  100   -1.7  0     0     966.2    NA       0.0000   9999     0     0     0    
2019/07/27  05:53:04  BASE  8.30844  351  10.437   349  -1.7  100   -1.7  0     0     966.1    NA       0.0000   9999     230   0     0    
2019/07/27  05:54:04  BASE  7.93212  354  10.437   349  -1.7  100   -1.7  0     0     966.2    NA       0.0000   9999     0     0     0    
2019/07/27  05:55:04  BASE  7.4382   356  10.437   349  -1.7  100   -1.7  0     0     966.2    NA       0.0000   9999     0     0     0    
2019/07/27  05:56:04  BASE  7.5264   353  9.83136  353  -1.7  100   -1.7  0     0     966.2    NA       0.0000   9999     0     0     0    
2019/07/27  05:57:04  BASE  7.7028   343  9.83136  353  -1.7  100   -1.7  0     0     966.3    NA       0.0000   9999     0     0     0    
2019/07/27  05:58:04  BASE  7.72044  348  9.80196  348  -1.7  100   -1.7  0     0     966.3    NA       0.0000   9999     0     0     0    
2019/07/27  05:59:04  BASE  7.66752  357  9.4668   346  -1.7  100   -1.7  0     0     966.4    NA       0.0000   9999     0     0     0    
2019/07/27  06:00:04  BASE  7.54992  357  9.25512  352  -1.7  100   -1.7  0     0     966.4    NA       0.0000   9999     0     0     0    
2019/07/27  06:01:04  BASE  7.32648  354  9.25512  352  -1.7  100   -1.7  0     0     966.4    NA       0.0000   9999     0     0     0    
2019/07/27  06:02:04  BASE  7.2618   355  9.25512  352  -1.6  100   -1.6  0     0     966.4    NA       0.0000   9999     0     0     0    
2019/07/27  06:03:04  BASE  7.36176  357  8.92584  355  -1.6  100   -1.6  0     0     966.5    NA       0.0000   9999     0     0     0    
2019/07/27  06:04:04  BASE  7.2618   354  8.92584  355  -1.6  100   -1.6  0     0     966.5    NA       0.0000   9999     0     0     0    
2019/07/27  06:05:03  BASE  6.81492  358  8.92584  355  -1.6  100   -1.6  0     0     966.5    NA       0.0000   9999     0     0     0    
2019/07/27  06:06:05  BASE  6.909    0    8.92584  355  -1.6  100   -1.6  0     0     966.5    NA       0.0000   9999     360   0     0    
2019/07/27  06:07:05  BASE  7.5852   356  8.89056  360  -1.6  100   -1.6  0     0     966.4    NA       0.0000   9999     330   0     0    
2019/07/27  06:08:04  BASE  7.7322   353  8.89056  360  -1.5  100   -1.5  0     0     966.5    NA       0.0000   9999     260   2460  0    
2019/07/27  06:09:04  BASE  7.69104  353  9.04344  3    -1.5  100   -1.5  0     0     966.5    NA       0.0000   9999     260   0     0    
2019/07/27  06:10:03  BASE  7.93212  352  9.25512  350  -1.5  100   -1.5  0     0     966.5    NA       0.0000   9999     330   0     0    
2019/07/27  06:11:04  BASE  8.085    351  9.25512  350  -1.5  100   -1.5  0     0     966.5    NA       0.0000   UP       9999  260   0    
2019/07/27  06:12:04  BASE  8.0556   354  9.95484  353  -1.5  100   -1.5  0     0     966.5    NA       0.0000   UP       9999  330   0    
2019/07/27  06:13:04  BASE  9.09048  352  12.2833  346  -1.5  100   -1.5  0     0     966.4    NA       0.2540   UP       9999  1800  0    
2019/07/27  06:14:04  BASE  10.0724  351  12.2833  346  -1.5  100   -1.5  0     0     966.4    NA       0.0000   UP       9999  1840  0    
2019/07/27  06:15:04  BASE  9.9078   353  12.2833  346  -1.4  100   -1.4  0     0     966.4    NA       0.0000   UP       9999  2850  0    
2019/07/27  06:16:01  BASE  9.95484  351  12.2833  346  -1.4  100   -1.4  0     0     966.4    NA       0.0000   UP       9999  1570  3120 
2019/07/27  06:17:04  BASE  9.90192  349  12.3421  349  -1.3  100   -1.3  0     0     966.4    NA       0.0000   UP       9999  1480  0    
2019/07/27  06:18:04  BASE  10.3782  351  12.3421  349  -1.3  100   -1.3  0     0     966.4    NA       0.0000   UP       9999  1670  0    
2019/07/27  06:19:04  BASE  10.6193  354  12.3421  349  -1.2  100   -1.2  0     0     966.4    NA       0.0000   UP       9999  1610  0    
2019/07/27  06:20:03  BASE  10.2606  354  12.3421  349  -1.2  100   -1.2  0     0     966.4    NA       0.0000   UP       9999  1970  0    
2019/07/27  06:21:04  BASE  10.878   352  12.5832  350  -1.1  100   -1.1  0     0     966.3    NA       0.0000   UP       9999  1840  0    
2019/07/27  06:22:04  BASE  10.631   350  12.5832  350  -1.1  100   -1.1  0     0     966.4    NA       0.0000   9999     1800  2560  0    
2019/07/27  06:23:04  BASE  9.71964  351  12.5832  350  -1.1  100   -1.1  0     0     966.4    NA       0.0000   9999     1870  0     0    
2019/07/27  06:24:04  BASE  10.1077  352  12.5832  350  -1.1  100   -1.1  0     0     966.4    NA       0.0000   9999     0     0     0    
2019/07/27  06:25:04  BASE  11.1896  350  13.1006  1    -1.1  100   -1.1  0     0     966.3    NA       0.0000   9999     3310  0     0    
2019/07/27  06:26:04  BASE  12.0952  352  13.5828  346  -1.1  100   -1.1  0     0     966.3    NA       0.0000   9999     3280  0     0    
2019/07/27  06:27:04  BASE  11.8776  352  13.5828  346  -1.1  100   -1.1  0     0     966.4    NA       0.0000   9999     0     0     0    
2019/07/27  06:28:03  BASE  11.6542  352  13.5828  346  -1.1  100   -1.1  0     0     966.3    NA       0.0000   9999     0     0     0    
2019/07/27  06:29:04  BASE  11.6894  353  13.5828  346  -1.1  100   -1.1  0     0     966.4    NA       0.0000   9999     3450  0     0    
2019/07/27  06:30:04  BASE  11.1426  356  13.5828  346  -1.1  100   -1.1  0     0     966.4    NA       0.0000   9999     3480  0     0    
2019/07/27  06:31:04  BASE  11.0838  0    13.5828  346  -1.1  100   -1.1  0     0     966.4    NA       0.0000   9999     3480  3900  0    
2019/07/27  06:32:04  BASE  10.9838  355  13.5828  346  -1.1  100   -1.1  0     0     966.4    NA       0.0000   9999     11320 0     0    
2019/07/27  06:33:04  BASE  10.4664  354  13.5828  346  -1.1  100   -1.1  0     0     966.4    NA       0.0000   9999     11220 0     0    
2019/07/27  06:34:04  BASE  10.4664  356  13.5828  346  -1.1  100   -1.1  0     0     966.4    NA       0.0000   9999     0     0     0    
2019/07/27  06:35:04  BASE  10.978   357  13.5828  346  -1.1  100   -1.1  0     0     966.4    NA       0.0000   9999     1800  0     0    
2019/07/27  06:36:04  BASE  11.3896  355  13.1888  360  -1.1  100   -1.1  0     0     966.4    NA       0.0000   9999     11680 0     0    
2019/07/27  06:37:04  BASE  11.2543  357  13.1888  360  -1.1  100   -1.1  0     0     966.4    NA       0.0000   9999     3580  0     0    
2019/07/27  06:38:04  BASE  10.584   360  13.1006  352  -1.1  100   -1.1  0     0     966.5    NA       0.0000   9999     11650 0     0    
2019/07/27  06:39:04  BASE  10.731   352  13.7651  346  -1.1  100   -1.1  0     0     966.4    NA       0.0000   9999     0     0     0    
2019/07/27  06:40:04  BASE  11.2661  350  13.7651  346  -1.1  100   -1.1  0     0     966.4    NA       0.0000   9999     0     0     0    
2019/07/27  06:41:04  BASE  11.6659  353  13.7651  346  -1.1  100   -1.1  0     0     966.4    NA       0.0000   9999     0     0     0    
2019/07/27  06:42:04  BASE  11.9776  356  13.8533  340  -1.1  100   -1.1  0     0     966.5    NA       0.0000   9999     12700 0     0    
2019/07/27  06:43:01  BASE  11.7718  354  13.8533  340  -1.1  100   -1.1  0     0     966.5    NA       0.0000   9999     0     0     0    
2019/07/27  06:44:04  BASE  10.978   351  13.8533  340  -1.1  100   -1.1  0     0     966.6    NA       0.0000   9999     11940 0     0    
2019/07/27  06:45:04  BASE  10.3488  350  13.8533  340  -1.1  100   -1.1  0     0     966.6    NA       0.0000   9999     11910 0     0    
2019/07/27  06:46:04  BASE  10.631   353  13.8533  340  -1.1  100   -1.1  0     0     966.6    NA       0.0000   9999     11910 0     0    
2019/07/27  06:47:04  BASE  11.0662  360  13.8533  340  -1.1  100   -1.1  0     0     966.6    NA       0.0000   9999     11940 0     0    
2019/07/27  06:48:04  BASE  12.1951  0    15.6702  360  -1.1  100   -1.1  0     0     966.6    NA       0.0000   9999     11910 0     0    
2019/07/27  06:49:04  BASE  12.395   358  15.6702  360  -1.1  100   -1.1  0     0     966.6    NA       0.0000   9999     2200  12010 0    
2019/07/27  06:50:01  BASE  11.2837  357  15.6702  360  -1.1  100   -1.1  0     0     966.7    NA       0.0000   9999     12140 0     0    
2019/07/27  06:51:04  BASE  11.5718  359  15.6702  360  -1.1  100   -1.1  0     0     966.7    NA       0.0000   9999     12240 0     0    
2019/07/27  06:52:04  BASE  11.7776  355  15.6702  360  -1.1  100   -1.1  0     0     966.7    NA       0.0000   9999     12370 0     0    
2019/07/27  06:53:04  BASE  11.0779  358  15.6702  360  -1.1  100   -1.1  0     0     966.7    NA       0.0000   9999     0     0     0    
2019/07/27  06:54:05  BASE  11.0544  4    15.6702  360  -1.1  100   -1.1  0     0     966.8    NA       0.0000   9999     1970  0     0    
2019/07/27  06:55:01  BASE  10.8427  357  15.6702  360  -1.1  100   -1.1  0     0     966.8    NA       0.0000   9999     2330  0     0    
2019/07/27  06:56:04  BASE  11.1485  353  15.6702  360  -1.1  100   -1.1  0     0     966.7    NA       0.0000   9999     2000  0     0    
2019/07/27  06:57:04  BASE  11.6836  354  15.6702  360  -1.2  100   -1.2  0     0     966.8    NA       0.0000   9999     2230  0     0    
2019/07/27  06:58:01  BASE  11.513   356  14.7588  353  -1.2  100   -1.2  0     0     966.8    NA       0.0000   9999     1840  2330  0    
2019/07/27  06:59:04  BASE  11.6542  354  14.7588  353  -1.2  100   -1.2  0     0     966.8    NA       0.0000   9999     2690  0     0    
2019/07/27  07:00:04  BASE  10.8486  352  14.7588  353  -1.2  100   -1.2  0     0     966.9    NA       0.0000   9999     2430  0     0    
2019/07/27  07:01:04  BASE  10.1724  354  14.7588  353  -1.1  100   -1.2  0     0     966.9    NA       0.0000   9999     2400  4200  0    
2019/07/27  07:02:04  BASE  10.2959  352  14.7588  353  -1.1  99    -1.2  0     0     967.0    NA       0.0000   9999     2330  4130  0    
2019/07/27  07:03:05  BASE  10.8604  349  14.7588  353  -1.1  99    -1.2  0     0     966.9    NA       0.0000   9999     2000  2690  0    
2019/07/27  07:04:05  BASE  11.3366  352  14.7588  353  -1.1  99    -1.2  0     0     966.9    NA       0.0000   9999     1970  2820  0    
2019/07/27  07:05:04  BASE  11.172   356  14.7588  353  -1.1  99    -1.3  0     0     966.9    NA       0.0000   9999     2760  0     0    
2019/07/27  07:06:04  BASE  11.1132  354  14.7588  353  -1.1  99    -1.3  0     0     967.0    NA       0.0000   9999     2400  3510  0    
2019/07/27  07:07:05  BASE  11.0897  354  13.1006  339  -1.1  98    -1.3  0     0     967.0    NA       0.0000   9999     3250  0     0    
2019/07/27  07:08:04  BASE  11.466   353  13.1006  339  -1.1  98    -1.3  0     0     967.0    NA       0.0000   9999     2560  3640  0    
2019/07/27  07:09:04  BASE  11.5777  351  13.1006  339  -1.1  98    -1.4  0     0     967.1    NA       0.0000   9999     2430  0     0    
2019/07/27  07:10:04  BASE  11.7718  349  13.8827  345  -1.1  98    -1.4  0     0     967.0    NA       0.0000   9999     2130  0     0    
2019/07/27  07:11:04  BASE  11.9599  346  13.8827  345  -1.1  97    -1.5  0     0     967.0    NA       0.0000   9999     2330  0     0    
2019/07/27  07:12:04  BASE  11.9364  345  13.9121  353  -1.1  97    -1.5  0     0     967.0    NA       0.0000   9999     2260  0     0    
2019/07/27  07:13:01  BASE  12.2304  347  13.9121  353  -1.1  97    -1.6  0     0     967.1    NA       0.0000   9999     2300  3180  0    
2019/07/27  07:14:05  BASE  12.1069  354  13.9121  353  -1.1  96    -1.6  0     0     967.1    NA       0.0000   9999     3020  3640  0    
2019/07/27  07:15:06  BASE  11.6777  354  13.9121  353  -1.1  96    -1.6  0     0     967.1    NA       0.0000   9999     2230  2950  0    
2019/07/27  07:16:01  BASE  11.2661  350  13.9121  353  -1.0  96    -1.7  0     0     967.2    NA       0.0000   9999     2130  2990  0    
2019/07/27  07:17:04  BASE  11.025   350  13.9121  353  -1.0  95    -1.7  0     0     967.2    NA       0.0000   9999     2400  3410  0    
2019/07/27  07:18:05  BASE  10.6898  350  13.9121  353  -1.0  95    -1.7  0     0     967.2    NA       0.0000   9999     4330  0     0    
2019/07/27  07:19:01  BASE  10.0842  350  13.9121  353  -1.0  95    -1.7  0     0     967.3    NA       0.0000   9999     2200  3020  0    
2019/07/27  07:20:04  BASE  9.34332  353  13.9121  353  -1.1  95    -1.8  0     0     967.3    NA       0.0000   9999     2130  0     0    
2019/07/27  07:21:04  BASE  9.4374   352  13.9121  353  -1.1  95    -1.8  0     0     967.3    NA       0.0000   9999     2100  0     0    
2019/07/27  07:22:04  BASE  10.4605  353  13.7357  350  -1.1  95    -1.8  0     0     967.2    NA       0.0000   9999     2000  3670  0    
2019/07/27  07:23:04  BASE  11.419   353  13.13    347  -1.1  95    -1.8  0     0     967.2    NA       0.0000   9999     1970  0     0    
2019/07/27  07:24:04  BASE  11.0074  349  13.13    347  -1.1  95    -1.8  0     0     967.3    NA       0.0000   9999     2000  0     0    
2019/07/27  07:25:04  BASE  11.2543  350  13.4887  354  -1.1  95    -1.9  0     0     967.2    NA       0.0000   9999     2030  3670  0    
2019/07/27  07:26:05  BASE  12.0422  351  13.4887  354  -1.1  94    -1.9  0     0     967.2    NA       0.0000   9999     1970  0     0    
2019/07/27  07:27:05  BASE  11.4954  349  13.4887  354  -1.1  94    -1.9  0     0     967.3    NA       0.0000   9999     3540  4430  0    
2019/07/27  07:28:04  BASE  11.1485  351  13.4887  354  -1.1  94    -2.0  0     0     967.3    NA       0.0000   9999     0     0     0    
2019/07/27  07:29:04  BASE  10.3135  355  13.4887  354  -1.1  94    -2.0  0     0     967.4    NA       0.0000   9999     3380  4950  0    
2019/07/27  07:30:04  BASE  10.1136  353  13.4887  354  -1.1  93    -2.0  0     0     967.4    NA       0.0000   9999     4270  0     0    
2019/07/27  07:31:04  BASE  10.6487  349  13.4887  354  -1.1  93    -2.1  0     0     967.4    NA       0.0000   9999     0     0     0    
2019/07/27  07:32:04  BASE  10.5958  351  13.4887  354  -1.1  93    -2.2  0     0     967.4    NA       0.0000   9999     0     0     0    
2019/07/27  07:33:05  BASE  10.5899  351  13.4887  354  -1.2  93    -2.2  0     0     967.5    NA       0.0000   9999     0     0     0    
2019/07/27  07:34:01  BASE  11.0426  351  13.4887  354  -1.2  92    -2.3  0     0     967.5    NA       0.0000   9999     2130  0     0    
2019/07/27  07:35:04  BASE  10.8251  352  13.1006  347  -1.2  92    -2.3  0     0     967.6    NA       0.0000   9999     2230  0     0    
2019/07/27  07:36:04  BASE  10.3723  348  12.6773  355  -1.2  92    -2.3  0     0     967.6    NA       0.0000   9999     0     0     0    
2019/07/27  07:37:04  BASE  9.75492  348  12.6773  355  -1.2  92    -2.3  0     0     967.7    NA       0.0000   9999     0     0     0    
2019/07/27  07:38:05  BASE  9.0552   354  12.6773  355  -1.2  92    -2.4  0     0     967.8    NA       0.0000   9999     3280  0     0    
2019/07/27  07:39:04  BASE  8.5554   352  12.6773  355  -1.2  92    -2.4  0     0     967.7    NA       0.0000   9999     0     0     0    
2019/07/27  07:40:04  BASE  8.35548  352  12.6773  355  -1.3  92    -2.4  0     0     967.7    NA       0.0000   9999     3280  0     0    
2019/07/27  07:41:04  BASE  9.97836  355  12.8243  345  -1.3  92    -2.4  0     0     967.6    NA       0.0000   9999     3310  0     0    
2019/07/27  07:42:04  BASE  10.9133  355  12.8243  345  -1.3  92    -2.5  0     0     967.6    NA       0.0000   9999     3280  0     0    
2019/07/27  07:43:04  BASE  9.71964  354  12.8243  345  -1.3  92    -2.4  0     0     967.7    NA       0.0000   9999     3450  0     0    
2019/07/27  07:44:04  BASE  9.27864  350  12.8243  345  -1.3  92    -2.5  0     0     967.7    NA       0.0000   9999     3220  0     0    
2019/07/27  07:45:04  BASE  9.6432   348  12.8243  345  -1.3  92    -2.5  0     0     967.7    NA       0.0000   9999     3150  0     0    
2019/07/27  07:46:04  BASE  9.47268  350  12.8243  345  -1.3  91    -2.5  0     0     967.7    NA       0.0000   9999     3380  0     0    
2019/07/27  07:47:04  BASE  8.967    351  12.8243  345  -1.3  91    -2.6  0     0     967.7    NA       0.0000   9999     3250  0     0    
2019/07/27  07:48:04  BASE  9.19632  353  12.8243  345  -1.3  91    -2.6  0     0     967.7    NA       0.0000   9999     3220  0     0    
2019/07/27  07:49:04  BASE  9.86664  359  12.8243  345  -1.3  90    -2.7  0     0     967.7    NA       0.0000   9999     3180  0     0    
2019/07/27  07:50:04  BASE  9.81372  353  12.8243  345  -1.3  90    -2.7  0     0     967.7    NA       0.0000   9999     3310  0     0    
2019/07/27  07:51:04  BASE  9.43152  348  12.495   349  -1.3  90    -2.8  0     0     967.7    NA       0.0000   9999     3250  0     0    
2019/07/27  07:52:04  BASE  9.24336  349  12.495   349  -1.3  90    -2.8  0     0     967.8    NA       0.0000   9999     3310  0     0    
2019/07/27  07:53:04  BASE  8.9082   349  12.495   349  -1.3  89    -2.8  0     0     967.8    NA       0.0000   9999     3310  0     0    
2019/07/27  07:54:05  BASE  8.73768  354  12.495   349  -1.3  89    -2.9  0     0     967.9    NA       0.0000   9999     3350  0     0    
2019/07/27  07:55:04  BASE  9.04344  354  10.978   335  -1.4  89    -2.9  0     0     967.9    NA       0.0000   9999     3280  0     0    
2019/07/27  07:56:05  BASE  8.89056  352  10.978   335  -1.4  89    -2.9  0     0     967.9    NA       0.0000   9999     3280  0     0    
2019/07/27  07:57:04  BASE  8.86116  352  10.978   335  -1.4  89    -3.0  0     0     967.9    NA       0.0000   9999     3280  0     0    
2019/07/27  07:58:01  BASE  9.27864  354  10.978   335  -1.4  89    -3.0  0     0     967.9    NA       0.0000   9999     3380  0     0    
2019/07/27  07:59:04  BASE  9.09636  360  10.978   335  -1.4  89    -3.0  0     0     967.9    NA       0.0000   9999     3380  0     0    
2019/07/27  08:00:04  BASE  8.54952  358  10.978   335  -1.4  88    -3.1  0     0     967.9    NA       0.0000   9999     3450  0     0    
2019/07/27  08:01:05  BASE  7.92624  357  10.978   335  -1.4  88    -3.1  0     0     968.0    NA       0.0000   9999     3840  0     0    
2019/07/27  08:02:04  BASE  7.96152  359  10.978   335  -1.4  88    -3.1  0     0     967.9    NA       0.0000   9999     3810  0     0    
2019/07/27  08:03:05  BASE  8.22024  358  10.978   335  -1.4  88    -3.1  0     0     967.9    NA       0.0000   9999     3970  0     0    
2019/07/27  08:04:05  BASE  8.09676  358  10.978   335  -1.4  88    -3.1  0     0     967.9    NA       0.0000   9999     3640  0     0    
2019/07/27  08:05:04  BASE  8.06736  358  10.5899  350  -1.4  88    -3.2  0     0     967.9    NA       0.0000   9999     3900  0     0    
2019/07/27  08:06:05  BASE  8.56128  356  10.5899  350  -1.4  88    -3.2  0     0     967.9    NA       0.0000   9999     3840  0     0    
2019/07/27  08:07:04  BASE  8.9376   355  10.5899  350  -1.5  88    -3.2  0     0     968.0    NA       0.0000   9999     3870  0     0    
2019/07/27  08:08:04  BASE  9.10224  355  10.437   352  -1.5  88    -3.2  0     0     967.9    NA       0.0000   9999     0     0     0    
2019/07/27  08:09:04  BASE  9.20808  354  10.437   352  -1.5  88    -3.2  0     0     968.0    NA       0.0000   9999     0     0     0    
2019/07/27  08:10:04  BASE  9.0552   357  10.437   352  -1.5  88    -3.3  0     0     968.0    NA       0.0000   9999     0     0     0    
2019/07/27  08:11:06  BASE  8.77884  356  10.437   352  -1.5  87    -3.3  0     0     968.0    NA       0.0000   9999     0     0     0    
2019/07/27  08:12:05  BASE  8.59656  355  10.437   352  -1.5  87    -3.4  0     0     968.0    NA       0.0000   9999     0     0     0    
2019/07/27  08:13:04  BASE  8.56716  358  10.437   352  -1.5  87    -3.4  0     0     968.1    NA       0.0000   9999     0     0     0    
2019/07/27  08:14:05  BASE  8.82     1    10.437   352  -1.6  87    -3.4  0     0     968.0    NA       0.0000   9999     0     0     0    
2019/07/27  08:15:07  BASE  9.7608   4    11.2543  2    -1.6  87    -3.5  0     0     967.9    NA       0.0000   9999     0     0     0    
2019/07/27  08:16:05  BASE  10.4017  5    11.2543  5    -1.7  87    -3.5  0     0     967.9    NA       0.0000   9999     0     0     0    
2019/07/27  08:17:05  BASE  10.8604  7    11.86    9    -1.7  87    -3.6  0     0     967.9    NA       0.0000   9999     0     0     0    
2019/07/27  08:18:05  BASE  11.1602  8    12.1598  10   -1.8  88    -3.6  0     0     967.9    NA       0.0000   9999     0     0     0    
2019/07/27  08:19:04  BASE  11.3131  8    12.1598  10   -1.9  88    -3.6  0     0     967.9    NA       0.0000   9999     0     0     0    
2019/07/27  08:20:05  BASE  11.2132  8    12.1598  10   -1.9  89    -3.5  0     0     967.9    NA       0.0000   9999     0     0     0    
2019/07/27  08:21:05  BASE  11.025   8    12.1598  10   -1.9  89    -3.5  0     0     967.9    NA       0.0000   9999     0     0     0    
2019/07/27  08:22:05  BASE  10.878   8    12.1598  10   -2.0  90    -3.4  0     0     967.9    NA       0.0000   9999     0     0     0    
2019/07/27  08:23:01  BASE  11.0368  9    12.495   7    -2.0  90    -3.4  0     0     967.9    NA       0.0000   9999     0     0     0    
2019/07/27  08:24:05  BASE  11.1661  9    12.495   7    -2.0  90    -3.3  0     0     967.9    NA       0.0000   9999     0     0     0    
2019/07/27  08:25:04  BASE  11.0132  8    12.495   7    -2.0  91    -3.3  0     0     968.0    NA       0.0000   9999     0     0     0    
2019/07/27  08:26:05  BASE  11.2073  9    12.495   7    -2.0  91    -3.3  0     0     968.0    NA       0.0000   9999     0     0     0    
2019/07/27  08:27:05  BASE  11.0368  10   12.495   7    -2.0  91    -3.3  0     0     968.0    NA       0.0000   9999     0     0     0    
2019/07/27  08:28:01  BASE  10.9897  9    12.7361  4    -2.1  91    -3.3  0     0     968.0    NA       0.0000   9999     0     0     0    
2019/07/27  08:29:03  BASE  10.8192  8    12.7361  4    -2.1  91    -3.4  0     0     968.0    NA       0.0000   9999     0     0     0    
2019/07/27  08:30:03  BASE  11.1485  9    12.9478  3    -2.1  91    -3.4  0     0     967.9    NA       0.0000   9999     0     0     0    
2019/07/27  08:31:04  BASE  11.5777  9    12.9478  3    -2.2  91    -3.4  0     0     967.9    NA       0.0000   9999     0     0     0    
2019/07/27  08:32:04  BASE  11.1485  11   12.9478  3    -2.2  92    -3.4  0     0     967.9    NA       0.0000   9999     0     0     0    
2019/07/27  08:33:04  BASE  11.1073  12   12.9478  3    -2.2  92    -3.4  0     0     968.0    NA       0.0000   9999     0     0     0    
2019/07/27  08:34:04  BASE  11.1485  11   12.9478  3    -2.2  92    -3.4  0     0     968.0    NA       0.0000   9999     0     0     0    
2019/07/27  08:35:04  BASE  11.0662  12   12.9478  3    -2.3  92    -3.3  0     0     968.0    NA       0.0000   9999     0     0     0    
2019/07/27  08:36:04  BASE  11.1073  12   12.9478  3    -2.3  92    -3.3  0     0     967.9    NA       0.0000   9999     0     0     0    
2019/07/27  08:37:04  BASE  11.0897  11   12.9478  3    -2.3  93    -3.3  0     0     967.9    NA       0.0000   9999     0     0     0    
2019/07/27  08:38:04  BASE  11.3543  12   12.9478  3    -2.3  93    -3.3  0     0     967.9    NA       0.0000   9999     0     0     0    
2019/07/27  08:39:03  BASE  11.4778  12   12.9478  3    -2.3  93    -3.3  0     0     967.9    NA       0.0000   9999     0     0     0    
2019/07/27  08:40:04  BASE  11.1426  10   12.3421  11   -2.3  93    -3.3  0     0     968.0    NA       0.0000   9999     0     0     0    
2019/07/27  08:41:05  BASE  10.9897  11   12.248   10   -2.3  93    -3.2  0     0     968.0    NA       0.0000   9999     0     0     0    
2019/07/27  08:42:05  BASE  11.025   12   12.248   10   -2.3  93    -3.2  0     0     968.0    NA       0.0000   9999     0     0     0    
2019/07/27  08:43:01  BASE  11.4778  13   12.3715  16   -2.3  94    -3.2  0     0     967.9    NA       0.0000   9999     0     0     0    
2019/07/27  08:44:04  BASE  11.8835  12   13.036   13   -2.3  94    -3.2  0     0     968.0    NA       0.0000   9999     0     0     0    
2019/07/27  08:45:04  BASE  11.8894  12   13.036   13   -2.3  94    -3.1  0     0     968.0    NA       0.0000   9999     0     0     0    
2019/07/27  08:46:04  BASE  11.86    11   13.036   13   -2.3  94    -3.1  0     0     968.0    NA       0.0000   9999     0     0     0    
2019/07/27  08:47:04  BASE  11.8247  9    13.036   13   -2.3  95    -3.1  0     0     968.1    NA       0.0000   9999     0     0     0    
2019/07/27  08:48:04  BASE  11.7424  10   13.036   13   -2.3  95    -3.0  0     0     968.1    NA       0.0000   9999     0     0     0    
2019/07/27  08:49:05  BASE  11.4542  11   13.036   13   -2.3  95    -3.0  0     0     968.2    NA       0.0000   9999     0     0     0    
2019/07/27  08:50:04  BASE  11.1544  11   13.036   13   -2.3  95    -3.0  0     0     968.2    NA       0.0000   9999     0     0     0    
2019/07/27  08:51:03  BASE  11.2778  11   13.036   13   -2.4  95    -3.1  0     0     968.2    NA       0.0000   9999     0     0     0    
2019/07/27  08:52:04  BASE  11.4836  12   13.036   13   -2.4  94    -3.2  0     0     968.2    NA       0.0000   9999     0     0     0    
2019/07/27  08:53:04  BASE  11.3719  12   13.036   13   -2.4  94    -3.2  0     0     968.2    NA       0.0000   9999     0     0     0    
2019/07/27  08:54:04  BASE  11.0485  12   12.6773  3    -2.5  94    -3.3  0     0     968.3    NA       0.0000   9999     0     0     0    
2019/07/27  08:55:03  BASE  10.8133  11   12.5832  11   -2.5  94    -3.3  0     0     968.3    NA       0.0000   9999     0     0     0    
2019/07/27  08:56:04  BASE  10.8662  11   12.5832  11   -2.5  94    -3.3  0     0     968.3    NA       0.0000   9999     0     0     0    
2019/07/27  08:57:04  BASE  10.8721  11   12.5832  11   -2.5  94    -3.3  0     0     968.3    NA       0.0000   9999     0     0     0    
2019/07/27  08:58:04  BASE  10.8192  11   12.5832  11   -2.5  94    -3.3  0     0     968.3    NA       0.0000   9999     0     0     0    
2019/07/27  08:59:04  BASE  10.9838  12   12.5832  11   -2.5  94    -3.4  0     0     968.3    NA       0.0000   9999     0     0     0    
2019/07/27  09:00:04  BASE  11.1661  11   12.5832  11   -2.6  94    -3.4  0     0     968.3    NA       0.0000   9999     0     0     0    
2019/07/27  09:01:03  BASE  11.2308  11   12.4009  10   -2.6  94    -3.4  0     0     968.3    NA       0.0000   9999     0     0     0    
2019/07/27  09:02:04  BASE  11.4542  11   12.2833  12   -2.6  94    -3.4  0     0     968.3    NA       0.0000   9999     0     0     0    
2019/07/27  09:03:04  BASE  11.4954  11   12.2833  12   -2.6  94    -3.4  0     0     968.3    NA       0.0000   9999     0     0     0    
2019/07/27  09:04:05  BASE  11.2837  12   12.495   11   -2.6  94    -3.4  0     0     968.4    NA       0.0000   9999     0     0     0    
2019/07/27  09:05:04  BASE  11.0309  12   12.495   11   -2.5  94    -3.4  0     0     968.4    NA       0.0000   9999     0     0     0    
2019/07/27  09:06:05  BASE  11.1191  13   12.642   13   -2.5  94    -3.4  0     0     968.4    NA       0.0000   9999     0     0     0    
2019/07/27  09:07:04  BASE  11.2484  13   12.642   13   -2.5  94    -3.4  0     0     968.5    NA       0.0000   9999     0     0     0    
2019/07/27  09:08:05  BASE  11.0956  14   12.642   13   -2.6  94    -3.5  0     0     968.5    NA       0.0000   9999     0     0     0    
2019/07/27  09:09:01  BASE  10.9603  13   12.642   13   -2.6  93    -3.5  0     0     968.5    NA       0.0000   9999     0     0     0    
2019/07/27  09:10:04  BASE  11.1661  14   12.642   13   -2.7  93    -3.6  0     0     968.5    NA       0.0000   9999     0     0     0    
2019/07/27  09:11:04  BASE  11.6012  16   12.642   13   -2.7  93    -3.6  0     0     968.5    NA       0.0000   9999     0     0     0    
2019/07/27  09:12:05  BASE  11.7718  16   12.642   14   -2.7  94    -3.6  0     0     968.5    NA       0.0000   9999     0     0     0    
2019/07/27  09:13:01  BASE  11.8835  16   12.889   19   -2.7  94    -3.6  0     0     968.5    NA       0.0000   9999     0     0     0    
2019/07/27  09:14:05  BASE  11.7776  14   12.889   19   -2.7  94    -3.5  0     0     968.6    NA       0.0000   9999     0     0     0    
2019/07/27  09:15:05  BASE  11.7541  14   12.889   9    -2.7  94    -3.5  0     0     968.5    NA       0.0000   9999     0     0     0    
2019/07/27  09:16:01  BASE  11.66    13   12.889   9    -2.7  94    -3.6  0     0     968.6    NA       0.0000   9999     0     0     0    
2019/07/27  09:17:05  BASE  11.366   11   12.889   9    -2.7  94    -3.6  0     0     968.6    NA       0.0000   9999     0     0     0    
2019/07/27  09:18:05  BASE  11.3719  10   12.889   9    -2.8  94    -3.6  0     0     968.6    NA       0.0000   9999     0     0     0    
2019/07/27  09:19:01  BASE  11.5954  11   12.889   9    -2.8  94    -3.6  0     0     968.6    NA       0.0000   9999     0     0     0    
2019/07/27  09:20:04  BASE  11.4601  10   12.889   9    -2.8  93    -3.7  0     0     968.6    NA       0.0000   9999     0     0     0    
2019/07/27  09:21:04  BASE  11.3014  8    12.889   9    -2.8  93    -3.7  0     0     968.7    NA       0.0000   9999     0     0     0    
2019/07/27  09:22:05  BASE  11.2955  8    12.889   9    -2.8  93    -3.7  0     0     968.7    NA       0.0000   9999     0     0     0    
2019/07/27  09:23:04  BASE  10.8251  9    12.889   9    -2.8  93    -3.7  0     0     968.7    NA       0.0000   9999     0     0     0    
2019/07/27  09:24:05  BASE  10.8074  10   12.889   9    -2.8  93    -3.8  0     0     968.6    NA       0.0000   9999     0     0     0    
2019/07/27  09:25:04  BASE  10.9662  10   12.4656  1    -2.8  93    -3.8  0     0     968.7    NA       0.0000   9999     0     0     0    
2019/07/27  09:26:04  BASE  10.5664  11   12.4656  1    -2.8  93    -3.8  0     0     968.7    NA       0.0000   9999     0     0     0    
2019/07/27  09:27:04  BASE  10.3429  10   12.4656  1    -2.8  93    -3.8  0     0     968.7    NA       0.0000   9999     0     0     0    
2019/07/27  09:28:04  BASE  10.7251  12   12.4656  1    -2.8  93    -3.8  0     0     968.6    NA       0.0000   9999     0     0     0    
2019/07/27  09:29:04  BASE  11.0368  14   12.4656  1    -2.8  93    -3.8  0     0     968.6    NA       0.0000   9999     0     0     0    
2019/07/27  09:30:03  BASE  11.072   12   12.4303  5    -2.8  93    -3.7  0     0     968.6    NA       0.0000   9999     0     0     0    
2019/07/27  09:31:04  BASE  11.366   14   12.4009  10   -2.8  93    -3.7  0     0     968.6    NA       0.0000   9999     0     0     0    
2019/07/27  09:32:04  BASE  11.6071  15   12.4009  10   -2.7  93    -3.7  0     0     968.6    NA       0.0000   9999     0     0     0    
2019/07/27  09:33:04  BASE  11.7306  14   12.5832  9    -2.7  93    -3.6  0     0     968.6    NA       0.0000   9999     0     0     0    
2019/07/27  09:34:04  BASE  11.8364  15   12.5832  9    -2.7  93    -3.6  0     0     968.6    NA       0.0000   9999     0     0     0    
2019/07/27  09:35:04  BASE  11.66    15   12.5832  9    -2.7  93    -3.6  0     0     968.6    NA       0.0000   9999     0     0     0    
2019/07/27  09:36:05  BASE  11.319   14   12.5832  9    -2.7  93    -3.6  0     0     968.7    NA       0.0000   9999     0     0     0    
2019/07/27  09:37:04  BASE  11.172   15   12.5832  9    -2.7  93    -3.6  0     0     968.7    NA       0.0000   9999     0     0     0    
2019/07/27  09:38:04  BASE  11.2896  14   12.5832  9    -2.7  93    -3.7  0     0     968.6    NA       0.0000   9999     0     0     0    
2019/07/27  09:39:04  BASE  11.1779  12   12.5832  9    -2.7  93    -3.7  0     0     968.6    NA       0.0000   9999     0     0     0    
2019/07/27  09:40:04  BASE  10.7134  13   12.5832  9    -2.7  93    -3.7  0     0     968.7    NA       0.0000   9999     0     0     0    
2019/07/27  09:41:03  BASE  10.584   12   12.5832  9    -2.7  93    -3.7  0     0     968.7    NA       0.0000   9999     0     0     0    
2019/07/27  09:42:04  BASE  10.7957  8    12.5832  9    -2.7  93    -3.6  0     0     968.7    NA       0.0000   9999     0     0     0    
2019/07/27  09:43:04  BASE  10.9486  8    12.3715  10   -2.7  93    -3.6  0     0     968.7    NA       0.0000   9999     0     0     0    
2019/07/27  09:44:04  BASE  10.6781  10   12.3715  10   -2.7  94    -3.6  0     0     968.7    NA       0.0000   9999     0     0     0    
2019/07/27  09:45:04  BASE  10.337   8    12.1304  10   -2.6  94    -3.5  0     0     968.7    NA       0.0000   9999     0     0     0    
2019/07/27  09:46:05  BASE  9.99012  7    11.9776  16   -2.6  94    -3.5  0     0     968.7    NA       0.0000   9999     0     0     0    
2019/07/27  09:47:05  BASE  9.77256  8    11.9776  16   -2.6  94    -3.5  0     0     968.7    NA       0.0000   9999     0     0     0    
2019/07/27  09:48:05  BASE  9.89016  7    11.9776  16   -2.6  93    -3.6  0     0     968.8    NA       0.0000   9999     0     0     0    
2019/07/27  09:49:05  BASE  10.1665  8    11.9776  16   -2.7  93    -3.6  0     0     968.8    NA       0.0000   9999     0     0     0    
2019/07/27  09:50:04  BASE  10.3076  8    11.9776  16   -2.7  93    -3.6  0     0     968.8    NA       0.0000   9999     0     0     0    
2019/07/27  09:51:05  BASE  9.91368  8    11.9776  16   -2.7  94    -3.5  0     0     968.8    NA       0.0000   9999     0     0     0    
2019/07/27  09:52:01  BASE  9.60204  7    11.9776  16   -2.6  94    -3.5  0     0     968.8    NA       0.0000   9999     0     0     0    
2019/07/27  09:53:04  BASE  9.46092  6    11.1602  8    -2.6  94    -3.5  0     0     968.8    NA       0.0000   9999     0     0     0    
2019/07/27  09:54:04  BASE  9.41388  7    11.1602  8    -2.6  94    -3.5  0     0     968.8    NA       0.0000   9999     0     0     0    
2019/07/27  09:55:04  BASE  9.66672  7    10.9192  6    -2.6  94    -3.5  0     0     968.8    NA       0.0000   9999     0     0     0    
2019/07/27  09:56:05  BASE  9.56676  9    10.831   12   -2.6  94    -3.5  0     0     968.8    NA       0.0000   9999     0     0     0    
2019/07/27  09:57:04  BASE  9.2022   10   10.831   12   -2.6  94    -3.4  0     0     968.8    NA       0.0000   9999     0     0     0    
2019/07/27  09:58:04  BASE  9.3786   10   10.831   12   -2.5  94    -3.4  0     0     968.8    NA       0.0000   9999     14470 0     0    
2019/07/27  09:59:04  BASE  9.4374   10   10.831   12   -2.5  94    -3.4  0     0     968.7    NA       0.0000   9999     14140 0     0    
2019/07/27  10:00:04  BASE  9.39036  13   10.5546  10   -2.5  94    -3.3  0     0     968.7    NA       0.0000   9999     14170 0     0    
2019/07/27  10:01:03  BASE  9.78432  13   10.5546  10   -2.5  94    -3.3  0     0     968.7    NA       0.0000   9999     14110 0     0    
2019/07/27  10:02:05  BASE  9.89016  13   10.5546  8    -2.5  94    -3.3  0     0     968.7    NA       0.0000   9999     13750 0     0    
2019/07/27  10:03:01  BASE  10.0372  14   10.978   19   -2.4  94    -3.3  0     0     968.6    NA       0.0000   9999     13680 0     0    
2019/07/27  10:04:04  BASE  10.484   14   11.5248  11   -2.4  94    -3.3  0     0     968.6    NA       0.0000   9999     13480 0     0    
2019/07/27  10:05:04  BASE  10.5899  13   11.5248  11   -2.4  94    -3.2  0     0     968.6    NA       0.0000   9999     13030 0     0    
2019/07/27  10:06:04  BASE  10.3135  14   11.5248  11   -2.4  94    -3.2  0     0     968.6    NA       0.0000   9999     12760 0     0    
2019/07/27  10:07:04  BASE  10.3488  15   11.5248  11   -2.4  94    -3.2  0     0     968.6    NA       0.0000   9999     12530 0     0    
2019/07/27  10:08:04  BASE  10.4252  16   11.5248  11   -2.4  94    -3.2  0     0     968.6    NA       0.0000   9999     12300 0     0    
2019/07/27  10:09:04  BASE  10.337   15   11.5248  11   -2.4  94    -3.2  0     0     968.6    NA       0.0000   9999     12500 0     0    
2019/07/27  10:10:04  BASE  10.3723  14   11.5248  11   -2.4  94    -3.2  0     0     968.7    NA       0.0000   9999     12170 0     0    
2019/07/27  10:11:04  BASE  10.1665  15   11.5248  11   -2.3  94    -3.2  0     0     968.7    NA       0.0000   9999     11420 0     0    
2019/07/27  10:12:04  BASE  9.99012  15   11.5248  11   -2.3  94    -3.2  0     0     968.7    NA       0.0000   9999     11940 0     0    
2019/07/27  10:13:04  BASE  9.8196   15   11.5248  11   -2.3  94    -3.2  0     0     968.7    NA       0.0000   9999     12110 0     0    
2019/07/27  10:14:04  BASE  9.53736  15   11.1896  13   -2.3  94    -3.2  0     0     968.7    NA       0.0000   9999     0     0     0    
2019/07/27  10:15:05  BASE  9.78432  15   11.1014  11   -2.3  93    -3.2  0     0     968.6    NA       0.0000   9999     0     0     0    
2019/07/27  10:16:01  BASE  10.0842  16   11.1014  11   -2.3  93    -3.3  0     0     968.7    NA       0.0000   9999     0     0     0    
2019/07/27  10:17:04  BASE  9.80196  15   11.1014  11   -2.3  93    -3.3  0     0     968.7    NA       0.0000   9999     0     0     0    
2019/07/27  10:18:04  BASE  9.69024  17   11.1014  11   -2.3  93    -3.3  0     0     968.7    NA       0.0000   9999     0     0     0    
2019/07/27  10:19:04  BASE  10.0136  17   11.1014  11   -2.3  93    -3.2  0     0     968.6    NA       0.0000   9999     0     0     0    
2019/07/27  10:20:03  BASE  10.1959  17   11.1014  11   -2.3  93    -3.2  0     0     968.7    NA       0.0000   9999     0     0     0    
2019/07/27  10:21:04  BASE  10.1195  18   11.0132  17   -2.2  94    -3.1  0     0     968.7    NA       0.0000   9999     3870  0     0    
2019/07/27  10:22:04  BASE  9.87252  17   11.0132  17   -2.2  94    -3.1  0     0     968.7    NA       0.0000   9999     0     0     0    
2019/07/27  10:23:05  BASE  9.65496  17   11.0132  17   -2.2  94    -3.1  0     0     968.7    NA       0.0000   9999     3580  0     0    
2019/07/27  10:24:05  BASE  9.43152  18   11.0132  17   -2.2  94    -3.1  0     0     968.7    NA       0.0000   9999     0     0     0    
2019/07/27  10:25:01  BASE  9.44916  19   11.0132  17   -2.2  93    -3.1  0     0     968.7    NA       0.0000   9999     0     0     0    
2019/07/27  10:26:04  BASE  9.71376  18   11.0132  17   -2.2  93    -3.2  0     0     968.6    NA       0.0000   9999     0     0     0    
2019/07/27  10:27:04  BASE  9.6432   16   11.0132  17   -2.2  93    -3.2  0     0     968.7    NA       0.0000   9999     11220 0     0    
2019/07/27  10:28:04  BASE  9.33156  16   11.0132  17   -2.2  93    -3.1  0     0     968.6    NA       0.0000   9999     3510  0     0    
2019/07/27  10:29:04  BASE  9.1728   17   11.0132  17   -2.1  93    -3.1  0     0     968.6    NA       0.0000   9999     10560 0     0    
2019/07/27  10:30:04  BASE  9.17868  16   10.7663  17   -2.1  93    -3.2  0     0     968.6    NA       0.0000   9999     10400 0     0    
2019/07/27  10:31:05  BASE  9.20808  16   10.7663  17   -2.1  92    -3.2  0     0     968.6    NA       0.0000   9999     4040  0     0    
2019/07/27  10:32:04  BASE  9.09636  18   10.6487  17   -2.1  92    -3.2  0     0     968.6    NA       0.0000   9999     10040 0     0    
2019/07/27  10:33:04  BASE  8.91408  19   10.6487  17   -2.1  92    -3.2  0     0     968.6    NA       0.0000   9999     9710  0     0    
2019/07/27  10:34:04  BASE  8.98464  17   10.6487  17   -2.1  92    -3.3  0     0     968.6    NA       0.0000   9999     5050  0     0    
2019/07/27  10:35:04  BASE  9.07872  17   10.6487  17   -2.1  92    -3.3  0     0     968.6    NA       0.0000   9999     4230  0     0    
2019/07/27  10:36:03  BASE  9.04932  16   9.91956  18   -2.1  91    -3.3  0     0     968.6    NA       0.0000   9999     3840  0     0    
2019/07/27  10:37:04  BASE  9.24336  14   9.91956  18   -2.1  91    -3.4  0     0     968.6    NA       0.0000   9999     3640  0     0    
2019/07/27  10:38:04  BASE  9.17868  13   9.80196  14   -2.1  91    -3.4  0     0     968.6    NA       0.0000   9999     3670  0     0    
2019/07/27  10:39:04  BASE  9.19044  16   9.98424  24   -2.1  90    -3.4  0     0     968.6    NA       0.0000   9999     3740  0     0    
2019/07/27  10:40:04  BASE  8.9376   18   9.98424  24   -2.0  90    -3.5  0     0     968.6    NA       0.0000   9999     3180  0     0    
2019/07/27  10:41:04  BASE  8.66712  14   9.98424  24   -2.0  90    -3.5  0     0     968.6    NA       0.0000   9999     3580  0     0    
2019/07/27  10:42:04  BASE  8.8494   13   9.98424  24   -2.0  89    -3.5  0     0     968.6    NA       0.0000   9999     3580  0     0    
2019/07/27  10:43:04  BASE  8.92584  16   9.98424  24   -2.0  89    -3.6  0     0     968.5    NA       0.0000   9999     3450  3940  0    
2019/07/27  10:44:04  BASE  8.94348  16   9.98424  24   -2.0  89    -3.6  0     0     968.5    NA       0.0000   9999     3740  0     0    
2019/07/27  10:45:04  BASE  8.4672   15   9.98424  24   -2.0  88    -3.7  0     0     968.5    NA       0.0000   9999     3540  4070  0    
2019/07/27  10:46:05  BASE  8.232    15   9.98424  24   -2.0  88    -3.7  0     0     968.5    NA       0.0000   9999     3450  0     0    
2019/07/27  10:47:04  BASE  8.37312  15   9.98424  24   -2.0  88    -3.7  0     0     968.5    NA       0.0000   9999     3510  0     0    
2019/07/27  10:48:04  BASE  8.59656  14   9.98424  24   -2.0  88    -3.7  0     0     968.5    NA       0.0000   9999     3710  0     0    
2019/07/27  10:49:04  BASE  8.75532  14   9.67848  18   -2.0  88    -3.7  0     0     968.5    NA       0.0000   9999     6040  0     0    
2019/07/27  10:50:03  BASE  8.53188  13   9.67848  18   -2.0  88    -3.7  0     0     968.5    NA       0.0000   9999     3940  0     0    
2019/07/27  10:51:03  BASE  8.36724  13   9.67848  18   -2.0  88    -3.7  0     0     968.5    NA       0.0000   9999     6330  0     0    
2019/07/27  10:52:05  BASE  8.24376  13   9.67848  18   -2.0  88    -3.7  0     0     968.5    NA       0.0000   9999     6200  0     0    
2019/07/27  10:53:04  BASE  8.04972  11   9.5256   18   -2.0  88    -3.7  0     0     968.5    NA       0.0000   9999     5770  0     0    
2019/07/27  10:54:04  BASE  8.28492  13   9.83136  11   -2.0  88    -3.7  0     0     968.4    NA       0.0000   9999     5380  0     0    
2019/07/27  10:55:03  BASE  8.44956  16   9.83136  11   -2.0  89    -3.7  0     0     968.4    NA       0.0000   9999     5120  0     0    
2019/07/27  10:56:03  BASE  8.14968  15   9.83136  11   -2.1  89    -3.7  0     0     968.4    NA       0.0000   9999     5150  0     0    
2019/07/27  10:57:03  BASE  8.04972  14   9.83136  11   -2.1  89    -3.7  0     0     968.4    NA       0.0000   9999     5150  0     0    
2019/07/27  10:58:03  BASE  8.32608  13   9.83136  11   -2.1  89    -3.7  0     0     968.3    NA       0.0000   9999     4270  0     0    
2019/07/27  10:59:03  BASE  8.85528  14   10.043   12   -2.1  89    -3.7  0     0     968.3    NA       0.0000   9999     4200  0     0    
2019/07/27  11:00:04  BASE  9.04344  14   10.043   12   -2.1  89    -3.6  0     0     968.3    NA       0.0000   9999     4300  0     0    
2019/07/27  11:01:04  BASE  8.96112  12   10.043   12   -2.1  90    -3.6  0     0     968.3    NA       0.0000   9999     3810  0     0    
2019/07/27  11:02:04  BASE  9.03756  11   10.043   12   -2.1  90    -3.5  0     0     968.3    NA       0.0000   9999     4100  0     0    
2019/07/27  11:03:04  BASE  9.07284  9    10.043   12   -2.0  90    -3.5  0     0     968.3    NA       0.0000   9999     4430  0     0    
2019/07/27  11:04:04  BASE  8.967    10   10.043   12   -2.0  90    -3.4  0     0     968.3    NA       0.0000   9999     4400  0     0    
2019/07/27  11:05:04  BASE  8.89644  13   10.043   12   -2.0  90    -3.4  0     0     968.3    NA       0.0000   9999     3380  0     0    
2019/07/27  11:06:04  BASE  8.74356  14   10.043   12   -1.9  90    -3.4  0     0     968.3    NA       0.0000   9999     0     0     0    
2019/07/27  11:07:04  BASE  8.47308  14   10.043   12   -1.9  90    -3.3  0     0     968.3    NA       0.0000   9999     3150  0     0    
2019/07/27  11:08:04  BASE  8.24376  14   10.043   12   -1.9  90    -3.3  0     0     968.3    NA       0.0000   9999     1310  0     0    
2019/07/27  11:09:04  BASE  8.4084   16   9.91956  10   -1.9  90    -3.4  0     0     968.3    NA       0.0000   9999     3080  0     0    
2019/07/27  11:10:04  BASE  8.73768  15   9.91956  10   -2.0  90    -3.3  0     0     968.2    NA       0.0000   9999     2030  0     0    
2019/07/27  11:11:04  BASE  8.60244  12   9.91956  10   -2.0  90    -3.3  0     0     968.3    NA       0.0000   9999     0     0     0    
2019/07/27  11:12:04  BASE  8.1144   11   9.74316  11   -2.0  91    -3.3  0     0     968.3    NA       0.0000   9999     3640  0     0    
2019/07/27  11:13:04  BASE  7.82628  10   9.74316  11   -2.0  91    -3.3  0     0     968.3    NA       0.0000   9999     3310  0     0    
2019/07/27  11:14:04  BASE  7.91448  10   9.67848  11   -2.0  91    -3.3  0     0     968.3    NA       0.0000   9999     2100  0     0    
2019/07/27  11:15:04  BASE  7.66164  10   9.67848  11   -2.0  91    -3.2  0     0     968.3    NA       0.0000   9999     3540  0     0    
2019/07/27  11:16:01  BASE  7.46172  10   9.408    14   -2.0  91    -3.2  0     0     968.3    NA       0.0000   9999     3150  0     0    
2019/07/27  11:17:03  BASE  8.04972  9    9.408    14   -2.0  92    -3.2  0     0     968.2    NA       0.0000   9999     1970  0     0    
2019/07/27  11:18:05  BASE  8.22612  1    9.408    14   -2.0  92    -3.2  0     0     968.3    NA       0.0000   9999     0     0     0    
2019/07/27  11:19:04  BASE  7.98504  354  9.408    14   -2.0  92    -3.2  0     0     968.3    NA       0.0000   9999     0     0     0    
2019/07/27  11:20:04  BASE  7.65576  359  8.86116  6    -2.1  92    -3.2  0     0     968.3    NA       0.0000   9999     0     0     0    
2019/07/27  11:21:04  BASE  7.04424  3    8.86116  6    -2.1  92    -3.2  0     0     968.4    NA       0.0000   9999     0     0     0    
2019/07/27  11:22:04  BASE  6.70908  3    8.86116  6    -2.1  92    -3.2  0     0     968.4    NA       0.0000   9999     0     0     0    
2019/07/27  11:23:04  BASE  6.47976  2    8.86116  6    -2.1  92    -3.3  0     0     968.4    NA       0.0000   9999     0     0     0    
2019/07/27  11:24:05  BASE  6.027    1    8.86116  6    -2.1  91    -3.3  0     0     968.4    NA       0.0000   9999     0     0     0    
2019/07/27  11:25:04  BASE  5.89764  358  8.86116  6    -2.1  91    -3.3  0     0     968.3    NA       0.0000   9999     0     0     0    
2019/07/27  11:26:04  BASE  6.13284  354  8.86116  6    -2.1  91    -3.4  0     0     968.3    NA       0.0000   9999     0     0     0    
2019/07/27  11:27:04  BASE  6.53856  353  8.56128  360  -2.0  90    -3.4  0     0     968.3    NA       0.0000   9999     4950  0     0    
2019/07/27  11:28:04  BASE  6.92076  353  8.53188  5    -2.0  90    -3.5  0     0     968.3    NA       0.0000   9999     4760  0     0    
2019/07/27  11:29:04  BASE  7.1442   353  8.4378   2    -2.0  89    -3.6  0     0     968.3    NA       0.0000   9999     4560  0     0    
2019/07/27  11:30:03  BASE  7.7322   357  8.64948  3    -2.0  88    -3.6  0     0     968.3    NA       0.0000   9999     4200  0     0    
2019/07/27  11:31:04  BASE  8.00856  2    8.64948  3    -2.0  88    -3.7  0     0     968.3    NA       0.0000   9999     4130  0     0    
2019/07/27  11:32:05  BASE  7.57344  4    8.64948  3    -2.0  87    -3.8  0     0     968.3    NA       0.0000   9999     4130  0     0    
2019/07/27  11:33:04  BASE  7.13244  4    8.64948  3    -2.0  87    -3.8  0     0     968.4    NA       0.0000   9999     0     0     0    
2019/07/27  11:34:04  BASE  6.4386   4    8.64948  3    -2.0  87    -3.8  0     0     968.4    NA       0.0000   9999     3840  0     0    
2019/07/27  11:35:04  BASE  5.95056  359  8.64948  3    -2.0  88    -3.8  0     0     968.4    NA       0.0000   9999     3640  0     0    
2019/07/27  11:36:05  BASE  6.03876  353  8.64948  3    -2.0  88    -3.8  0     0     968.4    NA       0.0000   9999     3220  0     0    
2019/07/27  11:37:04  BASE  6.34452  355  8.64948  3    -2.0  88    -3.8  0     0     968.4    NA       0.0000   9999     0     0     0    
2019/07/27  11:38:04  BASE  6.37392  360  8.64948  3    -2.1  88    -3.8  0     0     968.4    NA       0.0000   9999     0     0     0    
2019/07/27  11:39:04  BASE  6.36804  360  8.64948  3    -2.1  88    -3.8  0     0     968.4    NA       0.0000   9999     0     0     0    
2019/07/27  11:40:04  BASE  6.45036  2    8.07912  3    -2.1  89    -3.7  0     0     968.4    NA       0.0000   9999     0     0     0    
2019/07/27  11:41:04  BASE  6.09756  5    8.01444  1    -2.2  89    -3.7  0     0     968.5    NA       0.0000   9999     0     0     0    
2019/07/27  11:42:04  BASE  5.69772  359  7.47348  4    -2.2  90    -3.7  0     0     968.5    NA       0.0000   9999     360   0     0    
2019/07/27  11:43:04  BASE  5.83884  356  7.2324   360  -2.3  90    -3.6  0     0     968.5    NA       0.0000   9999     360   0     0    
2019/07/27  11:44:04  BASE  6.16812  359  7.2324   360  -2.3  91    -3.6  0     0     968.5    NA       0.0000   9999     0     0     0    
2019/07/27  11:45:04  BASE  5.9094   356  7.2324   360  -2.4  91    -3.6  0     0     968.6    NA       0.0000   9999     0     0     0    
2019/07/27  11:46:04  BASE  5.32728  356  7.2324   360  -2.5  92    -3.6  0     0     968.6    NA       0.0000   9999     0     0     0    
2019/07/27  11:47:05  BASE  5.1156   1    7.2324   360  -2.6  93    -3.6  0     0     968.7    NA       0.0000   9999     0     0     0    
2019/07/27  11:48:04  BASE  4.704    3    7.2324   360  -2.7  93    -3.6  0     0     968.7    NA       0.0000   UP       9999  0     0    
2019/07/27  11:49:04  BASE  4.116    3    6.74436  4    -2.8  94    -3.6  0     0     968.7    NA       0.0000   UP       9000  0     0    
2019/07/27  11:50:04  BASE  3.89256  5    6.56208  3    -2.8  95    -3.5  0     0     968.7    NA       0.0000   UP       8000  0     0    
2019/07/27  11:51:04  BASE  3.62208  7    6.56208  3    -2.9  96    -3.4  0     0     968.7    NA       0.0000   UP       9000  0     0    
2019/07/27  11:52:04  BASE  3.30456  13   6.56208  3    -2.9  97    -3.2  0     0     968.7    NA       0.0000   UP       BR    6000  0    
2019/07/27  11:53:04  BASE  3.51624  15   6.56208  3    -2.9  98    -3.1  0     0     968.7    NA       0.0000   UP       BR    5000  0    
2019/07/27  11:54:04  BASE  4.22184  12   6.321    354  -2.9  99    -3.0  0     0     968.7    NA       0.0000   -SN      BR    7000  0    
2019/07/27  11:55:04  BASE  4.99212  10   6.41508  3    -2.9  100   -2.9  0     0     968.7    NA       0.0000   -SN      BR    8000  0    
2019/07/27  11:56:04  BASE  5.06856  2    6.41508  3    -2.9  100   -2.9  0     0     968.7    NA       0.0000   -SN      BR    4100  0    
2019/07/27  11:57:04  BASE  4.36296  359  6.41508  3    -2.9  100   -2.9  0     0     968.8    NA       0.0000   -SN      BR    2500  0    
2019/07/27  11:58:04  BASE  3.86316  356  6.41508  3    -2.9  100   -2.9  0     0     968.9    NA       0.0000   -SN      BR    2300  0    
2019/07/27  11:59:04  BASE  3.66324  347  6.41508  3    -3.0  100   -3.0  0     0     968.9    NA       0.0000   -SN      BR    2700  0    
2019/07/27  12:00:04  BASE  3.42804  346  6.41508  3    -3.0  100   -3.0  0     0     968.9    NA       0.0000   -SN      BR    3200  0    
2019/07/27  12:01:04  BASE  3.39276  341  6.41508  3    -3.0  100   -3.0  0     0     968.9    NA       0.0000   -SN      BR    3000  0    
2019/07/27  12:02:04  BASE  3.41628  335  6.41508  3    -3.0  100   -3.0  0     0     968.9    NA       0.0000   -SN      BR    2900  0    
2019/07/27  12:03:04  BASE  3.09288  332  6.41508  3    -3.0  100   -3.0  0     0     968.9    NA       0.0000   -SN      BR    3000  0    
2019/07/27  12:04:04  BASE  2.42844  338  6.41508  3    -3.0  100   -3.0  0     0     969.0    NA       0.0000   -SN      BR    3600  0    
2019/07/27  12:05:04  BASE  2.1462   352  5.44488  4    -3.0  100   -3.0  0     0     969.0    NA       0.0000   -SN      BR    3000  0    
2019/07/27  12:06:04  BASE  2.19324  350  4.53936  339  -3.0  100   -3.0  0     0     968.9    NA       0.0000   -SN      BR    2600  0    
2019/07/27  12:07:04  BASE  2.24028  341  4.53936  339  -3.0  100   -3.0  0     0     968.9    NA       0.0000   -SN      BR    2400  0    
2019/07/27  12:08:04  BASE  1.86984  351  4.53936  339  -3.0  100   -3.0  0     0     969.0    NA       0.0000   -SN      BR    2600  0    
2019/07/27  12:09:04  BASE  1.35828  9    4.53936  339  -3.0  100   -3.0  0     0     969.0    NA       0.0000   -SN      BR    2500  0    
2019/07/27  12:10:04  BASE  1.84044  25   4.53936  339  -3.0  100   -3.0  0     0     969.0    NA       0.0000   -SN      BR    2500  0    
2019/07/27  12:11:04  BASE  2.35788  36   3.96312  328  -3.1  100   -3.1  0     0     969.0    NA       0.0000   -SN      BR    3000  0    
2019/07/27  12:12:04  BASE  2.352    40   3.41628  320  -3.1  100   -3.1  0     0     968.9    NA       0.0000   -SN      BR    3000  0    
2019/07/27  12:13:04  BASE  1.84632  41   3.26928  35   -3.2  100   -3.2  0     0     968.9    NA       0.0000   -SN      BR    2600  0    
2019/07/27  12:14:04  BASE  1.89924  45   4.80984  68   -3.3  100   -3.3  0     0     968.9    NA       0.0000   -SN      BR    2100  0    
2019/07/27  12:15:05  BASE  3.822    67   5.65656  78   -3.4  100   -3.4  0     0     968.9    NA       0.0000   -SN      BR    1500  0    
2019/07/27  12:16:01  BASE  5.03328  78   5.86824  76   -3.5  100   -3.5  0     0     968.9    NA       0.0000   -SN      BR    1200  0    
2019/07/27  12:17:04  BASE  5.00976  79   5.86824  76   -3.6  100   -3.6  0     0     968.9    NA       0.0000   -SN      BR    1000  0    
2019/07/27  12:18:04  BASE  5.28612  79   6.71496  78   -3.6  100   -3.6  0     0     968.8    NA       0.0000   -SN      BR    0800  0    
2019/07/27  12:19:04  BASE  6.00936  73   8.4378   64   -3.7  100   -3.7  0     0     968.8    NA       0.0000   -SN      BR    0800  0    
2019/07/27  12:20:04  BASE  7.00896  62   8.80236  53   -3.7  100   -3.7  0     0     968.8    NA       0.0000   -SN      BR    0800  0    
2019/07/27  12:21:04  BASE  7.4382   49   8.80236  53   -3.6  100   -3.6  0     0     968.7    NA       0.0000   -SN      BR    0800  0    
2019/07/27  12:22:04  BASE  7.22064  41   8.80236  53   -3.6  100   -3.6  0     0     968.7    NA       0.0000   +SN      BR    0800  0    
2019/07/27  12:23:04  BASE  7.1442   38   8.80236  53   -3.6  100   -3.6  0     0     968.7    NA       0.0000   +SN      BR    0800  0    
2019/07/27  12:24:04  BASE  6.80316  34   8.80236  53   -3.5  100   -3.5  0     0     968.7    NA       0.0000   +SN      BR    1000  0    
2019/07/27  12:25:04  BASE  6.33864  31   8.80236  53   -3.5  100   -3.5  0     0     968.7    NA       0.0000   +SN      BR    1300  0    
2019/07/27  12:26:05  BASE  5.77416  30   8.80236  53   -3.4  100   -3.4  0     0     968.7    NA       0.0000   +SN      BR    1600  0    
2019/07/27  12:27:04  BASE  5.83884  30   8.80236  53   -3.4  100   -3.4  0     0     968.7    NA       0.0000   +SN      BR    1700  0    
2019/07/27  12:28:05  BASE  5.92116  35   8.80236  53   -3.4  100   -3.4  0     0     968.9    NA       0.0000   +SN      BR    1500  0    
2019/07/27  12:29:04  BASE  6.321    37   8.80236  53   -3.4  100   -3.4  0     0     968.7    NA       0.0000   +SN      BR    1300  0    
2019/07/27  12:30:04  BASE  7.09716  35   8.86116  37   -3.5  100   -3.5  0     0     968.7    NA       0.0000   -SN      BR    1400  0    
2019/07/27  12:31:04  BASE  6.57972  36   8.86116  37   -3.5  100   -3.5  0     0     968.7    NA       0.0000   -SN      BR    1400  0    
2019/07/27  12:32:05  BASE  5.44488  37   8.86116  37   -3.6  100   -3.6  0     0     968.7    NA       0.0000   -SN      BR    1300  0    
2019/07/27  12:33:05  BASE  4.46292  32   8.86116  37   -3.6  100   -3.6  0     0     968.7    NA       0.0000   -SN      BR    1500  0    
2019/07/27  12:34:04  BASE  3.83376  32   8.86116  37   -3.6  100   -3.6  0     0     968.7    NA       0.0000   -SN      BR    2500  0    
2019/07/27  12:35:04  BASE  3.8514   24   8.86116  37   -3.6  100   -3.6  0     0     968.7    NA       0.0000   -SN      BR    3300  0    
2019/07/27  12:36:04  BASE  3.44568  1    8.86116  37   -3.6  100   -3.6  0     0     968.7    NA       0.0000   -SN      BR    4800  0    
2019/07/27  12:37:04  BASE  2.77536  346  8.86116  37   -3.5  100   -3.5  0     0     968.8    NA       0.0000   -SN      BR    9000  0    
2019/07/27  12:38:05  BASE  4.1454   346  8.86116  37   -3.5  100   -3.5  0     0     968.7    NA       0.0000   -SN      BR    5000  0    
2019/07/27  12:39:05  BASE  4.43352  323  8.86116  37   -3.5  100   -3.5  0     0     968.8    NA       0.0000   -SN      BR    4400  0    
2019/07/27  12:40:04  BASE  3.15168  306  7.07952  11   -3.4  100   -3.4  0     0     968.9    NA       0.0000   -SN      BR    4700  0    
2019/07/27  12:41:04  BASE  2.65776  319  7.07952  11   -3.4  100   -3.4  0     0     968.9    NA       0.0000   -SN      BR    3600  0    
2019/07/27  12:42:05  BASE  2.2932   324  7.07952  11   -3.4  100   -3.4  0     0     968.9    NA       0.0000   -SN      BR    2800  0    
2019/07/27  12:43:04  BASE  3.22224  333  7.07952  11   -3.4  100   -3.4  0     0     968.9    NA       0.0000   -SN      BR    2800  0    
2019/07/27  12:44:04  BASE  4.03956  356  7.07952  11   -3.4  100   -3.4  0     0     968.9    NA       0.0000   -SN      BR    3400  0    
2019/07/27  12:45:03  BASE  4.57464  4    7.07952  11   -3.4  100   -3.4  0     0     968.8    NA       0.0000   -SN      BR    4400  0    
2019/07/27  12:46:04  BASE  5.80944  359  7.80276  9    -3.4  100   -3.4  0     0     968.8    NA       0.0000   -SN      BR    4500  0    
2019/07/27  12:47:04  BASE  5.50956  352  7.80276  9    -3.4  100   -3.4  0     0     968.9    NA       0.0000   -SN      BR    4200  0    
2019/07/27  12:48:04  BASE  3.98664  347  7.80276  9    -3.4  100   -3.4  0     0     968.9    NA       0.0000   -SN      BR    5000  0    
2019/07/27  12:49:04  BASE  3.33984  342  7.80276  9    -3.3  100   -3.3  0     0     968.9    NA       0.0000   -SN      BR    4600  0    
2019/07/27  12:50:04  BASE  3.44568  329  7.80276  9    -3.3  100   -3.3  0     0     969.0    NA       0.0000   -SN      BR    4800  0    
2019/07/27  12:51:04  BASE  3.1752   319  7.80276  9    -3.3  100   -3.3  0     0     969.0    NA       0.0000   -SN      BR    4300  0    
2019/07/27  12:52:04  BASE  2.5578   317  7.80276  9    -3.3  100   -3.3  0     0     969.0    NA       0.0000   -SN      BR    3100  0    
2019/07/27  12:53:04  BASE  2.34612  319  7.80276  9    -3.3  100   -3.3  0     0     969.0    NA       0.0000   -SN      BR    2400  0    
2019/07/27  12:54:04  BASE  2.38728  326  7.80276  9    -3.2  100   -3.2  0     0     969.0    NA       0.0000   -SN      BR    2100  0    
2019/07/27  12:55:04  BASE  2.42844  333  7.80276  9    -3.2  100   -3.2  0     0     969.0    NA       0.0000   -SN      BR    1900  0    
2019/07/27  12:56:03  BASE  2.499    343  5.292    343  -3.2  100   -3.2  0     0     969.0    NA       0.0000   -SN      BR    2100  0    
2019/07/27  12:57:04  BASE  2.34612  354  4.1454   353  -3.2  100   -3.2  0     0     969.0    NA       0.0000   -SN      BR    2100  0    
2019/07/27  12:58:04  BASE  2.22852  359  3.90432  324  -3.2  100   -3.2  0     0     969.0    NA       0.0000   -SN      BR    2100  0    
2019/07/27  12:59:04  BASE  2.62248  355  3.90432  324  -3.2  100   -3.2  0     0     969.0    NA       0.0000   -SN      BR    2400  0    
2019/07/27  13:00:04  BASE  2.93412  346  3.35748  338  -3.2  100   -3.2  0     0     969.0    NA       0.0000   -SN      BR    2300  0    
2019/07/27  13:01:04  BASE  3.15756  343  3.69264  347  -3.2  100   -3.2  0     0     969.1    NA       0.0000   -SN      BR    2300  0    
2019/07/27  13:02:05  BASE  3.32808  349  3.72204  346  -3.2  100   -3.2  0     0     969.1    NA       0.0000   -SN      BR    2900  0    
2019/07/27  13:03:04  BASE  3.22812  3    3.72204  346  -3.2  100   -3.2  0     0     969.1    NA       0.0000   -SN      BR    2700  0    
2019/07/27  13:04:04  BASE  3.01056  12   3.72204  346  -3.2  100   -3.2  0     0     969.1    NA       0.0000   -SN      BR    2100  0    
2019/07/27  13:05:04  BASE  2.84004  7    3.72204  346  -3.2  100   -3.2  0     0     969.1    NA       0.0000   -SN      BR    2200  0    
2019/07/27  13:06:04  BASE  2.76948  359  3.75144  339  -3.2  100   -3.2  0     0     969.0    NA       0.0000   -SN      BR    2400  0    
2019/07/27  13:07:04  BASE  2.92824  353  3.75144  339  -3.2  100   -3.2  0     0     969.0    NA       0.0000   -SN      BR    2700  0    
2019/07/27  13:08:04  BASE  2.7048   356  3.75144  339  -3.2  100   -3.2  0     0     969.0    NA       0.0000   -SN      BR    2800  0    
2019/07/27  13:09:04  BASE  2.15796  350  3.75144  339  -3.2  100   -3.2  0     0     969.0    NA       0.0000   -SN      BR    2600  0    
2019/07/27  13:10:03  BASE  2.45196  341  3.93372  337  -3.2  100   -3.2  0     0     969.0    NA       0.0000   -SN      BR    2400  0    
2019/07/27  13:11:04  BASE  3.18696  337  4.59816  324  -3.2  100   -3.2  1     0     969.0    NA       0.0000   -SN      BR    3600  0    
2019/07/27  13:12:04  BASE  3.53388  328  4.59816  324  -3.2  100   -3.2  1     0     969.0    NA       0.0000   -SN      BR    7000  260  
2019/07/27  13:13:04  BASE  3.56916  326  4.59816  324  -3.2  100   -3.2  1     0     969.0    NA       0.0000   -SN      BR    9999  230  
2019/07/27  13:14:04  BASE  3.92784  325  4.59816  324  -3.1  100   -3.1  1     0     969.0    NA       0.0000   -SN      BR    9999  230  
2019/07/27  13:15:04  BASE  4.25124  321  4.59816  324  -3.1  100   -3.1  1     0     969.1    NA       0.0000   -SN      BR    9999  300  
2019/07/27  13:16:01  BASE  4.3512   321  4.80984  327  -3.1  100   -3.1  1     0     969.1    NA       0.0000   -SN      BR    9999  330  
2019/07/27  13:17:04  BASE  4.27476  321  4.80984  327  -3.1  100   -3.1  1     0     969.1    NA       0.0000   -SN      BR    9999  360  
2019/07/27  13:18:05  BASE  3.92784  319  4.80984  327  -3.1  100   -3.1  1     0     969.1    NA       0.0000   -SN      BR    9999  260  
2019/07/27  13:19:04  BASE  3.71616  318  4.80984  327  -3.1  100   -3.1  1     0     969.1    NA       0.0000   -SN      BR    9999  230  
2019/07/27  13:20:04  BASE  3.55152  312  4.80984  327  -3.1  100   -3.1  1     0     969.1    NA       0.0000   -SN      BR    6000  0    
2019/07/27  13:21:04  BASE  3.33396  308  4.80984  327  -3.1  100   -3.1  1     0     969.1    NA       0.0000   -SN      BR    4000  0    
2019/07/27  13:22:05  BASE  3.15756  306  4.80984  327  -3.1  100   -3.1  2     0     969.1    NA       0.0000   -SN      BR    3300  0    
2019/07/27  13:23:04  BASE  3.3516   301  4.80984  327  -3.1  100   -3.1  2     0     969.1    NA       0.0000   -SN      BR    3900  260  
2019/07/27  13:24:04  BASE  3.36336  300  4.80984  327  -3.1  100   -3.1  2     0     969.1    NA       0.0000   -SN      BR    7000  0    
2019/07/27  13:25:04  BASE  3.03996  302  4.80984  327  -3.2  100   -3.2  2     0     969.1    NA       0.0000   -SN      BR    9000  330  
2019/07/27  13:26:04  BASE  2.8518   305  4.38648  314  -3.2  100   -3.2  2     0     969.1    NA       0.0000   -SN      BR    7000  260  
2019/07/27  13:27:04  BASE  2.95176  308  3.90432  311  -3.2  100   -3.2  3     0     969.1    NA       0.0000   -SN      BR    4700  300  
2019/07/27  13:28:04  BASE  3.31044  312  3.90432  311  -3.2  100   -3.2  3     0     969.1    NA       0.0000   -SN      BR    6000  1250 
2019/07/27  13:29:05  BASE  3.381    315  3.90432  311  -3.2  100   -3.2  3     0     969.1    NA       0.0000   -SN      BR    9999  2660 
2019/07/27  13:30:04  BASE  3.16344  314  3.75144  300  -3.2  100   -3.2  3     0     969.1    NA       0.0000   -SN      BR    9999  720  
2019/07/27  13:31:05  BASE  2.87532  311  3.75144  300  -3.2  100   -3.2  4     0     969.1    NA       0.0000   -SN      BR    9999  390  
2019/07/27  13:32:05  BASE  2.66364  313  3.75144  300  -3.2  100   -3.2  4     0     969.1    NA       0.0000   -SN      BR    9999  390  
2019/07/27  13:33:04  BASE  2.49312  315  3.62796  319  -3.3  100   -3.3  4     0     969.1    NA       0.0000   -SN      BR    9999  390  
2019/07/27  13:34:04  BASE  2.36376  314  3.62796  319  -3.3  100   -3.3  5     0     969.1    NA       0.0000   -SN      BR    9999  390  
2019/07/27  13:35:04  BASE  2.28144  314  3.62796  319  -3.3  100   -3.3  5     0     969.1    NA       0.0000   -SN      9999  360   1020 
2019/07/27  13:36:04  BASE  2.5578   317  3.62796  319  -3.3  100   -3.3  5     0     969.1    NA       0.0000   -SN      9999  330   3050 
2019/07/27  13:37:04  BASE  2.92824  319  3.62796  319  -3.3  100   -3.3  5     0     969.1    NA       0.0000   -SN      9999  360   0    
2019/07/27  13:38:04  BASE  2.9988   320  3.53976  315  -3.3  100   -3.3  5     0     969.2    NA       0.0000   -SN      9999  850   1670 
2019/07/27  13:39:05  BASE  2.84592  320  3.26928  322  -3.3  100   -3.3  6     0     969.2    NA       0.0000   -SN      9999  820   0    
2019/07/27  13:40:04  BASE  2.81652  320  3.26928  322  -3.2  100   -3.2  6     0     969.2    NA       0.0000   -SN      9999  850   1440 
2019/07/27  13:41:04  BASE  2.86944  320  3.26928  322  -3.2  100   -3.2  6     0     969.2    NA       0.0000   -SN      9999  1310  1870 
2019/07/27  13:42:04  BASE  2.76948  319  3.26928  322  -3.2  100   -3.2  7     0     969.2    NA       0.0000   -SN      9999  1380  0    
2019/07/27  13:43:04  BASE  2.63424  319  3.26928  322  -3.2  100   -3.2  7     0     969.2    NA       0.0000   -SN      9999  1350  1940 
2019/07/27  13:44:05  BASE  2.50488  324  3.26928  322  -3.2  100   -3.2  9     0     969.2    NA       0.0000   -SN      9999  1570  0    
2019/07/27  13:45:04  BASE  2.54016  325  3.29868  319  -3.2  100   -3.2  10    0     969.2    NA       0.0000   -SN      9999  1440  2820 
2019/07/27  13:46:05  BASE  2.8812   320  4.02192  332  -3.2  100   -3.2  9     0     969.2    NA       0.0000   9999     820   0     0    
2019/07/27  13:47:05  BASE  4.09248  323  5.53308  336  -3.2  100   -3.2  9     0     969.2    NA       0.0000   9999     1280  0     0    
2019/07/27  13:48:04  BASE  4.9392   328  5.53308  336  -3.1  100   -3.1  8     0     969.2    NA       0.0000   9999     620   0     0    
2019/07/27  13:49:05  BASE  4.21596  339  5.53308  336  -3.1  100   -3.1  8     0     969.2    NA       0.0000   9999     520   0     0    
2019/07/27  13:50:04  BASE  3.12816  351  5.53308  336  -3.1  100   -3.1  7     0     969.2    NA       0.0000   9999     330   0     0    
2019/07/27  13:51:04  BASE  2.7342   356  5.53308  336  -3.0  100   -3.0  8     0     969.2    NA       0.0000   7000     260   0     0    
2019/07/27  13:52:05  BASE  2.83416  359  5.53308  336  -3.0  100   -3.0  8     0     969.2    NA       0.0000   -SN      BR    2900  0    
2019/07/27  13:53:04  BASE  3.2046   350  5.53308  336  -3.0  100   -3.0  8     0     969.2    NA       0.0000   -SN      BR    2200  0    
2019/07/27  13:54:04  BASE  3.7338   336  5.53308  336  -3.0  100   -3.0  9     0     969.2    NA       0.0000   -SN      BR    2500  0    
2019/07/27  13:55:04  BASE  4.65108  326  6.02112  324  -2.9  100   -2.9  9     0     969.2    NA       0.0000   -SN      BR    3400  0    
2019/07/27  13:56:05  BASE  5.30964  329  6.2034   333  -2.9  100   -2.9  10    0     969.2    NA       0.0000   -SN      BR    6000  850  
2019/07/27  13:57:04  BASE  5.30964  333  6.2034   333  -2.9  100   -2.9  10    0     969.2    NA       0.0000   -SN      BR    9999  360  
2019/07/27  13:58:05  BASE  5.78592  334  7.65576  343  -2.8  100   -2.8  10    0     969.2    NA       0.0000   -SN      BR    9999  430  
2019/07/27  13:59:04  BASE  6.56796  337  7.86744  343  -2.8  100   -2.8  10    0     969.2    NA       0.0000   -SN      BR    9999  430  
2019/07/27  14:00:04  BASE  7.22064  339  8.25552  345  -2.9  100   -2.9  10    0     969.2    NA       0.0000   -SN      BR    9999  430  
2019/07/27  14:01:04  BASE  6.79728  336  8.25552  345  -2.8  100   -2.8  9     0     969.2    NA       0.0000   -SN      BR    9999  460  
2019/07/27  14:02:04  BASE  6.13284  333  8.25552  345  -2.8  100   -2.8  9     0     969.2    NA       0.0000   -SN      BR    9999  920  
2019/07/27  14:03:04  BASE  6.27396  335  8.25552  345  -2.9  100   -2.9  9     0     969.2    NA       0.0000   -SN      BR    9999  950  
2019/07/27  14:04:04  BASE  6.78552  335  8.25552  345  -2.9  100   -2.9  9     0     969.2    NA       0.0000   -SN      9999  460   0    
2019/07/27  14:05:04  BASE  7.35     336  8.25552  345  -2.9  100   -2.9  9     0     969.2    NA       0.0000   -SN      9999  1020  0    
2019/07/27  14:06:04  BASE  7.07364  336  8.25552  345  -2.9  100   -2.9  9     0     969.2    NA       0.0000   9999     1380  0     0    
2019/07/27  14:07:04  BASE  6.60324  332  8.25552  345  -2.9  100   -2.9  10    0     969.2    NA       0.0000   9999     1410  0     0    
2019/07/27  14:08:04  BASE  6.7914   335  8.25552  345  -2.9  100   -2.9  9     0     969.2    NA       0.0000   9999     1120  1840  0    
2019/07/27  14:09:04  BASE  7.37352  337  8.25552  345  -2.9  100   -2.9  9     0     969.2    NA       0.0000   9999     1510  0     0    
2019/07/27  14:10:04  BASE  7.88508  339  8.4084   337  -2.9  100   -2.9  9     0     969.2    NA       0.0000   9999     1440  0     0    
2019/07/27  14:11:04  BASE  7.52052  339  8.4084   337  -3.0  100   -3.0  8     0     969.3    NA       0.0000   9999     1510  0     0    
2019/07/27  14:12:04  BASE  7.30884  336  8.4084   337  -3.0  100   -3.0  8     0     969.3    NA       0.0000   9999     1610  0     0    
2019/07/27  14:13:04  BASE  7.36764  335  8.4084   337  -3.0  100   -3.0  8     0     969.3    NA       0.0000   9999     1380  0     0    
2019/07/27  14:14:05  BASE  7.3206   336  8.4084   337  -3.0  100   -3.0  8     0     969.3    NA       0.0000   9999     1350  0     0    
2019/07/27  14:15:05  BASE  7.27356  331  8.4084   337  -3.0  100   -3.0  8     0     969.3    NA       0.0000   9999     1020  0     0    
2019/07/27  14:16:01  BASE  7.15596  329  8.4084   337  -3.0  100   -3.0  9     0     969.3    NA       0.0000   9999     1150  0     0    
2019/07/27  14:17:04  BASE  7.44408  328  8.4084   337  -3.0  100   -3.0  10    0     969.3    NA       0.0000   9999     1080  2300  0    
2019/07/27  14:18:04  BASE  7.41468  324  8.4084   337  -3.0  100   -3.0  10    0     969.3    NA       0.0000   9999     1020  0     0    
2019/07/27  14:19:04  BASE  6.8208   323  8.4084   337  -3.0  100   -3.0  11    0     969.4    NA       0.0000   9999     1080  0     0    
2019/07/27  14:20:04  BASE  6.56796  323  8.19672  334  -3.0  100   -3.0  10    0     969.3    NA       0.0000   9999     1080  0     0    
2019/07/27  14:21:04  BASE  6.87372  330  8.19672  334  -3.0  100   -3.0  9     0     969.3    NA       0.0000   9999     1080  0     0    
2019/07/27  14:22:04  BASE  7.41468  337  7.95564  331  -3.0  100   -3.0  9     0     969.3    NA       0.0000   9999     1020  0     0    
2019/07/27  14:23:04  BASE  7.35     335  7.95564  331  -3.0  100   -3.0  8     0     969.3    NA       0.0000   9999     950   0     0    
2019/07/27  14:24:04  BASE  6.7326   333  7.95564  331  -3.1  100   -3.1  8     0     969.4    NA       0.0000   9999     1020  0     0    
2019/07/27  14:25:04  BASE  6.4092   330  7.95564  331  -3.1  100   -3.1  8     0     969.5    NA       0.0000   9999     660   0     0    
2019/07/27  14:26:04  BASE  6.09756  329  7.95564  331  -3.1  100   -3.1  8     0     969.5    NA       0.0000   9999     1080  0     0    
2019/07/27  14:27:04  BASE  5.95056  329  7.95564  331  -3.1  100   -3.1  8     0     969.5    NA       0.0000   9999     1440  0     0    
2019/07/27  14:28:04  BASE  6.07404  331  7.95564  331  -3.1  100   -3.1  8     0     969.5    NA       0.0000   9999     1480  0     0    
2019/07/27  14:29:04  BASE  6.10344  334  7.95564  331  -3.0  100   -3.0  8     0     969.5    NA       0.0000   9999     1250  0     0    
2019/07/27  14:30:04  BASE  6.00348  334  7.95564  331  -3.0  100   -3.0  8     0     969.5    NA       0.0000   9999     1210  0     0    
2019/07/27  14:31:04  BASE  6.23868  335  7.95564  331  -3.0  100   -3.0  9     0     969.5    NA       0.0000   9999     1280  0     0    
2019/07/27  14:32:05  BASE  6.2622   337  7.50288  332  -3.0  100   -3.0  9     0     969.5    NA       0.0000   9999     1210  0     0    
2019/07/27  14:33:04  BASE  6.09168  338  7.05012  336  -2.9  100   -2.9  9     0     969.5    NA       0.0000   9999     1210  0     0    
2019/07/27  14:34:04  BASE  6.45624  345  7.4088   349  -2.9  100   -2.9  11    0     969.5    NA       0.0000   9999     1180  0     0    
2019/07/27  14:35:04  BASE  6.78552  350  7.4088   349  -2.9  100   -2.9  12    0     969.4    NA       0.0000   9999     1310  0     0    
2019/07/27  14:36:05  BASE  6.49152  350  7.4088   349  -2.9  100   -2.9  13    0     969.5    NA       0.0000   9999     1310  0     0    
2019/07/27  14:37:04  BASE  6.47388  351  7.98504  345  -2.9  100   -2.9  14    0     969.4    NA       0.0000   9999     1280  0     0    
2019/07/27  14:38:04  BASE  7.13832  348  7.98504  345  -2.9  100   -2.9  15    0     969.4    NA       0.0000   9999     1250  0     0    
2019/07/27  14:39:05  BASE  7.45584  341  8.07912  337  -2.9  100   -2.9  17    0     969.5    NA       0.0000   9999     1210  0     0    
2019/07/27  14:40:04  BASE  7.09716  339  8.07912  337  -2.9  100   -2.9  18    0     969.5    NA       0.0000   9999     1670  0     0    
2019/07/27  14:41:05  BASE  7.06188  345  8.07912  337  -2.9  100   -2.9  19    0     969.4    NA       0.0000   9999     1570  0     0    
2019/07/27  14:42:05  BASE  7.12656  348  8.07912  337  -2.9  100   -2.9  21    0     969.5    NA       0.0000   9999     1380  0     0    
2019/07/27  14:43:04  BASE  6.72084  349  8.07912  337  -2.9  100   -2.9  23    0     969.5    NA       0.0000   9999     1350  0     0    
2019/07/27  14:44:04  BASE  6.17988  347  8.07912  337  -2.9  100   -2.9  25    0     969.5    NA       0.0000   9999     1310  0     0    
2019/07/27  14:45:04  BASE  5.69772  350  8.07912  337  -2.9  100   -2.9  27    0     969.5    NA       0.0000   9999     1350  0     0    
2019/07/27  14:46:04  BASE  6.027    357  8.07912  337  -2.9  100   -2.9  28    0     969.5    NA       0.0000   9999     1510  0     0    
2019/07/27  14:47:04  BASE  6.65028  356  8.07912  337  -2.9  100   -2.9  29    0     969.4    NA       0.0000   9999     1480  0     0    
2019/07/27  14:48:04  BASE  7.00308  356  8.07912  337  -3.0  100   -3.0  32    0     969.4    NA       0.0000   9999     1540  0     0    
2019/07/27  14:49:04  BASE  6.86784  357  8.04384  346  -3.0  100   -3.0  35    0     969.5    NA       0.0000   9999     1410  0     0    
2019/07/27  14:50:04  BASE  6.86784  0    8.04384  346  -3.0  100   -3.0  37    0     969.4    NA       0.0000   9999     1570  0     0    
2019/07/27  14:51:04  BASE  7.056    4    7.80276  354  -3.0  100   -3.0  41    0     969.3    NA       0.0000   9999     1510  0     0    
2019/07/27  14:52:04  BASE  6.86196  6    7.80276  354  -3.0  100   -3.0  49    0     969.3    NA       0.0000   9999     1570  0     0    
2019/07/27  14:53:04  BASE  6.76788  6    7.80276  354  -3.0  100   -3.0  58    0     969.3    NA       0.0000   9999     1480  0     0    
2019/07/27  14:54:04  BASE  6.97956  7    7.83216  12   -3.0  100   -3.0  64    0     969.3    NA       0.0000   9999     1570  0     0    
2019/07/27  14:55:04  BASE  6.73848  8    7.83216  12   -3.0  100   -3.0  62    0     969.3    NA       0.0000   9999     1410  0     0    
2019/07/27  14:56:04  BASE  6.20928  7    7.83216  12   -3.0  100   -3.0  60    0     969.3    NA       0.0000   9999     1570  0     0    
2019/07/27  14:57:04  BASE  5.94468  6    7.83216  12   -3.0  100   -3.0  61    0     969.3    NA       0.0000   9999     1510  0     0    
2019/07/27  14:58:03  BASE  6.21516  4    7.83216  12   -3.0  100   -3.0  65    0     969.4    NA       0.0000   9999     1480  0     0    
2019/07/27  14:59:04  BASE  6.51504  2    7.83216  12   -3.0  100   -3.0  70    0     969.4    NA       0.0000   9999     1510  0     0    
2019/07/27  15:00:04  BASE  6.73848  359  7.83216  12   -3.0  100   -3.0  76    0     969.5    NA       0.0000   9999     1480  0     0    
2019/07/27  15:01:05  BASE  7.35     356  8.379    352  -3.1  100   -3.1  73    0     969.6    NA       0.0000   9999     1800  0     0    
2019/07/27  15:02:04  BASE  7.3794   350  8.379    352  -3.1  100   -3.1  73    0     969.7    NA       0.0000   9999     1540  0     0    
2019/07/27  15:03:04  BASE  7.06188  352  8.379    352  -3.2  100   -3.2  76    0     969.7    NA       0.0000   9999     1770  0     0    
2019/07/27  15:04:04  BASE  7.04424  351  8.379    352  -3.3  100   -3.3  78    0     969.8    NA       0.0000   9999     1770  0     0    
2019/07/27  15:05:04  BASE  6.63852  350  8.379    352  -3.3  100   -3.3  78    0     969.8    NA       0.0000   9999     1570  0     0    
2019/07/27  15:06:04  BASE  6.615    348  8.379    352  -3.3  100   -3.3  79    0     969.8    NA       0.0000   9999     1770  0     0    
2019/07/27  15:07:04  BASE  6.89136  344  8.379    352  -3.2  100   -3.2  88    0     969.8    NA       0.0000   9999     1740  0     0    
2019/07/27  15:08:05  BASE  7.54992  342  9.4962   346  -3.2  100   -3.2  92    0     969.7    NA       0.0000   9999     1800  0     0    
2019/07/27  15:09:04  BASE  8.81412  346  9.98424  354  -3.1  100   -3.1  86    0     969.7    NA       0.0000   9999     1870  0     0    
2019/07/27  15:10:04  BASE  9.6726   349  10.7663  347  -3.0  100   -3.0  95    0     969.7    NA       0.0000   9999     1840  0     0    
2019/07/27  15:11:04  BASE  9.94308  347  10.7663  344  -3.0  100   -3.0  101   0     969.7    NA       0.0000   9999     1840  0     0    
2019/07/27  15:12:05  BASE  10.1489  342  10.9192  338  -3.0  100   -3.0  106   0     969.7    NA       0.0000   9999     1610  0     0    
2019/07/27  15:13:03  BASE  9.89016  342  10.9192  338  -3.0  100   -3.0  101   0     969.8    NA       0.0000   9999     1540  0     0    
2019/07/27  15:14:04  BASE  9.04932  343  10.9192  338  -3.0  100   -3.0  98    0     969.8    NA       0.0000   9999     1540  0     0    
2019/07/27  15:15:05  BASE  8.33784  340  10.9192  338  -3.0  100   -3.0  98    0     969.8    NA       0.0000   9999     2000  0     0    
2019/07/27  15:16:01  BASE  8.20848  338  10.9192  338  -3.0  100   -3.0  98    0     969.8    NA       0.0000   9999     1710  0     0    
2019/07/27  15:17:04  BASE  8.07912  344  10.9192  338  -3.0  100   -3.0  84    0     969.9    NA       0.0000   9999     1610  0     0    
2019/07/27  15:18:04  BASE  7.4676   350  10.9192  338  -3.1  100   -3.1  79    0     969.9    NA       0.0000   9999     1940  0     0    
2019/07/27  15:19:04  BASE  6.92076  348  10.9192  338  -3.1  100   -3.1  62    0     969.9    NA       0.0000   9999     1610  0     0    
2019/07/27  15:20:04  BASE  6.762    342  10.9192  338  -3.2  100   -3.2  52    0     969.9    NA       0.0000   9999     1710  0     0    
2019/07/27  15:21:04  BASE  7.05012  343  10.9192  338  -3.3  100   -3.3  50    0     969.9    NA       0.0000   9999     0     0     0    
2019/07/27  15:22:04  BASE  6.83844  355  9.95484  343  -3.4  100   -3.4  50    0     969.9    NA       0.0000   9999     0     0     0    
2019/07/27  15:23:04  BASE  6.78552  359  9.5256   339  -3.5  100   -3.5  49    0     969.9    NA       0.0000   9999     1870  0     0    
2019/07/27  15:24:04  BASE  7.7616   355  9.25512  355  -3.5  99    -3.6  48    0     969.8    NA       0.0000   9999     0     0     0    
2019/07/27  15:25:04  BASE  8.35548  353  9.25512  355  -3.6  99    -3.7  47    0     969.8    NA       0.0000   9999     0     0     0    
2019/07/27  15:26:04  BASE  8.24964  346  9.25512  355  -3.7  99    -3.8  47    0     969.8    NA       0.0000   9999     0     0     0    
2019/07/27  15:27:04  BASE  8.56128  350  9.59028  53   -3.7  99    -3.9  49    0     969.7    NA       0.0000   9999     0     0     0    
2019/07/27  15:28:04  BASE  9.27276  359  10.2253  2    -3.8  99    -3.9  49    0     969.7    NA       0.0000   9999     0     0     0    
2019/07/27  15:29:04  BASE  10.0901  2    11.0132  360  -3.8  99    -3.9  49    0     969.7    NA       0.0000   9999     0     0     0    
2019/07/27  15:30:04  BASE  10.5252  5    11.0132  360  -3.8  99    -4.0  49    0     969.7    NA       0.0000   9999     0     0     0    
2019/07/27  15:31:04  BASE  10.2547  2    11.0132  360  -3.8  99    -3.9  48    0     969.7    NA       0.0000   9999     0     0     0    
2019/07/27  15:32:05  BASE  10.0254  360  11.0132  360  -3.8  99    -3.9  47    0     969.7    NA       0.0000   9999     0     0     0    
2019/07/27  15:33:04  BASE  9.73728  353  11.0132  360  -3.8  99    -3.9  46    0     969.7    NA       0.0000   9999     0     0     0    
2019/07/27  15:34:04  BASE  9.53736  346  11.0132  360  -3.7  99    -3.9  44    0     969.7    NA       0.0000   9999     21620 0     0    
2019/07/27  15:35:04  BASE  9.67848  347  11.0132  360  -3.7  98    -3.9  44    0     969.7    NA       0.0000   9999     0     0     0    
2019/07/27  15:36:04  BASE  10.1312  352  11.2543  295  -3.7  98    -3.9  43    0     969.7    NA       0.0000   9999     0     0     0    
2019/07/27  15:37:05  BASE  11.0132  357  11.9188  1    -3.7  98    -3.9  42    0     969.7    NA       0.0000   9999     0     0     0    
2019/07/27  15:38:04  BASE  10.9309  0    11.9188  1    -3.6  98    -3.9  42    0     969.7    NA       0.0000   9999     0     0     0    
2019/07/27  15:39:04  BASE  10.7957  360  12.3715  360  -3.5  98    -3.8  42    0     969.7    NA       0.0000   9999     0     0     0    
2019/07/27  15:40:04  BASE  10.9956  358  12.3715  360  -3.4  98    -3.7  41    0     969.8    NA       0.0000   9999     0     0     0    
2019/07/27  15:41:04  BASE  11.1191  355  12.3715  360  -3.3  97    -3.6  41    0     969.8    NA       0.0000   9999     0     0     0    
2019/07/27  15:42:04  BASE  11.2837  353  12.3715  360  -3.3  97    -3.6  40    0     969.8    NA       0.0000   9999     0     0     0    
2019/07/27  15:43:04  BASE  11.1367  353  12.3715  360  -3.2  97    -3.7  38    0     969.8    NA       0.0000   9999     15320 0     0    
2019/07/27  15:44:04  BASE  11.0544  348  12.3715  360  -3.3  97    -3.7  35    0     969.8    NA       0.0000   9999     0     0     0    
2019/07/27  15:45:04  BASE  11.0897  350  12.3715  360  -3.3  97    -3.8  34    0     969.8    NA       0.0000   9999     0     0     0    
2019/07/27  15:46:04  BASE  11.0132  355  12.3715  360  -3.4  97    -3.8  32    0     969.9    NA       0.0000   9999     0     0     0    
2019/07/27  15:47:04  BASE  10.8662  356  12.3715  360  -3.4  96    -3.8  30    0     969.9    NA       0.0000   9999     10660 0     0    
2019/07/27  15:48:04  BASE  10.6957  356  12.3715  360  -3.4  96    -3.9  28    0     969.9    NA       0.0000   9999     11780 0     0    
2019/07/27  15:49:04  BASE  10.7898  356  12.1892  354  -3.4  96    -4.0  27    0     969.9    NA       0.0000   9999     11320 0     0    
2019/07/27  15:50:04  BASE  10.8604  358  12.1892  354  -3.4  96    -4.0  26    0     969.9    NA       0.0000   9999     10930 0     0    
2019/07/27  15:51:04  BASE  11.3366  1    12.5244  3    -3.4  95    -4.0  25    0     969.9    NA       0.0000   9999     10730 0     0    
2019/07/27  15:52:04  BASE  11.7894  3    13.13    2    -3.4  95    -4.0  25    0     969.9    NA       0.0000   9999     7480  0     0    
2019/07/27  15:53:04  BASE  12.1304  5    13.13    2    -3.3  95    -4.0  24    0     969.8    NA       0.0000   9999     7910  0     0    
2019/07/27  15:54:04  BASE  12.5714  6    13.13    2    -3.2  95    -3.9  24    0     969.8    NA       0.0000   9999     8070  0     0    
2019/07/27  15:55:03  BASE  12.5891  3    13.13    2    -3.1  95    -3.8  23    0     969.9    NA       0.0000   9999     7510  0     0    
2019/07/27  15:56:04  BASE  11.8894  1    13.13    2    -3.1  95    -3.8  23    0     970.0    NA       0.0000   -SN      9999  7250  0    
2019/07/27  15:57:05  BASE  11.1544  2    13.13    2    -3.1  95    -3.8  23    0     970.0    NA       0.0000   -SN      9999  6860  0    
2019/07/27  15:58:04  BASE  11.4366  1    13.13    2    -3.1  95    -3.7  23    0     969.9    NA       0.0000   -SN      9999  6660  0    
2019/07/27  15:59:04  BASE  11.9129  1    13.13    2    -3.1  95    -3.7  23    0     969.9    NA       0.0000   -SN      9999  6270  0    
2019/07/27  16:00:04  BASE  12.0128  4    13.13    2    -3.0  95    -3.7  24    0     970.0    NA       0.0000   -SN      9999  6660  0    
2019/07/27  16:01:04  BASE  11.76    5    13.13    2    -3.0  95    -3.7  25    0     970.0    NA       0.0000   -SN      9999  7190  0    
2019/07/27  16:02:04  BASE  11.3778  6    13.1006  1    -3.0  95    -3.7  26    0     970.0    NA       0.0000   -SN      9999  7090  0    
2019/07/27  16:03:04  BASE  10.9721  6    13.1006  1    -2.9  95    -3.7  27    0     970.0    NA       0.0000   -SN      9999  2330  0    
2019/07/27  16:04:04  BASE  10.878   7    13.1006  1    -2.9  94    -3.7  29    0     970.1    NA       0.0000   -SN      9999  2360  0    
2019/07/27  16:05:04  BASE  10.9897  9    12.5832  3    -2.9  94    -3.7  31    0     970.1    NA       0.0000   9999     4760  0     0    
2019/07/27  16:06:04  BASE  10.6957  11   12.5832  3    -2.9  94    -3.8  33    0     970.2    NA       0.0000   9999     4660  0     0    
2019/07/27  16:07:04  BASE  10.731   11   12.5832  3    -2.9  93    -3.8  36    0     970.1    NA       0.0000   9999     2360  0     0    
2019/07/27  16:08:04  BASE  10.9956  11   12.5832  3    -2.9  93    -3.9  38    0     970.2    NA       0.0000   9999     4100  0     0    
2019/07/27  16:09:04  BASE  10.3664  13   12.4656  4    -2.9  92    -3.9  41    0     970.2    NA       0.0000   9999     4100  0     0    
2019/07/27  16:10:04  BASE  9.85488  13   12.1892  3    -2.9  92    -3.9  44    0     970.3    NA       0.0000   9999     4460  0     0    
2019/07/27  16:11:04  BASE  9.7608   12   11.9188  7    -2.8  92    -3.9  46    0     970.3    NA       0.0000   9999     3610  0     0    
2019/07/27  16:12:04  BASE  9.64908  12   11.9188  7    -2.8  92    -4.0  49    0     970.2    NA       0.0000   9999     6760  0     0    
2019/07/27  16:13:05  BASE  9.88428  12   11.9188  7    -2.8  92    -4.0  52    0     970.2    NA       0.0000   9999     5910  0     0    
2019/07/27  16:14:04  BASE  10.2312  11   11.9188  7    -2.9  91    -4.1  53    0     970.2    NA       0.0000   9999     2720  0     0    
2019/07/27  16:15:05  BASE  10.2606  11   11.9188  7    -2.9  91    -4.1  54    0     970.2    NA       0.0000   9999     2590  0     0    
2019/07/27  16:16:01  BASE  10.4605  11   11.9776  11   -2.9  91    -4.2  55    0     970.1    NA       0.0000   9999     0     0     0    
2019/07/27  16:17:04  BASE  11.025   8    11.9776  11   -2.9  91    -4.2  57    0     970.0    NA       0.0000   9999     0     0     0    
2019/07/27  16:18:04  BASE  11.3719  7    12.101   6    -2.9  91    -4.1  58    0     970.0    NA       0.0000   9999     0     0     0    
2019/07/27  16:19:04  BASE  11.513   7    12.101   6    -2.9  91    -4.1  59    0     970.0    NA       0.0000   9999     0     0     0    
2019/07/27  16:20:04  BASE  11.76    7    12.4656  9    -2.8  91    -4.1  60    0     970.0    NA       0.0000   9999     0     0     0    
2019/07/27  16:21:04  BASE  11.8129  8    12.4656  9    -2.8  91    -4.1  60    0     970.0    NA       0.0000   9999     0     0     0    
2019/07/27  16:22:04  BASE  11.7365  9    12.5832  10   -2.8  91    -4.0  60    0     970.0    NA       0.0000   9999     0     0     0    
2019/07/27  16:23:04  BASE  11.3543  10   12.5832  10   -2.8  91    -4.0  60    0     970.1    NA       0.0000   9999     0     0     0    
2019/07/27  16:24:04  BASE  10.8133  12   12.5832  10   -2.7  91    -4.0  59    0     970.0    NA       0.0000   9999     18730 0     0    
2019/07/27  16:25:04  BASE  10.8839  13   12.5832  10   -2.7  91    -4.1  58    0     970.0    NA       0.0000   9999     0     0     0    
2019/07/27  16:26:04  BASE  10.7898  13   12.5832  10   -2.8  90    -4.1  56    0     970.0    NA       0.0000   9999     0     0     0    
2019/07/27  16:27:04  BASE  10.5193  14   12.5832  10   -2.8  90    -4.2  53    0     970.0    NA       0.0000   9999     0     0     0    
2019/07/27  16:28:04  BASE  10.6722  14   12.5832  10   -2.8  90    -4.2  51    0     970.0    NA       0.0000   9999     0     0     0    
2019/07/27  16:29:04  BASE  10.9956  15   12.5832  10   -2.9  90    -4.3  50    0     969.9    NA       0.0000   9999     0     0     0    
2019/07/27  16:30:04  BASE  11.3131  15   12.5832  10   -2.9  90    -4.3  49    0     969.9    NA       0.0000   9999     0     0     0    
2019/07/27  16:31:04  BASE  11.4895  16   12.5832  10   -2.9  90    -4.3  49    0     969.9    NA       0.0000   9999     0     0     0    
2019/07/27  16:32:04  BASE  11.4248  17   12.0716  16   -2.9  90    -4.3  52    0     969.9    NA       0.0000   9999     0     0     0    
2019/07/27  16:33:04  BASE  11.1073  16   12.0716  16   -2.9  90    -4.3  79    0     969.9    NA       0.0000   9999     0     0     0    
2019/07/27  16:34:05  BASE  11.2073  17   12.1598  20   -2.9  90    -4.3  95    0     969.9    NA       0.0000   9999     4890  0     0    
2019/07/27  16:35:05  BASE  11.9305  19   12.6773  19   -2.9  90    -4.2  97    0     969.9    NA       0.0000   9999     0     0     0    
2019/07/27  16:36:04  BASE  12.2128  19   13.1006  18   -2.9  91    -4.2  97    0     969.9    NA       0.0000   9999     0     0     0    
2019/07/27  16:37:04  BASE  12.0422  17   13.1006  18   -2.8  91    -4.1  97    0     969.9    NA       0.0000   9999     0     0     0    
2019/07/27  16:38:05  BASE  11.5777  18   13.1006  18   -2.8  91    -4.1  93    0     969.9    NA       0.0000   9999     0     0     0    
2019/07/27  16:39:04  BASE  11.5836  21   13.1006  18   -2.8  91    -4.0  89    0     969.9    NA       0.0000   9999     0     0     0    
2019/07/27  16:40:04  BASE  12.1363  22   13.1594  19   -2.7  91    -4.0  90    0     969.9    NA       0.0000   9999     14240 0     0    
2019/07/27  16:41:04  BASE  12.0011  22   13.1594  19   -2.7  91    -4.0  91    0     969.9    NA       0.0000   9999     14170 0     0    
2019/07/27  16:42:04  BASE  11.6953  23   13.1594  19   -2.8  91    -4.0  94    0     969.9    NA       0.0000   UP       9999  14110 0    
2019/07/27  16:43:04  BASE  12.3833  22   14.0356  21   -2.8  91    -4.0  93    0     969.9    NA       0.0000   UP       9999  0     0    
2019/07/27  16:44:04  BASE  12.7537  20   14.0356  21   -2.8  91    -4.0  95    0     969.8    NA       0.0000   UP       9999  0     0    
2019/07/27  16:45:04  BASE  12.9242  21   14.0356  21   -2.8  91    -4.0  91    0     969.8    NA       0.0000   UP       9999  0     0    
2019/07/27  16:46:05  BASE  13.23    21   14.0356  21   -2.8  91    -4.0  91    0     969.8    NA       0.0000   UP       9999  0     0    
2019/07/27  16:47:05  BASE  13.3241  22   14.5824  22   -2.8  91    -4.0  89    0     969.8    NA       0.0000   UP       9000  0     0    
2019/07/27  16:48:04  BASE  13.3417  22   14.5824  22   -2.8  91    -4.0  84    0     969.8    NA       0.0000   UP       9000  0     0    
2019/07/27  16:49:04  BASE  13.3535  23   14.5824  22   -2.8  91    -4.1  79    0     969.8    NA       0.0000   UP       BR    9999  0    
2019/07/27  16:50:04  BASE  13.13    24   14.5824  22   -2.8  91    -4.1  76    0     969.8    NA       0.0000   UP       BR    9999  0    
2019/07/27  16:51:04  BASE  13.1124  23   14.5824  22   -2.8  91    -4.0  80    0     969.7    NA       0.0000   UP       BR    9999  0    
2019/07/27  16:52:04  BASE  13.183   23   14.5824  22   -2.8  91    -4.0  80    0     969.8    NA       0.0000   UP       BR    9999  0    
2019/07/27  16:53:04  BASE  12.4656  23   14.5824  22   -2.8  92    -4.0  81    0     969.9    NA       0.0000   UP       BR    9999  0    
2019/07/27  16:54:04  BASE  11.9776  24   14.5824  22   -2.8  92    -3.9  88    0     969.8    NA       0.0000   UP       9999  0     0    
2019/07/27  16:55:04  BASE  12.2128  25   14.5824  22   -2.8  92    -3.9  97    0     969.8    NA       0.0000   UP       9999  14730 0    
2019/07/27  16:56:04  BASE  12.3068  24   14.5824  22   -2.8  92    -3.9  101   0     969.8    NA       0.0000   UP       9999  15220 0    
2019/07/27  16:57:04  BASE  12.2774  24   14.5824  22   -2.8  92    -3.9  102   0     969.8    NA       0.0000   UP       9999  0     0    
2019/07/27  16:58:04  BASE  12.2833  24   14.4001  21   -2.8  92    -4.0  101   0     969.8    NA       0.0000   UP       9999  0     0    
2019/07/27  16:59:04  BASE  12.3068  24   14.4001  21   -2.8  91    -4.0  99    0     969.8    NA       0.0000   UP       9999  0     0    
2019/07/27  17:00:05  BASE  12.4715  24   14.4001  21   -2.8  91    -4.0  94    0     969.8    NA       0.0000   UP       9999  0     0    
2019/07/27  17:01:04  BASE  12.7008  24   14.3707  21   -2.8  91    -4.1  88    0     969.8    NA       0.0000   UP       9999  0     0    
2019/07/27  17:02:05  BASE  12.2657  24   14.3707  21   -2.8  91    -4.1  81    0     969.9    NA       0.0000   UP       9999  0     0    
2019/07/27  17:03:04  BASE  12.1246  24   14.3707  21   -2.8  91    -4.1  82    0     969.9    NA       0.0000   UP       9999  0     0    
2019/07/27  17:04:05  BASE  12.3245  24   14.3707  21   -2.8  90    -4.2  82    0     969.9    NA       0.0000   UP       9999  0     0    
2019/07/27  17:05:04  BASE  12.2716  23   14.3707  21   -2.8  90    -4.2  78    0     969.9    NA       0.0000   UP       9999  0     0    
2019/07/27  17:06:04  BASE  12.395   22   14.3707  21   -2.8  90    -4.3  76    0     969.9    NA       0.0000   UP       9999  0     0    
2019/07/27  17:07:04  BASE  12.7772  22   14.3707  21   -2.8  90    -4.3  76    0     969.9    NA       0.0000   UP       9999  0     0    
2019/07/27  17:08:04  BASE  13.6298  23   14.9117  21   -2.9  90    -4.2  74    0     969.9    NA       0.0000   UP       9999  0     0    
2019/07/27  17:09:04  BASE  13.9062  23   14.9117  21   -2.9  90    -4.2  73    0     969.9    NA       0.0000   UP       9000  0     0    
2019/07/27  17:10:03  BASE  13.8356  22   15.0352  22   -2.9  91    -4.2  74    0     969.9    NA       0.0000   UP       9999  0     0    
2019/07/27  17:11:04  BASE  13.9885  21   15.0352  22   -2.8  91    -4.1  78    0     969.9    NA       0.0000   UP       9999  0     0    
2019/07/27  17:12:04  BASE  13.9003  21   15.0352  22   -2.8  91    -4.1  81    0     969.9    NA       0.0000   UP       9999  0     0    
2019/07/27  17:13:04  BASE  14.012   22   15.0352  22   -2.8  91    -4.1  83    0     969.9    NA       0.0000   UP       9999  0     0    
2019/07/27  17:14:04  BASE  14.0591  23   15.0352  22   -2.9  91    -4.1  81    0     969.9    NA       0.0000   UP       9999  0     0    
2019/07/27  17:15:05  BASE  14.4648  22   15.5173  22   -2.9  91    -4.2  78    0     969.8    NA       0.0000   UP       9999  0     0    
2019/07/27  17:16:01  BASE  14.653   23   15.5173  22   -2.9  91    -4.2  73    0     969.9    NA       0.0000   UP       9999  0     0    
2019/07/27  17:17:04  BASE  14.4648  22   15.5173  22   -3.0  91    -4.2  66    0     969.9    NA       0.0000   UP       9999  0     0    
2019/07/27  17:18:05  BASE  13.8356  22   15.5173  22   -3.0  91    -4.2  63    0     969.9    NA       0.0000   UP       9999  0     0    
2019/07/27  17:19:04  BASE  13.0301  24   15.5173  22   -3.0  91    -4.3  62    0     969.9    NA       0.0000   UP       9999  0     0    
2019/07/27  17:20:04  BASE  12.8713  24   15.5173  22   -3.0  91    -4.3  56    0     970.0    NA       0.0000   UP       9999  0     0    
2019/07/27  17:21:04  BASE  12.6832  24   15.5173  22   -3.0  90    -4.3  51    0     970.0    NA       0.0000   UP       9999  0     0    
2019/07/27  17:22:05  BASE  12.8772  25   15.5173  22   -3.0  90    -4.4  47    0     970.0    NA       0.0000   UP       9999  0     0    
2019/07/27  17:23:03  BASE  13.4887  23   15.5173  22   -3.0  90    -4.4  44    0     969.9    NA       0.0000   UP       9999  0     0    
2019/07/27  17:24:05  BASE  13.6298  23   15.5173  22   -3.0  90    -4.5  42    0     969.9    NA       0.0000   UP       9999  0     0    
2019/07/27  17:25:04  BASE  13.4182  24   15.3056  22   -3.0  89    -4.5  41    0     970.0    NA       0.0000   UP       9999  0     0    
2019/07/27  17:26:04  BASE  13.2182  23   15.2762  22   -3.0  89    -4.5  40    0     970.0    NA       0.0000   UP       9999  0     0    
2019/07/27  17:27:03  BASE  13.2829  22   14.8529  23   -3.0  89    -4.6  39    0     970.0    NA       0.0000   UP       9999  0     0    
2019/07/27  17:28:04  BASE  13.0301  22   14.8529  23   -3.0  89    -4.6  37    0     970.0    NA       0.0000   UP       9999  0     0    
2019/07/27  17:29:04  BASE  13.0007  23   14.8529  23   -3.0  89    -4.6  36    0     970.0    NA       0.0000   UP       9999  0     0    
2019/07/27  17:30:04  BASE  13.3064  22   14.8529  23   -3.0  88    -4.6  35    0     970.0    NA       0.0000   UP       9999  0     0    
2019/07/27  17:31:04  BASE  13.3241  21   14.8529  23   -3.0  88    -4.7  34    0     969.9    NA       0.0000   UP       9999  0     0    
2019/07/27  17:32:04  BASE  13.2124  22   14.8529  23   -3.0  88    -4.7  34    0     970.0    NA       0.0000   UP       9999  0     0    
2019/07/27  17:33:04  BASE  13.2182  22   14.6118  21   -3.0  88    -4.7  32    0     970.0    NA       0.0000   UP       9999  0     0    
2019/07/27  17:34:04  BASE  13.7416  24   14.8529  27   -3.0  88    -4.7  31    0     970.0    NA       0.0000   UP       9999  0     0    
2019/07/27  17:35:04  BASE  13.9121  25   14.8529  27   -3.0  88    -4.7  31    0     970.0    NA       0.0000   UP       9999  0     0    
2019/07/27  17:36:04  BASE  13.6769  24   14.8529  27   -3.0  88    -4.8  31    0     969.9    NA       0.0000   UP       9999  0     0    
2019/07/27  17:37:04  BASE  13.1536  25   14.8529  27   -3.0  88    -4.8  33    0     970.0    NA       0.0000   UP       9999  0     0    
2019/07/27  17:38:04  BASE  12.7714  25   14.8529  27   -3.0  87    -4.8  33    0     970.0    NA       0.0000   UP       9999  0     0    
2019/07/27  17:39:04  BASE  13.0654  25   14.8529  27   -3.0  87    -4.8  33    0     970.0    NA       0.0000   UP       9999  0     0    
2019/07/27  17:40:03  BASE  13.1947  26   14.8529  27   -3.0  87    -4.9  33    0     970.0    NA       0.0000   UP       9999  0     0    
2019/07/27  17:41:04  BASE  12.889   25   14.8529  27   -3.0  87    -4.9  32    0     970.0    NA       0.0000   UP       9999  0     0    
2019/07/27  17:42:05  BASE  12.248   25   14.8529  27   -3.0  87    -4.9  32    0     970.1    NA       0.0000   UP       9999  0     0    
2019/07/27  17:43:04  BASE  12.5126  27   14.8529  27   -3.1  87    -4.9  31    0     970.0    NA       0.0000   UP       9999  0     0    
2019/07/27  17:44:04  BASE  13.33    28   14.6706  23   -3.1  87    -5.0  30    0     970.0    NA       0.0000   UP       9999  0     0    
2019/07/27  17:45:04  BASE  13.4358  28   14.8823  31   -3.1  87    -5.0  29    0     969.9    NA       0.0000   UP       9999  0     0    
2019/07/27  17:46:04  BASE  13.2476  28   14.8823  31   -3.2  87    -5.0  28    0     969.9    NA       0.0000   UP       9999  0     0    
2019/07/27  17:47:04  BASE  13.3711  28   14.8823  31   -3.2  87    -5.0  27    0     969.9    NA       0.0000   UP       9999  0     0    
2019/07/27  17:48:03  BASE  13.5181  28   14.8823  31   -3.2  87    -5.1  27    0     969.9    NA       0.0000   UP       9999  0     0    
2019/07/27  17:49:04  BASE  13.4064  26   14.8823  31   -3.2  87    -5.1  27    0     969.9    NA       0.0000   UP       9999  0     0    
2019/07/27  17:50:04  BASE  13.0712  25   14.8823  31   -3.2  86    -5.1  27    0     969.9    NA       0.0000   UP       9999  0     0    
2019/07/27  17:51:04  BASE  12.7478  26   14.8823  31   -3.2  86    -5.2  27    0     970.0    NA       0.0000   UP       9999  0     0    
2019/07/27  17:52:04  BASE  12.789   27   14.8823  31   -3.2  86    -5.2  27    0     969.9    NA       0.0000   UP       9999  0     0    
2019/07/27  17:53:04  BASE  12.9184  28   14.8823  31   -3.2  86    -5.2  26    0     969.9    NA       0.0000   UP       9999  0     0    
2019/07/27  17:54:04  BASE  13.1653  30   14.8823  31   -3.2  86    -5.2  26    0     969.9    NA       0.0000   UP       9000  0     0    
2019/07/27  17:55:04  BASE  13.2653  27   14.7941  25   -3.2  86    -5.2  27    0     969.9    NA       0.0000   UP       7000  0     0    
2019/07/27  17:56:04  BASE  13.3123  26   14.9705  28   -3.2  86    -5.2  27    0     969.9    NA       0.0000   UP       7000  0     0    
2019/07/27  17:57:04  BASE  13.2182  26   14.9705  28   -3.2  86    -5.2  26    0     969.9    NA       0.0000   UP       7000  0     0    
2019/07/27  17:58:04  BASE  13.2888  28   15.3644  29   -3.2  86    -5.2  28    0     969.9    NA       0.0000   UP       BR    8000  0    
2019/07/27  17:59:04  BASE  13.2947  28   15.3644  29   -3.2  86    -5.2  29    0     969.9    NA       0.0000   UP       BR    8000  0    
2019/07/27  18:00:04  BASE  13.0654  28   15.3644  29   -3.1  86    -5.1  30    0     969.9    NA       0.0000   UP       BR    8000  0    
2019/07/27  18:01:04  BASE  12.7655  30   15.3644  29   -3.1  86    -5.1  29    0     970.0    NA       0.0000   UP       BR    9000  0    
2019/07/27  18:02:04  BASE  12.9125  30   15.3644  29   -3.1  86    -5.1  30    0     969.9    NA       0.0000   UP       BR    9000  0    
2019/07/27  18:03:04  BASE  13.4476  30   15.3644  29   -3.1  86    -5.1  30    0     969.9    NA       0.0000   UP       BR    9000  0    
2019/07/27  18:04:04  BASE  13.4358  30   15.3644  29   -3.1  85    -5.2  31    0     969.9    NA       0.0000   UP       BR    9000  0    
2019/07/27  18:05:04  BASE  13.33    29   15.3644  29   -3.1  85    -5.3  28    0     969.8    NA       0.0000   UP       BR    9000  0    
2019/07/27  18:06:04  BASE  13.183   28   15.3644  29   -3.1  85    -5.3  31    0     969.9    NA       0.0000   UP       BR    9999  0    
2019/07/27  18:07:04  BASE  12.8831  29   15.3644  29   -3.1  85    -5.3  30    0     969.9    NA       0.0000   UP       BR    9999  0    
2019/07/27  18:08:04  BASE  12.7302  30   14.6706  30   -3.1  85    -5.3  31    0     969.9    NA       0.0000   UP       BR    9999  0    
2019/07/27  18:09:05  BASE  12.9066  32   14.6706  30   -3.1  85    -5.3  32    0     969.9    NA       0.0000   UP       9999  0     0    
2019/07/27  18:10:04  BASE  13.13    31   14.6706  30   -3.1  84    -5.3  30    0     969.9    NA       0.0000   UP       9999  0     0    
2019/07/27  18:11:04  BASE  12.8008  29   14.6706  30   -3.1  84    -5.4  27    0     969.9    NA       0.0000   UP       9999  0     0    
2019/07/27  18:12:04  BASE  12.9654  31   14.6706  30   -3.1  84    -5.4  23    0     969.9    NA       0.0000   UP       9999  0     0    
2019/07/27  18:13:04  BASE  13.2182  32   15.0058  34   -3.1  84    -5.4  22    0     969.9    NA       0.0000   UP       9999  0     0    
2019/07/27  18:14:04  BASE  13.1712  32   15.0058  34   -3.1  84    -5.4  22    0     969.9    NA       0.0000   UP       9999  0     0    
2019/07/27  18:15:05  BASE  13.3476  30   15.094   27   -3.1  84    -5.5  21    0     969.9    NA       0.0000   UP       9999  0     0    
2019/07/27  18:16:01  BASE  12.8184  29   15.094   27   -3.2  84    -5.5  20    0     969.9    NA       0.0000   UP       9999  0     0    
2019/07/27  18:17:04  BASE  12.6832  29   15.094   27   -3.2  84    -5.6  19    0     969.9    NA       0.0000   UP       9999  0     0    
2019/07/27  18:18:04  BASE  12.8478  30   15.094   27   -3.2  84    -5.6  19    0     969.9    NA       0.0000   UP       9999  0     0    
2019/07/27  18:19:04  BASE  13.3241  31   15.094   27   -3.3  84    -5.6  19    0     969.9    NA       0.0000   UP       9999  0     0    
2019/07/27  18:20:04  BASE  13.4887  29   15.094   27   -3.3  84    -5.7  18    0     969.9    NA       0.0000   UP       6000  0     0    
2019/07/27  18:21:04  BASE  12.9772  30   15.094   27   -3.3  84    -5.7  18    0     970.0    NA       0.0000   UP       6000  0     0    
2019/07/27  18:22:05  BASE  12.8654  31   15.094   27   -3.3  84    -5.6  17    0     970.0    NA       0.0000   UP       6000  0     0    
2019/07/27  18:23:04  BASE  12.9889  29   15.094   27   -3.3  84    -5.6  17    0     970.0    NA       0.0000   UP       6000  0     0    
2019/07/27  18:24:04  BASE  12.7243  29   15.094   27   -3.3  84    -5.6  17    0     970.0    NA       0.0000   UP       6000  0     0    
2019/07/27  18:25:04  BASE  12.2657  29   14.5471  33   -3.3  84    -5.6  17    0     970.0    NA       0.0000   UP       7000  0     0    
2019/07/27  18:26:04  BASE  13.0536  28   14.9117  26   -3.3  84    -5.6  17    0     969.9    NA       0.0000   UP       9000  0     0    
2019/07/27  18:27:04  BASE  13.6592  28   14.9117  26   -3.3  84    -5.6  16    0     969.9    NA       0.0000   UP       9000  0     0    
2019/07/27  18:28:04  BASE  12.9889  30   14.9117  26   -3.3  84    -5.6  16    0     970.0    NA       0.0000   UP       9000  0     0    
2019/07/27  18:29:04  BASE  12.3127  33   14.9117  26   -3.3  84    -5.6  16    0     970.0    NA       0.0000   UP       9000  0     0    
2019/07/27  18:30:04  BASE  12.3127  33   14.9117  26   -3.3  84    -5.6  17    0     970.0    NA       0.0000   HZ       9000  0     0    
2019/07/27  18:31:04  BASE  12.1304  33   14.9117  26   -3.3  84    -5.6  16    0     970.0    NA       0.0000   HZ       9000  0     0    
2019/07/27  18:32:04  BASE  12.101   33   14.9117  26   -3.3  84    -5.7  16    0     969.9    NA       0.0000   -SN      9000  0     0    
2019/07/27  18:33:04  BASE  12.4421  33   14.9117  26   -3.4  84    -5.7  16    0     970.0    NA       0.0000   HZ       9000  0     0    
2019/07/27  18:34:04  BASE  12.4832  33   14.9117  26   -3.4  84    -5.8  16    0     969.9    NA       0.0000   HZ       9000  0     0    
2019/07/27  18:35:04  BASE  12.4303  31   14.9117  26   -3.4  84    -5.8  16    0     969.9    NA       0.0000   HZ       9999  0     0    
2019/07/27  18:36:04  BASE  12.3421  31   14.6412  30   -3.4  84    -5.8  16    0     970.0    NA       0.0000   HZ       9999  0     0    
2019/07/27  18:37:04  BASE  12.4303  32   13.7357  32   -3.4  84    -5.7  16    0     969.9    NA       0.0000   HZ       9999  0     0    
2019/07/27  18:38:04  BASE  12.2716  31   13.7357  32   -3.4  84    -5.7  16    0     970.0    NA       0.0000   HZ       9000  0     0    
2019/07/27  18:39:04  BASE  12.0599  31   13.7357  29   -3.4  84    -5.8  16    0     969.9    NA       0.0000   -SN      8000  0     0    
2019/07/27  18:40:04  BASE  12.3539  30   13.7357  29   -3.4  83    -5.8  16    0     969.9    NA       0.0000   -SN      8000  0     0    
2019/07/27  18:41:04  BASE  12.2186  31   13.7357  29   -3.4  83    -5.8  15    0     970.0    NA       0.0000   -SN      8000  0     0    
2019/07/27  18:42:04  BASE  12.054   34   13.7357  29   -3.4  83    -5.8  15    0     970.0    NA       0.0000   -SN      9999  0     0    
2019/07/27  18:43:04  BASE  11.66    33   13.7357  29   -3.4  83    -5.9  15    0     970.0    NA       0.0000   -SN      9999  0     0    
2019/07/27  18:44:04  BASE  11.4366  33   13.7357  29   -3.4  83    -6.0  14    0     970.0    NA       0.0000   -SN      9999  0     0    
2019/07/27  18:45:04  BASE  12.007   35   13.7357  29   -3.5  82    -6.1  14    0     969.9    NA       0.0000   -SN      9999  0     0    
2019/07/27  18:46:04  BASE  12.101   37   13.7357  29   -3.5  82    -6.1  14    0     969.9    NA       0.0000   -SN      9000  0     0    
2019/07/27  18:47:04  BASE  12.2951  37   13.7651  36   -3.5  82    -6.2  13    0     969.8    NA       0.0000   -SN      7000  0     0    
2019/07/27  18:48:04  BASE  11.8952  36   13.7651  36   -3.5  81    -6.3  13    0     969.9    NA       0.0000   -SN      9000  0     0    
2019/07/27  18:49:04  BASE  11.7541  36   13.7651  36   -3.5  81    -6.3  13    0     969.8    NA       0.0000   HZ       9999  0     0    
2019/07/27  18:50:04  BASE  12.1069  37   13.7651  36   -3.5  80    -6.4  13    0     969.8    NA       0.0000   HZ       8000  0     0    
2019/07/27  18:51:05  BASE  12.054   37   13.7651  36   -3.5  80    -6.5  12    0     969.8    NA       0.0000   HZ       8000  0     0    
2019/07/27  18:52:05  BASE  12.4127  37   13.7651  36   -3.6  79    -6.7  12    0     969.8    NA       0.0000   HZ       7000  0     0    
2019/07/27  18:53:05  BASE  12.7243  36   13.7651  36   -3.6  79    -6.8  12    0     969.8    NA       0.0000   HZ       7000  0     0    
2019/07/27  18:54:04  BASE  12.2186  38   13.7651  36   -3.7  78    -6.9  12    0     969.8    NA       0.0000   HZ       8000  0     0    
2019/07/27  18:55:04  BASE  11.7482  38   13.7651  36   -3.7  78    -7.0  11    0     969.8    NA       0.0000   HZ       9999  0     0    
2019/07/27  18:56:04  BASE  11.8129  38   13.7651  36   -3.7  78    -7.0  11    0     969.8    NA       0.0000   HZ       9000  0     0    
2019/07/27  18:57:04  BASE  11.5483  38   13.6416  36   -3.7  78    -7.0  11    0     969.9    NA       0.0000   HZ       8000  0     0    
2019/07/27  18:58:04  BASE  11.513   38   13.6416  36   -3.7  78    -7.0  11    0     969.9    NA       0.0000   HZ       9000  0     0    
2019/07/27  18:59:03  BASE  11.4248  38   13.6416  36   -3.7  78    -7.0  10    0     969.9    NA       0.0000   HZ       9999  0     0    
2019/07/27  19:00:04  BASE  10.9486  37   13.6416  36   -3.8  78    -7.0  10    0     969.9    NA       0.0000   HZ       9999  0     0    
2019/07/27  19:01:04  BASE  10.4546  36   13.6416  36   -3.8  78    -7.0  10    0     969.9    NA       0.0000   HZ       9999  0     0    
2019/07/27  19:02:05  BASE  10.6957  38   13.6416  36   -3.9  79    -7.0  9     0     969.9    NA       0.0000   HZ       9999  0     0    
2019/07/27  19:03:07  BASE  11.1544  39   12.9772  39   -3.9  79    -7.0  9     0     969.9    NA       0.0000   9999     0     0     0    
2019/07/27  19:04:05  BASE  11.125   40   12.9772  39   -3.9  79    -6.9  9     0     969.9    NA       0.0000   9000     0     0     0    
2019/07/27  19:05:04  BASE  11.4542  41   12.7067  42   -3.9  80    -6.9  8     0     969.8    NA       0.0000   9999     0     0     0    
2019/07/27  19:06:04  BASE  11.713   41   12.7067  42   -3.9  80    -6.8  8     0     969.8    NA       0.0000   HZ       6000  0     0    
2019/07/27  19:07:04  BASE  11.7894  43   12.7067  42   -3.8  80    -6.8  8     0     969.8    NA       0.0000   HZ       4400  0     0    
2019/07/27  19:08:04  BASE  11.66    45   12.8243  47   -3.8  80    -6.7  8     0     969.8    NA       0.0000   HZ       6000  0     0    
2019/07/27  19:09:04  BASE  11.6953  44   12.8243  47   -3.8  80    -6.7  7     0     969.8    NA       0.0000   HZ       7000  0     0    
2019/07/27  19:10:04  BASE  11.4954  43   12.8243  47   -3.7  80    -6.7  7     0     969.9    NA       0.0000   HZ       8000  0     0    
2019/07/27  19:11:04  BASE  11.2426  43   12.8243  47   -3.7  79    -6.8  7     0     969.9    NA       0.0000   HZ       9999  0     0    
2019/07/27  19:12:05  BASE  11.2661  43   12.8243  47   -3.7  79    -6.8  6     0     969.9    NA       0.0000   HZ       9999  0     0    
2019/07/27  19:13:04  BASE  11.0956  44   12.8243  47   -3.6  78    -6.9  6     0     969.9    NA       0.0000   HZ       9999  0     0    
2019/07/27  19:14:04  BASE  10.5487  45   12.8243  47   -3.6  77    -7.0  6     0     969.9    NA       0.0000   HZ       9999  0     0    
2019/07/27  19:15:04  BASE  10.2665  46   12.8243  47   -3.6  77    -7.0  6     0     969.9    NA       0.0000   HZ       9999  0     0    
2019/07/27  19:16:01  BASE  10.4723  48   12.8243  47   -3.5  76    -7.1  5     0     969.9    NA       0.0000   HZ       9999  0     0    
2019/07/27  19:17:04  BASE  10.584   48   12.8243  47   -3.5  76    -7.1  5     0     969.9    NA       0.0000   HZ       9999  0     0    
2019/07/27  19:18:04  BASE  10.6546  48   12.3127  43   -3.5  75    -7.2  5     0     969.9    NA       0.0000   HZ       9999  0     0    
2019/07/27  19:19:04  BASE  10.6134  50   11.9776  45   -3.4  75    -7.3  5     0     969.9    NA       0.0000   9999     0     0     0    
2019/07/27  19:20:03  BASE  10.2547  50   11.86    46   -3.4  74    -7.4  5     0     970.0    NA       0.0000   9999     0     0     0    
2019/07/27  19:21:03  BASE  10.2371  50   11.86    46   -3.4  73    -7.4  4     0     970.0    NA       0.0000   9999     0     0     0    
2019/07/27  19:22:05  BASE  10.1371  48   11.7659  49   -3.4  73    -7.5  4     0     970.0    NA       0.0000   9999     0     0     0    
2019/07/27  19:23:04  BASE  10.243   48   11.7659  49   -3.4  72    -7.7  4     0     970.0    NA       0.0000   9999     0     0     0    
2019/07/27  19:24:04  BASE  10.096   47   11.7659  49   -3.4  72    -7.7  4     0     970.0    NA       0.0000   9999     0     0     0    
2019/07/27  19:25:04  BASE  9.39624  46   11.7659  49   -3.4  72    -7.8  4     0     970.1    NA       0.0000   9999     0     0     0    
2019/07/27  19:26:04  BASE  9.44328  45   11.7659  49   -3.4  71    -7.9  3     0     970.1    NA       0.0000   9999     0     0     0    
2019/07/27  19:27:04  BASE  9.51384  45   11.3131  55   -3.5  71    -8.0  3     0     970.1    NA       0.0000   9999     0     0     0    
2019/07/27  19:28:04  BASE  9.7314   45   11.3131  55   -3.5  71    -8.0  3     0     970.1    NA       0.0000   9999     0     0     0    
2019/07/27  19:29:04  BASE  9.849    46   11.1602  45   -3.6  71    -8.1  3     0     970.1    NA       0.0000   9999     16900 0     0    
2019/07/27  19:30:04  BASE  9.29628  46   11.1602  45   -3.6  70    -8.2  3     0     970.1    NA       0.0000   9999     16800 0     0    
2019/07/27  19:31:04  BASE  8.91996  47   11.0426  50   -3.6  70    -8.3  3     0     970.1    NA       0.0000   9999     0     0     0    
2019/07/27  19:32:03  BASE  8.86116  48   11.0426  50   -3.5  69    -8.4  3     0     970.2    NA       0.0000   9999     0     0     0    
2019/07/27  19:33:04  BASE  8.82588  51   10.5252  48   -3.5  68    -8.5  3     0     970.2    NA       0.0000   9999     0     0     0    
2019/07/27  19:34:04  BASE  8.43192  51   10.5252  48   -3.4  67    -8.6  3     0     970.2    NA       0.0000   9999     0     0     0    
2019/07/27  19:35:04  BASE  7.70868  51   10.4664  47   -3.3  66    -8.8  2     0     970.2    NA       0.0000   9999     0     0     0    
2019/07/27  19:36:04  BASE  7.12656  51   10.4664  47   -3.3  65    -8.9  2     0     970.2    NA       0.0000   9999     0     0     0    
2019/07/27  19:37:04  BASE  6.62088  52   10.4664  47   -3.2  64    -9.1  2     0     970.2    NA       0.0000   9999     15090 0     0    
2019/07/27  19:38:04  BASE  6.44448  53   10.4664  47   -3.2  63    -9.3  2     0     970.2    NA       0.0000   9999     15420 0     0    
2019/07/27  19:39:04  BASE  6.615    52   9.70788  48   -3.3  62    -9.4  2     0     970.2    NA       0.0000   9999     0     0     0    
2019/07/27  19:40:03  BASE  6.79728  49   9.70788  48   -3.3  62    -9.5  2     0     970.2    NA       0.0000   9999     0     0     0    
2019/07/27  19:41:04  BASE  6.83844  49   9.61968  49   -3.3  62    -9.6  2     0     970.2    NA       0.0000   9999     15220 0     0    
2019/07/27  19:42:05  BASE  6.25044  48   9.25512  53   -3.3  61    -9.7  2     0     970.2    NA       0.0000   9999     15190 0     0    
2019/07/27  19:43:05  BASE  5.8506   46   8.83176  54   -3.3  61    -9.8  2     0     970.2    NA       0.0000   9999     0     0     0    
2019/07/27  19:44:04  BASE  6.13284  45   8.13792  52   -3.3  60    -9.9  1     0     970.2    NA       0.0000   9999     0     0     0    
2019/07/27  19:45:03  BASE  6.52092  43   7.53228  53   -3.3  59    -10.1 1     0     970.2    NA       0.0000   9999     0     0     0    
2019/07/27  19:46:04  BASE  6.75024  42   7.53228  53   -3.4  58    -10.4 1     0     970.2    NA       0.0000   9999     0     0     0    
2019/07/27  19:47:05  BASE  6.98544  42   7.56168  41   -3.4  58    -10.5 1     0     970.1    NA       0.0000   9999     0     0     0    
2019/07/27  19:48:01  BASE  7.10892  42   7.56168  41   -3.4  57    -10.7 1     0     970.2    NA       0.0000   9999     0     0     0    
2019/07/27  19:49:03  BASE  6.76788  41   7.56168  41   -3.4  56    -10.9 1     0     970.1    NA       0.0000   9999     0     0     0    
2019/07/27  19:50:03  BASE  6.71496  40   7.56168  41   -3.3  55    -11.1 1     0     970.1    NA       0.0000   9999     15090 0     0    
2019/07/27  19:51:04  BASE  7.06188  40   7.65576  36   -3.3  54    -11.2 1     0     970.1    NA       0.0000   9999     15160 0     0    
2019/07/27  19:52:04  BASE  7.26768  41   8.07912  40   -3.2  53    -11.4 1     0     970.0    NA       0.0000   9999     15130 0     0    
2019/07/27  19:53:04  BASE  7.63812  43   8.62008  45   -3.3  53    -11.5 1     0     970.0    NA       0.0000   9999     15060 0     0    
2019/07/27  19:54:05  BASE  7.94388  44   8.62008  45   -3.3  52    -11.7 1     0     970.0    NA       0.0000   9999     14600 0     0    
2019/07/27  19:55:04  BASE  8.22024  45   8.77296  44   -3.3  52    -11.8 1     0     969.9    NA       0.0000   9999     14440 0     0    
2019/07/27  19:56:04  BASE  8.53188  45   9.13752  45   -3.4  52    -11.9 1     0     969.9    NA       0.0000   9999     14370 0     0    
2019/07/27  19:57:04  BASE  8.59068  45   9.19632  47   -3.4  51    -12.1 1     0     969.9    NA       0.0000   9999     14730 0     0    
2019/07/27  19:58:04  BASE  8.44956  45   9.19632  47   -3.4  51    -12.1 0     0     969.9    NA       0.0000   9999     15490 0     0    
2019/07/27  19:59:04  BASE  8.13204  45   9.19632  47   -3.4  51    -12.1 0     0     969.9    NA       0.0000   9999     14080 0     0    
2019/07/27  20:00:04  BASE  8.09676  46   9.19632  47   -3.4  51    -12.1 0     0     969.9    NA       0.0000   9999     13940 0     0    
2019/07/27  20:01:04  BASE  8.7024   46   9.70788  45   -3.4  51    -12.1 0     0     969.9    NA       0.0000   9999     13850 0     0    
2019/07/27  20:02:04  BASE  9.14928  45   9.70788  51   -3.3  51    -12.0 0     0     969.8    NA       0.0000   9999     14310 0     0    
2019/07/27  20:03:03  BASE  9.13164  46   9.70788  51   -3.3  51    -12.0 0     0     969.8    NA       0.0000   9999     14830 0     0    
2019/07/27  20:04:04  BASE  8.90232  48   9.70788  51   -3.3  51    -12.1 0     0     969.8    NA       0.0000   9999     14270 0     0    
2019/07/27  20:05:03  BASE  8.62008  49   9.70788  51   -3.3  51    -12.0 0     0     969.8    NA       0.0000   9999     14370 0     0    
2019/07/27  20:06:04  BASE  8.33196  49   9.70788  51   -3.3  51    -12.0 0     0     969.8    NA       0.0000   9999     14270 0     0    
2019/07/27  20:07:05  BASE  8.47308  49   9.70788  51   -3.3  51    -11.9 0     0     969.8    NA       0.0000   9999     14340 0     0    
2019/07/27  20:08:04  BASE  8.8494   48   9.95484  53   -3.3  52    -11.9 0     0     969.8    NA       0.0000   9999     14140 0     0    
2019/07/27  20:09:04  BASE  8.99052  48   9.95484  53   -3.4  52    -11.8 0     0     969.8    NA       0.0000   9999     13980 0     0    
2019/07/27  20:10:03  BASE  9.30804  47   9.98424  48   -3.4  53    -11.7 0     0     969.8    NA       0.0000   9999     13810 0     0    
2019/07/27  20:11:03  BASE  9.66084  47   10.2547  48   -3.5  53    -11.7 0     0     969.7    NA       0.0000   9999     13910 0     0    
2019/07/27  20:12:05  BASE  9.92544  47   10.9192  50   -3.5  53    -11.8 0     0     969.7    NA       0.0000   9999     13910 0     0    
2019/07/27  20:13:05  BASE  10.1136  48   10.9192  50   -3.5  53    -11.8 0     0     969.7    NA       0.0000   9999     13910 0     0    
2019/07/27  20:14:06  BASE  9.88428  47   10.9192  50   -3.5  53    -11.8 0     0     969.7    NA       0.0000   9999     13810 0     0    
2019/07/27  20:15:05  BASE  9.57852  46   10.9192  50   -3.5  53    -11.7 0     0     969.6    NA       0.0000   9999     13680 0     0    
2019/07/27  20:16:04  BASE  9.7902   45   10.9192  50   -3.4  53    -11.7 0     0     969.6    NA       0.0000   9999     13680 0     0    
2019/07/27  20:17:04  BASE  10.0136  47   10.9192  50   -3.4  52    -11.8 0     0     969.6    NA       0.0000   9999     13550 0     0    
2019/07/27  20:18:04  BASE  9.91368  48   10.9192  50   -3.5  52    -11.9 0     0     969.6    NA       0.0000   9999     13650 0     0    
2019/07/27  20:19:05  BASE  9.7608   47   10.9192  50   -3.5  52    -11.9 0     0     969.6    NA       0.0000   9999     13650 0     0    
2019/07/27  20:20:04  BASE  9.88428  48   10.9192  50   -3.6  52    -12.0 0     0     969.6    NA       0.0000   9999     13650 0     0    
2019/07/27  20:21:04  BASE  10.1783  48   10.9192  50   -3.6  52    -12.0 0     0     969.5    NA       0.0000   9999     13680 0     0    
2019/07/27  20:22:05  BASE  10.2606  47   11.2837  50   -3.7  53    -11.9 0     0     969.5    NA       0.0000   9999     13580 0     0    
2019/07/27  20:23:04  BASE  9.74904  47   11.2837  50   -3.6  53    -11.9 0     0     969.5    NA       0.0000   9999     13650 0     0    
2019/07/27  20:24:04  BASE  9.33156  48   11.2837  50   -3.6  53    -11.8 0     0     969.5    NA       0.0000   9999     13580 0     0    
2019/07/27  20:25:04  BASE  9.408    49   11.2837  50   -3.5  53    -11.8 0     0     969.5    NA       0.0000   9999     13520 0     0    
2019/07/27  20:26:04  BASE  9.4374   49   11.2837  50   -3.4  52    -11.8 0     0     969.5    NA       0.0000   9999     13680 14210 0    
2019/07/27  20:27:04  BASE  9.4962   48   11.2837  50   -3.4  52    -11.8 0     0     969.5    NA       0.0000   9999     14140 0     0    
2019/07/27  20:28:05  BASE  9.81372  48   11.6777  50   -3.4  52    -11.9 0     0     969.4    NA       0.0000   9999     13710 0     0    
2019/07/27  20:29:04  BASE  10.3664  50   11.6777  50   -3.5  51    -12.2 0     0     969.4    NA       0.0000   9999     13910 0     0    
2019/07/27  20:30:04  BASE  10.5193  49   11.6777  50   -3.6  51    -12.4 0     0     969.4    NA       0.0000   9999     14080 14530 0    
2019/07/27  20:31:05  BASE  10.8016  51   11.9482  54   -3.6  51    -12.4 0     0     969.3    NA       0.0000   9999     14010 14470 0    
2019/07/27  20:32:05  BASE  10.8251  51   11.9482  54   -3.7  50    -12.5 0     0     969.3    NA       0.0000   9999     14010 0     0    
2019/07/27  20:33:04  BASE  10.4311  51   11.9482  54   -3.6  50    -12.5 0     0     969.3    NA       0.0000   9999     14040 0     0    
2019/07/27  20:34:05  BASE  10.3664  49   11.9482  54   -3.6  50    -12.5 0     0     969.3    NA       0.0000   9999     14140 0     0    
2019/07/27  20:35:05  BASE  10.3312  49   11.9482  54   -3.5  50    -12.4 0     0     969.3    NA       0.0000   9999     14210 0     0    
2019/07/27  20:36:04  BASE  10.5722  48   11.9482  54   -3.4  50    -12.3 0     0     969.2    NA       0.0000   9999     14240 0     0    
2019/07/27  20:37:05  BASE  10.631   48   11.9482  54   -3.3  50    -12.3 0     0     969.2    NA       0.0000   9999     14110 0     0    
2019/07/27  20:38:04  BASE  10.243   50   11.9482  54   -3.2  50    -12.3 0     0     969.2    NA       0.0000   9999     14600 0     0    
2019/07/27  20:39:05  BASE  10.096   51   11.9482  54   -3.2  49    -12.3 0     0     969.2    NA       0.0000   9999     14670 0     0    
2019/07/27  20:40:04  BASE  10.143   52   11.9482  54   -3.1  49    -12.3 0     0     969.2    NA       0.0000   9999     14630 0     0    
2019/07/27  20:41:04  BASE  10.0019  51   11.3425  48   -3.1  49    -12.4 0     0     969.2    NA       0.0000   9999     14760 0     0    
2019/07/27  20:42:05  BASE  10.4958  51   11.7365  49   -3.1  48    -12.5 0     0     969.2    NA       0.0000   9999     14730 0     0    
2019/07/27  20:43:04  BASE  10.7075  50   11.7365  49   -3.1  48    -12.5 0     0     969.2    NA       0.0000   9999     14760 0     0    
2019/07/27  20:44:05  BASE  10.043   51   11.7365  49   -3.1  48    -12.6 0     0     969.2    NA       0.0000   9999     14760 0     0    
2019/07/27  20:45:04  BASE  9.66672  54   11.7365  49   -3.1  48    -12.6 0     0     969.2    NA       0.0000   9999     14830 0     0    
2019/07/27  20:46:05  BASE  9.6432   54   11.7365  49   -3.1  48    -12.6 0     0     969.2    NA       0.0000   9999     14930 0     0    
2019/07/27  20:47:04  BASE  9.80196  51   11.7365  49   -3.1  48    -12.6 0     0     969.2    NA       0.0000   9999     14960 0     0    
2019/07/27  20:48:04  BASE  10.0783  54   11.7365  49   -3.2  48    -12.6 0     0     969.2    NA       0.0000   9999     14900 0     0    
2019/07/27  20:49:04  BASE  9.98424  55   11.7365  49   -3.1  48    -12.6 0     0     969.2    NA       0.0000   9999     14930 0     0    
2019/07/27  20:50:04  BASE  9.75492  54   11.7365  49   -3.1  48    -12.6 0     0     969.2    NA       0.0000   9999     15090 0     0    
2019/07/27  20:51:05  BASE  10.3018  54   11.7365  49   -3.1  48    -12.7 0     0     969.2    NA       0.0000   9999     15090 0     0    
2019/07/27  20:52:06  BASE  10.2371  54   11.466   55   -3.1  47    -12.9 0     0     969.2    NA       0.0000   9999     14990 0     0    
2019/07/27  20:53:04  BASE  9.8784   54   11.466   55   -3.0  46    -13.0 0     0     969.2    NA       0.0000   9999     14990 0     0    
2019/07/27  20:54:05  BASE  9.75492  54   11.466   55   -3.0  46    -13.0 0     0     969.2    NA       0.0000   9999     15060 0     0    
2019/07/27  20:55:04  BASE  9.75492  53   11.466   55   -3.0  46    -13.1 0     0     969.2    NA       0.0000   9999     15060 0     0    
2019/07/27  20:56:05  BASE  9.81372  52   11.466   55   -3.0  46    -13.1 0     0     969.2    NA       0.0000   9999     15160 0     0    
2019/07/27  20:57:04  BASE  9.9078   52   11.466   55   -3.0  46    -13.0 0     0     969.2    NA       0.0000   9999     15130 0     0    
2019/07/27  20:58:05  BASE  10.0548  51   11.2543  58   -3.1  46    -13.1 0     0     969.2    NA       0.0000   9999     15190 0     0    
2019/07/27  20:59:02  BASE  10.1254  49   11.2543  58   -3.2  46    -13.1 0     0     969.2    NA       0.0000   9999     15260 0     0    
2019/07/27  21:00:04  BASE  10.1136  49   11.2543  58   -3.2  47    -13.0 0     0     969.2    NA       0.0000   9999     15290 0     0    
2019/07/27  21:01:04  BASE  9.62556  47   11.0132  48   -3.3  47    -13.0 0     0     969.2    NA       0.0000   9999     15390 0     0    
2019/07/27  21:02:05  BASE  9.44328  45   11.0132  48   -3.3  47    -13.0 0     0     969.2    NA       0.0000   9999     15320 0     0    
2019/07/27  21:03:02  BASE  9.64908  46   11.0132  48   -3.3  47    -13.0 0     0     969.2    NA       0.0000   9999     15390 0     0    
2019/07/27  21:04:05  BASE  9.71964  45   11.0132  48   -3.3  47    -13.0 0     0     969.2    NA       0.0000   9999     15360 0     0    
2019/07/27  21:05:04  BASE  10.0372  46   11.3425  43   -3.2  47    -13.1 0     0     969.1    NA       0.0000   9999     15420 0     0    
2019/07/27  21:06:04  BASE  9.89604  47   11.3425  43   -3.2  46    -13.2 0     0     969.2    NA       0.0000   9999     15390 0     0    
2019/07/27  21:07:06  BASE  9.6138   46   11.3425  43   -3.2  46    -13.2 0     0     969.2    NA       0.0000   9999     15360 0     0    
2019/07/27  21:08:05  BASE  10.0136  45   11.3425  43   -3.2  46    -13.3 0     0     969.2    NA       0.0000   9999     15320 0     0    
2019/07/27  21:09:04  BASE  10.3135  45   11.3425  43   -3.3  46    -13.3 0     0     969.2    NA       0.0000   9999     15320 0     0    
2019/07/27  21:10:04  BASE  10.1724  45   11.3425  43   -3.4  46    -13.3 0     0     969.2    NA       0.0000   9999     15360 0     0    
2019/07/27  21:11:04  BASE  10.1489  44   11.3425  43   -3.4  47    -13.2 0     0     969.2    NA       0.0000   9999     15390 0     0    
2019/07/27  21:12:05  BASE  10.4194  44   11.7071  45   -3.5  47    -13.1 0     0     969.3    NA       0.0000   9999     15490 0     0    
2019/07/27  21:13:04  BASE  10.631   43   11.8247  43   -3.5  48    -13.0 0     0     969.3    NA       0.0000   9999     15650 0     0    
2019/07/27  21:14:04  BASE  10.8662  43   12.007   43   -3.5  48    -13.0 0     0     969.3    NA       0.0000   9999     15680 0     0    
2019/07/27  21:15:06  BASE  10.878   44   12.007   43   -3.5  48    -13.0 0     0     969.3    NA       0.0000   9999     15720 0     0    
2019/07/27  21:16:04  BASE  10.878   43   12.007   43   -3.6  48    -13.0 0     0     969.3    NA       0.0000   9999     15650 0     0    
2019/07/27  21:17:01  BASE  10.9074  41   12.007   43   -3.6  48    -13.0 0     0     969.4    NA       0.0000   9999     15650 0     0    
2019/07/27  21:18:04  BASE  10.7369  40   12.0364  41   -3.6  48    -12.9 0     0     969.4    NA       0.0000   9999     15980 0     0    
2019/07/27  21:19:03  BASE  10.9074  40   12.0364  41   -3.6  48    -12.9 0     0     969.4    NA       0.0000   9999     15880 0     0    
2019/07/27  21:20:04  BASE  11.1191  39   12.0716  37   -3.6  49    -12.9 0     0     969.4    NA       0.0000   9999     15750 0     0    
2019/07/27  21:21:04  BASE  11.2073  40   12.0716  37   -3.6  49    -12.9 0     0     969.4    NA       0.0000   9999     15680 0     0    
2019/07/27  21:22:04  BASE  11.2778  40   12.0716  44   -3.6  49    -12.9 0     0     969.4    NA       0.0000   9999     15910 0     0    
2019/07/27  21:23:04  BASE  11.513   42   12.4656  42   -3.6  49    -12.9 0     0     969.4    NA       0.0000   9999     16010 0     0    
2019/07/27  21:24:03  BASE  11.7541  42   12.4656  42   -3.6  49    -12.9 0     0     969.4    NA       0.0000   9999     15980 0     0    
2019/07/27  21:25:03  BASE  11.5542  41   12.4656  42   -3.6  49    -12.8 0     0     969.4    NA       0.0000   9999     15130 0     0    
2019/07/27  21:26:04  BASE  11.7188  41   12.642   45   -3.7  49    -12.8 0     0     969.4    NA       0.0000   9999     15090 0     0    
2019/07/27  21:27:04  BASE  11.7424  41   12.642   45   -3.7  50    -12.6 0     0     969.5    NA       0.0000   9999     15390 0     0    
2019/07/27  21:28:04  BASE  11.072   41   12.642   45   -3.7  51    -12.5 0     0     969.5    NA       0.0000   9999     15450 0     0    
2019/07/27  21:29:04  BASE  10.8956  42   12.642   45   -3.7  51    -12.4 0     0     969.5    NA       0.0000   9999     15580 0     0    
2019/07/27  21:30:03  BASE  11.1426  41   12.642   45   -3.7  51    -12.4 0     0     969.5    NA       0.0000   9999     15090 0     0    
2019/07/27  21:31:04  BASE  10.631   42   12.642   45   -3.6  51    -12.4 0     0     969.6    NA       0.0000   9999     14960 0     0    
2019/07/27  21:32:05  BASE  10.3723  43   12.642   45   -3.6  51    -12.4 0     0     969.5    NA       0.0000   9999     15130 0     0    
2019/07/27  21:33:04  BASE  10.9309  43   12.642   45   -3.6  51    -12.3 0     0     969.5    NA       0.0000   9999     14400 15030 0    
2019/07/27  21:34:05  BASE  11.0956  43   12.642   45   -3.6  51    -12.3 0     0     969.5    NA       0.0000   9999     14340 0     0    
2019/07/27  21:35:04  BASE  10.437   43   12.642   45   -3.6  51    -12.2 0     0     969.6    NA       0.0000   9999     14860 0     0    
2019/07/27  21:36:05  BASE  10.4076  45   12.101   44   -3.6  52    -12.1 0     0     969.6    NA       0.0000   9999     14700 0     0    
2019/07/27  21:37:04  BASE  10.7722  47   12.101   44   -3.5  52    -12.1 0     0     969.5    NA       0.0000   9999     14270 14760 0    
2019/07/27  21:38:05  BASE  10.6898  46   12.101   44   -3.5  51    -12.1 0     0     969.5    NA       0.0000   9999     14140 14960 0    
2019/07/27  21:39:04  BASE  10.5428  46   12.101   44   -3.5  51    -12.1 0     0     969.5    NA       0.0000   9999     13520 14700 0    
2019/07/27  21:40:04  BASE  10.584   44   12.101   44   -3.4  51    -12.1 0     0     969.5    NA       0.0000   9999     14040 0     0    
2019/07/27  21:41:05  BASE  10.631   43   12.101   44   -3.5  51    -12.1 0     0     969.5    NA       0.0000   9999     13350 14340 0    
2019/07/27  21:42:04  BASE  10.484   45   12.101   44   -3.5  52    -12.0 0     0     969.5    NA       0.0000   9999     13320 14370 0    
2019/07/27  21:43:04  BASE  10.2724  46   12.101   44   -3.5  52    -12.0 0     0     969.5    NA       0.0000   9999     13290 13980 0    
2019/07/27  21:44:04  BASE  10.1018  46   11.6483  43   -3.5  52    -12.0 0     0     969.5    NA       0.0000   9999     13450 13940 0    
2019/07/27  21:45:04  BASE  10.2077  48   11.6483  43   -3.6  52    -12.0 0     0     969.5    NA       0.0000   9999     13390 14080 0    
2019/07/27  21:46:04  BASE  10.3782  48   11.6483  43   -3.6  52    -12.0 0     0     969.5    NA       0.0000   9999     13350 13940 0    
2019/07/27  21:47:04  BASE  10.0724  49   11.6483  43   -3.6  53    -11.9 0     0     969.5    NA       0.0000   9999     13260 13910 0    
2019/07/27  21:48:05  BASE  9.87252  49   11.6483  43   -3.6  53    -11.8 0     0     969.5    NA       0.0000   9999     13060 13710 0    
2019/07/27  21:49:04  BASE  10.1018  50   11.6483  43   -3.5  53    -11.7 0     0     969.5    NA       0.0000   9999     13390 0     0    
2019/07/27  21:50:03  BASE  10.0607  51   11.3719  51   -3.5  53    -11.6 0     0     969.5    NA       0.0000   9999     13190 13650 14240
2019/07/27  21:51:03  BASE  10.1959  51   11.3719  53   -3.5  53    -11.6 0     0     969.5    NA       0.0000   9999     13090 0     0    
2019/07/27  21:52:04  BASE  10.2841  51   11.3719  53   -3.4  53    -11.6 0     0     969.4    NA       0.0000   9999     13220 0     0    
2019/07/27  21:53:04  BASE  10.4194  50   12.0364  45   -3.4  53    -11.7 0     0     969.4    NA       0.0000   9999     13120 0     0    
2019/07/27  21:54:05  BASE  10.29    49   12.0364  45   -3.3  52    -11.7 0     0     969.3    NA       0.0000   9999     13160 14600 0    
2019/07/27  21:55:04  BASE  9.9666   49   12.0364  45   -3.3  52    -11.8 0     0     969.3    NA       0.0000   9999     13120 0     0    
2019/07/27  21:56:04  BASE  9.8784   49   12.0364  45   -3.3  52    -11.8 0     0     969.3    NA       0.0000   9999     13060 0     0    
2019/07/27  21:57:04  BASE  9.85488  51   12.0364  45   -3.3  52    -11.8 0     0     969.3    NA       0.0000   9999     13120 0     0    
2019/07/27  21:58:04  BASE  10.0901  52   12.0364  45   -3.4  52    -11.9 0     0     969.2    NA       0.0000   9999     11290 13060 0    
2019/07/27  21:59:04  BASE  10.4605  52   12.0364  45   -3.4  52    -11.9 0     0     969.2    NA       0.0000   9999     11290 13030 0    
2019/07/27  22:00:04  BASE  10.6428  54   12.0364  45   -3.4  52    -11.9 0     0     969.2    NA       0.0000   9999     12930 0     0    
2019/07/27  22:01:01  BASE  10.7722  55   12.0364  45   -3.4  52    -11.8 0     0     969.2    NA       0.0000   9999     11450 12930 0    
2019/07/27  22:02:06  BASE  11.1779  55   12.0364  45   -3.4  52    -11.8 0     0     969.2    NA       0.0000   9999     11250 12890 0    
2019/07/27  22:03:04  BASE  10.9133  55   11.8894  51   -3.4  52    -11.8 0     0     969.2    NA       0.0000   9999     11350 12630 0    
2019/07/27  22:04:05  BASE  10.2724  56   11.8894  51   -3.4  52    -11.8 0     0     969.1    NA       0.0000   9999     11390 12340 0    
2019/07/27  22:05:04  BASE  10.243   55   11.8894  51   -3.4  53    -11.7 0     0     969.1    NA       0.0000   9999     12500 0     0    
2019/07/27  22:06:05  BASE  10.2841  54   11.8894  51   -3.5  53    -11.6 0     0     969.1    NA       0.0000   9999     12500 0     0    
2019/07/27  22:07:05  BASE  10.0313  55   11.8894  51   -3.5  54    -11.5 0     0     969.1    NA       0.0000   9999     12570 0     0    
2019/07/27  22:08:05  BASE  9.78432  56   11.8894  51   -3.5  54    -11.4 0     0     969.1    NA       0.0000   9999     11420 12990 14930
2019/07/27  22:09:05  BASE  9.408    56   11.8894  51   -3.4  55    -11.3 0     0     969.1    NA       0.0000   9999     12990 15060 0    
2019/07/27  22:10:04  BASE  9.47268  54   11.8894  51   -3.4  55    -11.2 0     0     969.1    NA       0.0000   9999     11480 12890 15130
2019/07/27  22:11:05  BASE  9.61968  54   11.8894  51   -3.3  54    -11.3 0     0     969.1    NA       0.0000   9999     11420 12860 0    
2019/07/27  22:12:05  BASE  9.37272  56   11.5542  54   -3.3  54    -11.3 0     0     969.1    NA       0.0000   9999     11390 12730 0    
2019/07/27  22:13:05  BASE  9.40212  57   11.5542  54   -3.3  54    -11.3 0     0     969.1    NA       0.0000   9999     11350 12700 0    
2019/07/27  22:14:05  BASE  9.1728   58   11.5542  54   -3.4  54    -11.3 0     0     969.1    NA       0.0000   9999     11350 12630 0    
2019/07/27  22:15:12  BASE  8.9376   58   11.5542  54   -3.5  55    -11.2 0     0     969.1    NA       0.0000   9999     11350 12570 0    
2019/07/27  22:16:05  BASE  9.37272  57   10.9192  56   -3.5  56    -11.1 0     0     969.0    NA       0.0000   9999     11450 12530 13420
2019/07/27  22:17:04  BASE  10.0489  56   11.4954  62   -3.5  56    -11.0 0     0     969.0    NA       0.0000   9999     12570 13420 0    
2019/07/27  22:18:05  BASE  9.81372  56   11.4954  62   -3.5  56    -11.0 0     0     969.1    NA       0.0000   9999     12600 13520 0    
2019/07/27  22:19:04  BASE  9.03756  55   11.4954  62   -3.5  57    -10.9 0     0     969.0    NA       0.0000   9999     12730 13620 0    
2019/07/27  22:20:04  BASE  9.56088  56   11.4954  62   -3.5  57    -10.8 0     0     969.0    NA       0.0000   9999     12890 0     0    
2019/07/27  22:21:05  BASE  10.3076  55   11.4954  62   -3.4  57    -10.8 0     0     968.9    NA       0.0000   9999     13060 0     0    
2019/07/27  22:22:05  BASE  10.5193  55   11.6483  62   -3.4  57    -10.7 0     0     968.9    NA       0.0000   9999     13090 0     0    
2019/07/27  22:23:04  BASE  10.6663  55   12.0364  55   -3.3  57    -10.6 0     0     968.9    NA       0.0000   9999     13160 0     0    
2019/07/27  22:24:04  BASE  10.5722  55   12.1304  58   -3.3  57    -10.5 0     0     968.9    NA       0.0000   9999     13160 0     0    
2019/07/27  22:25:04  BASE  10.6428  55   12.1304  58   -3.2  57    -10.6 0     0     968.8    NA       0.0000   9999     13120 0     0    
2019/07/27  22:26:05  BASE  11.1191  55   12.7949  59   -3.2  57    -10.6 0     0     968.8    NA       0.0000   9999     12430 12990 0    
2019/07/27  22:27:05  BASE  11.2661  55   12.7949  59   -3.1  56    -10.6 0     0     968.8    NA       0.0000   9999     12340 13030 0    
2019/07/27  22:28:05  BASE  10.8545  55   12.7949  59   -3.1  56    -10.7 0     0     968.8    NA       0.0000   9999     12400 13090 0    
2019/07/27  22:29:04  BASE  11.2543  55   12.7949  59   -3.1  56    -10.8 0     0     968.7    NA       0.0000   9999     12430 0     0    
2019/07/27  22:30:04  BASE  11.6718  55   13.1594  54   -3.1  55    -10.8 0     0     968.7    NA       0.0000   9999     11840 0     0    
2019/07/27  22:31:05  BASE  11.219   54   13.1594  54   -3.2  55    -10.8 0     0     968.7    NA       0.0000   9999     11780 0     0    
2019/07/27  22:32:05  BASE  11.2602  53   13.1594  54   -3.2  56    -10.8 0     0     968.7    NA       0.0000   9999     11880 0     0    
2019/07/27  22:33:04  BASE  12.1128  53   13.9768  55   -3.2  56    -10.7 0     0     968.6    NA       0.0000   8000     10990 12040 0    
2019/07/27  22:34:05  BASE  12.6008  55   13.9768  55   -3.2  56    -10.7 0     0     968.7    NA       0.0000   7000     10930 11880 0    
2019/07/27  22:35:04  BASE  12.7067  57   13.9768  55   -3.2  56    -10.6 0     0     968.6    NA       0.0000   8000     10830 11840 0    
2019/07/27  22:36:05  BASE  12.889   57   13.9768  55   -3.2  56    -10.6 0     0     968.6    NA       0.0000   HZ       8000  10730 11780
2019/07/27  22:37:05  BASE  12.9536  58   13.9768  55   -3.2  56    -10.7 0     0     968.6    NA       0.0000   HZ       8000  10760 11840
2019/07/27  22:38:02  BASE  12.9889  58   14.4883  61   -3.2  56    -10.7 0     0     968.6    NA       0.0000   HZ       9000  10830 11980
2019/07/27  22:39:04  BASE  12.8948  59   14.4883  61   -3.1  56    -10.8 0     0     968.6    NA       0.0000   HZ       9000  10830 0    
2019/07/27  22:40:04  BASE  12.8419  60   14.4883  61   -3.1  55    -10.8 0     0     968.6    NA       0.0000   HZ       9000  9090  10790
2019/07/27  22:41:04  BASE  12.4303  61   14.4883  61   -3.1  55    -10.8 0     0     968.7    NA       0.0000   HZ       9000  8730  10730
2019/07/27  22:42:05  BASE  11.713   63   14.4883  61   -3.0  55    -10.8 0     0     968.7    NA       0.0000   HZ       9999  8500  10790
2019/07/27  22:43:04  BASE  11.2602  64   14.4883  61   -3.0  55    -10.8 0     0     968.7    NA       0.0000   HZ       9999  8460  10600
2019/07/27  22:44:05  BASE  11.2955  64   14.4883  61   -3.0  55    -10.8 0     0     968.8    NA       0.0000   HZ       9999  8370  10560
2019/07/27  22:45:04  BASE  11.3308  65   14.4883  61   -3.0  54    -10.9 0     0     968.8    NA       0.0000   HZ       9999  8330  0    
2019/07/27  22:46:01  BASE  11.2132  67   14.4883  61   -2.9  53    -11.1 0     0     968.8    NA       0.0000   9999     8400  0     0    
2019/07/27  22:47:04  BASE  10.8368  68   14.4883  61   -2.9  52    -11.3 0     0     968.8    NA       0.0000   9999     8400  0     0    
2019/07/27  22:48:05  BASE  10.6428  66   13.6416  62   -2.8  51    -11.6 0     0     968.9    NA       0.0000   9999     8370  0     0    
2019/07/27  22:49:04  BASE  11.0191  65   13.4887  59   -2.8  50    -11.8 0     0     968.9    NA       0.0000   9999     8330  0     0    
2019/07/27  22:50:04  BASE  11.1544  66   12.9184  60   -2.7  49    -11.9 0     0     968.9    NA       0.0000   9999     8270  0     0    
2019/07/27  22:51:04  BASE  11.1132  64   12.495   60   -2.7  49    -12.0 0     0     968.9    NA       0.0000   9999     8300  0     0    
2019/07/27  22:52:05  BASE  11.0838  65   12.3715  63   -2.7  49    -12.0 0     0     968.9    NA       0.0000   9999     8430  0     0    
2019/07/27  22:53:04  BASE  11.1661  66   12.2186  65   -2.8  49    -12.0 0     0     968.8    NA       0.0000   9999     8460  0     0    
2019/07/27  22:54:05  BASE  11.2661  69   12.101   75   -2.8  49    -12.1 0     0     968.8    NA       0.0000   9999     8530  0     0    
2019/07/27  22:55:05  BASE  11.0662  71   12.101   75   -2.9  49    -12.1 0     0     968.9    NA       0.0000   9999     8600  0     0    
2019/07/27  22:56:05  BASE  11.2602  71   12.3421  74   -3.0  50    -12.1 0     0     968.8    NA       0.0000   9999     7610  8600  0    
2019/07/27  22:57:04  BASE  11.4954  72   12.3421  74   -3.1  50    -12.1 0     0     968.7    NA       0.0000   9999     7420  0     0    
2019/07/27  22:58:04  BASE  11.1955  74   12.3421  74   -3.1  50    -12.2 0     0     968.7    NA       0.0000   9999     7120  0     0    
2019/07/27  22:59:04  BASE  11.1485  74   12.3421  74   -3.2  50    -12.2 0     0     968.7    NA       0.0000   9999     7120  0     0    
2019/07/27  23:00:04  BASE  11.1544  74   12.3421  74   -3.2  49    -12.3 0     0     968.6    NA       0.0000   9999     6860  0     0    
2019/07/27  23:01:04  BASE  11.0897  78   12.495   78   -3.2  49    -12.3 0     0     968.6    NA       0.0000   9999     6500  0     0    
2019/07/27  23:02:04  BASE  11.0309  80   12.495   78   -3.2  49    -12.4 0     0     968.6    NA       0.0000   9999     6690  0     0    
2019/07/27  23:03:04  BASE  11.0956  78   12.7067  77   -3.3  49    -12.4 0     0     968.6    NA       0.0000   9999     7510  0     0    
2019/07/27  23:04:05  BASE  11.3308  75   12.7067  77   -3.3  50    -12.4 0     0     968.5    NA       0.0000   9999     8070  0     0    
2019/07/27  23:05:02  BASE  11.5895  74   13.3123  74   -3.4  50    -12.4 0     0     968.5    NA       0.0000   9999     8600  10300 0    
2019/07/27  23:06:05  BASE  11.7718  74   13.3123  74   -3.3  50    -12.3 0     0     968.5    NA       0.0000   9999     10430 0     0    
2019/07/27  23:07:05  BASE  11.4954  74   13.3123  74   -3.2  49    -12.3 0     0     968.5    NA       0.0000   9999     6330  10430 0    
2019/07/27  23:08:05  BASE  11.0897  76   13.3123  74   -3.0  49    -12.3 0     0     968.5    NA       0.0000   9999     6330  0     0    
2019/07/27  23:09:01  BASE  10.9838  77   13.3123  74   -2.9  48    -12.3 0     0     968.5    NA       0.0000   9999     6230  0     0    
2019/07/27  23:10:04  BASE  10.484   77   13.3123  74   -2.7  48    -12.3 0     0     968.5    NA       0.0000   9999     6460  0     0    
2019/07/27  23:11:06  BASE  9.90192  76   13.3123  74   -2.7  47    -12.4 0     0     968.5    NA       0.0000   9999     6560  0     0    
2019/07/27  23:12:05  BASE  9.75492  78   13.3123  74   -2.6  47    -12.4 0     0     968.5    NA       0.0000   9999     6500  0     0    
2019/07/27  23:13:01  BASE  9.53736  82   13.3123  74   -2.7  47    -12.3 0     0     968.5    NA       0.0000   9999     6730  0     0    
2019/07/27  23:14:05  BASE  8.9376   84   13.3123  74   -2.7  48    -12.3 0     0     968.5    NA       0.0000   9999     6430  0     0    
2019/07/27  23:15:05  BASE  9.09636  84   12.642   69   -2.8  48    -12.3 0     0     968.5    NA       0.0000   9999     6460  0     0    
2019/07/27  23:16:02  BASE  9.68436  80   12.1598  79   -3.0  49    -12.3 0     0     968.4    NA       0.0000   9999     7090  9580  0    
2019/07/27  23:17:04  BASE  10.2665  74   12.3715  69   -3.1  49    -12.3 0     0     968.4    NA       0.0000   9999     8830  9810  0    
2019/07/27  23:18:01  BASE  11.1779  70   12.3715  69   -3.3  50    -12.1 0     0     968.3    NA       0.0000   9999     8730  10070 0    
2019/07/27  23:19:04  BASE  11.6836  69   12.7949  70   -3.3  51    -12.0 0     0     968.3    NA       0.0000   9999     8660  0     0    
2019/07/27  23:20:04  BASE  11.9952  70   13.2182  71   -3.4  52    -11.9 0     0     968.3    NA       0.0000   9999     8010  8600  0    
2019/07/27  23:21:04  BASE  12.5126  70   13.9768  67   -3.3  52    -11.8 0     0     968.2    NA       0.0000   9999     8370  0     0    
2019/07/27  23:22:05  BASE  12.9889  71   14.3707  68   -3.2  52    -11.7 0     0     968.1    NA       0.0000   9999     8300  0     0    
2019/07/27  23:23:01  BASE  13.0712  73   14.3707  68   -3.1  52    -11.7 0     0     968.2    NA       0.0000   9000     8300  0     0    
2019/07/27  23:24:05  BASE  12.3598  76   14.3707  68   -3.0  51    -11.7 0     0     968.2    NA       0.0000   9999     8500  0     0    
2019/07/27  23:25:05  BASE  11.366   77   14.3707  68   -3.0  51    -11.7 0     0     968.2    NA       0.0000   9999     8600  0     0    
2019/07/27  23:26:05  BASE  10.2606  81   14.3707  68   -2.9  50    -11.8 0     0     968.2    NA       0.0000   9999     8400  0     0    
2019/07/27  23:27:04  BASE  9.7314   85   14.3707  68   -2.8  50    -11.8 0     0     968.2    NA       0.0000   9999     8460  0     0    
2019/07/27  23:28:01  BASE  9.49032  85   14.3707  68   -2.8  50    -11.9 0     0     968.2    NA       0.0000   9999     8270  8830  0    
2019/07/27  23:29:04  BASE  8.74356  84   14.3707  68   -2.9  50    -11.8 0     0     968.2    NA       0.0000   9999     8330  9150  0    
2019/07/27  23:30:04  BASE  8.60832  83   14.3707  68   -3.1  51    -11.7 0     0     968.2    NA       0.0000   9999     8430  0     0    
2019/07/27  23:31:05  BASE  8.3202   84   14.3707  68   -3.2  52    -11.6 0     0     968.3    NA       0.0000   9999     8460  0     0    
2019/07/27  23:32:05  BASE  7.57932  89   13.9768  74   -3.3  53    -11.5 0     0     968.3    NA       0.0000   9999     8300  0     0    
2019/07/27  23:33:05  BASE  7.00308  91   12.495   83   -3.2  52    -11.6 0     0     968.3    NA       0.0000   9999     8170  0     0    
2019/07/27  23:34:05  BASE  6.8208   91   11.86    76   -3.1  51    -11.8 0     0     968.3    NA       0.0000   9999     8040  0     0    
2019/07/27  23:35:04  BASE  7.24416  95   10.4958  84   -3.1  51    -11.8 0     0     968.3    NA       0.0000   9999     7970  0     0    
2019/07/27  23:36:05  BASE  7.57344  96   10.4958  84   -3.1  51    -11.9 0     0     968.3    NA       0.0000   9999     7510  0     0    
2019/07/27  23:37:05  BASE  7.36764  93   9.86076  90   -3.2  52    -11.8 0     0     968.3    NA       0.0000   9999     7350  0     0    
2019/07/27  23:38:05  BASE  7.70868  91   9.5256   88   -3.5  53    -11.6 0     0     968.3    NA       0.0000   9999     7120  0     0    
2019/07/27  23:39:04  BASE  8.02032  94   9.5256   88   -3.7  55    -11.4 0     0     968.3    NA       0.0000   9999     6990  0     0    
2019/07/27  23:40:04  BASE  7.6146   96   8.95524  92   -3.8  56    -11.3 0     0     968.3    NA       0.0000   9999     7090  0     0    
2019/07/27  23:41:04  BASE  6.9972   97   8.95524  92   -3.9  56    -11.3 0     0     968.4    NA       0.0000   9999     7090  0     0    
2019/07/27  23:42:05  BASE  7.60872  99   9.28452  100  -3.9  57    -11.2 0     0     968.3    NA       0.0000   9999     7150  0     0    
2019/07/27  23:43:04  BASE  8.37312  100  9.28452  100  -3.8  57    -11.1 0     0     968.3    NA       0.0000   9999     7020  0     0    
2019/07/27  23:44:05  BASE  8.0556   98   9.28452  100  -3.8  57    -11.0 0     0     968.3    NA       0.0000   9999     7090  0     0    
2019/07/27  23:45:04  BASE  8.13204  93   9.77256  83   -3.7  58    -10.8 0     0     968.4    NA       0.0000   9999     7050  0     0    
2019/07/27  23:46:05  BASE  7.8498   85   9.77256  83   -3.6  59    -10.6 0     0     968.4    NA       0.0000   9999     6500  7120  0    
2019/07/27  23:47:04  BASE  7.07364  81   9.77256  83   -3.6  59    -10.5 0     0     968.4    NA       0.0000   9999     6370  7120  0    
2019/07/27  23:48:04  BASE  7.497    83   9.77256  83   -3.6  59    -10.4 0     0     968.4    NA       0.0000   9999     7090  0     0    
2019/07/27  23:49:04  BASE  8.12616  88   9.77256  83   -3.7  60    -10.3 0     0     968.4    NA       0.0000   9999     6920  0     0    
2019/07/27  23:50:04  BASE  8.10852  89   9.77256  83   -3.7  61    -10.2 0     0     968.4    NA       0.0000   9999     6990  0     0    
2019/07/27  23:51:05  BASE  7.83216  85   9.77256  83   -3.7  61    -10.1 0     0     968.4    NA       0.0000   9999     7120  0     0    
2019/07/27  23:52:06  BASE  8.74356  74   10.9192  62   -3.7  61    -10.0 0     0     968.3    NA       0.0000   9999     6920  0     0    
2019/07/27  23:53:05  BASE  10.1077  70   10.9192  62   -3.6  62    -9.9  0     0     968.3    NA       0.0000   9999     6660  0     0    
2019/07/27  23:54:04  BASE  9.95484  73   10.9192  62   -3.6  62    -9.8  0     0     968.3    NA       0.0000   9999     6730  0     0    
2019/07/27  23:55:04  BASE  8.7906   81   10.9192  62   -3.5  62    -9.7  0     0     968.4    NA       0.0000   9999     5710  6760  0    
2019/07/27  23:56:04  BASE  8.42016  89   10.9192  62   -3.4  62    -9.7  0     0     968.3    NA       0.0000   9999     5480  0     0    
2019/07/27  23:57:05  BASE  8.89056  92   10.9192  62   -3.3  61    -9.8  0     0     968.3    NA       0.0000   9999     4890  6000  0    
2019/07/27  23:58:05  BASE  8.8788   89   10.9192  62   -3.2  60    -9.9  0     0     968.3    NA       0.0000   9999     4630  6070  0    
2019/07/27  23:59:04  BASE  9.16692  87   10.9192  62   -3.2  60    -9.9  0     0     968.3    NA       0.0000   9999     4230  5910  0